| time (UTC) | temp F | wind direction | speed knots | gust knots | rain 1hr in | rain 24hr in | rain mn in | humidity % | barometer mb |
| 20260901113021 | 71 | 307 | 3.5 | 6.1 | 0.00 | 0.00 | 0.00 | 57 | 1020.0 |
| 20260901112929 | 71 | 296 | 3.5 | 6.1 | 0.00 | 0.00 | 0.00 | 59 | 1020.0 |
| 20260901112921 | 71 | 287 | 3.5 | 6.1 | 0.00 | 0.00 | 0.00 | 59 | 1020.0 |
| 20260901112825 | 71 | 226 | 3.5 | 6.1 | 0.00 | 0.00 | 0.00 | 57 | 1020.0 |
| 20260901112717 | 71 | 309 | 3.5 | 6.1 | 0.00 | 0.00 | 0.00 | 57 | 1020.0 |
| 20260901112617 | 71 | 253 | 3.5 | 6.1 | 0.00 | 0.00 | 0.00 | 60 | 1020.0 |
| 20260901112517 | 70 | 250 | 3.5 | 6.1 | 0.00 | 0.00 | 0.00 | 59 | 1020.0 |
| 20260901112429 | 70 | 262 | 3.5 | 7.0 | 0.00 | 0.00 | 0.00 | 60 | 1020.0 |
| 20260901112416 | 70 | 267 | 3.5 | 7.0 | 0.00 | 0.00 | 0.00 | 60 | 1020.0 |
| 20260901112315 | 70 | 236 | 3.5 | 7.0 | 0.00 | 0.00 | 0.00 | 59 | 1020.1 |
| 20260901112209 | 70 | 227 | 3.5 | 7.0 | 0.00 | 0.00 | 0.00 | 60 | 1020.1 |
| 20260901112109 | 70 | 229 | 3.5 | 7.0 | 0.00 | 0.00 | 0.00 | 58 | 1020.0 |
| 20260901112009 | 70 | 232 | 3.5 | 7.0 | 0.00 | 0.00 | 0.00 | 59 | 1020.0 |
| 20260901111928 | 70 | 232 | 3.5 | 7.0 | 0.00 | 0.00 | 0.00 | 60 | 1020.0 |
| 20260901111910 | 70 | 229 | 3.5 | 7.0 | 0.00 | 0.00 | 0.00 | 60 | 1020.0 |
| 20260901111809 | 70 | 208 | 3.5 | 7.0 | 0.00 | 0.00 | 0.00 | 59 | 1020.0 |
| 20260901111704 | 70 | 241 | 3.5 | 7.0 | 0.00 | 0.00 | 0.00 | 60 | 1020.1 |
| 20260901111642 | 70 | 225 | 2.6 | 7.0 | 0.00 | 0.00 | 0.00 | 60 | 1020.1 |
| 20260901111636 | 70 | 281 | 3.5 | 7.0 | 0.00 | 0.00 | 0.00 | 62 | 1020.1 |
| 20260901111632 | 70 | 227 | 3.5 | 6.1 | 0.00 | 0.00 | 0.00 | 62 | 1020.1 |
| 20260901111628 | 70 | 233 | 3.5 | 6.1 | 0.00 | 0.00 | 0.00 | 62 | 1020.1 |
| 20260901111412 | 70 | 240 | 3.5 | 6.1 | 0.00 | 0.00 | 0.00 | 62 | 1020.1 |
| 20260901111405 | 70 | 266 | 3.5 | 7.0 | 0.00 | 0.00 | 0.00 | 62 | 1020.0 |
| 20260901111401 | 69 | 263 | 2.6 | 7.0 | 0.00 | 0.00 | 0.00 | 62 | 1020.1 |
| 20260901111144 | 69 | 236 | 2.6 | 7.0 | 0.00 | 0.00 | 0.00 | 60 | 1020.1 |
| 20260901111140 | 69 | 218 | 2.6 | 7.0 | 0.00 | 0.00 | 0.00 | 60 | 1020.1 |
| 20260901110901 | 70 | 224 | 2.6 | 7.0 | 0.00 | 0.00 | 0.00 | 60 | 1020.0 |
| 20260901110801 | 70 | 200 | 2.6 | 7.0 | 0.00 | 0.00 | 0.00 | 61 | 1020.0 |
| 20260901110702 | 69 | 238 | 2.6 | 7.0 | 0.00 | 0.00 | 0.00 | 60 | 1020.1 |
| 20260901110601 | 69 | 239 | 2.6 | 7.0 | 0.00 | 0.00 | 0.00 | 61 | 1020.1 |
| 20260901110501 | 70 | 255 | 2.6 | 7.0 | 0.00 | 0.00 | 0.00 | 61 | 1020.2 |
| 20260901110429 | 69 | 225 | 2.6 | 7.0 | 0.00 | 0.00 | 0.00 | 61 | 1020.2 |
| 20260901110401 | 69 | 247 | 2.6 | 7.0 | 0.00 | 0.00 | 0.00 | 62 | 1020.1 |
| 20260901110300 | 69 | 257 | 2.6 | 6.1 | 0.00 | 0.00 | 0.00 | 61 | 1020.1 |
| 20260901110200 | 69 | 252 | 2.6 | 6.1 | 0.00 | 0.00 | 0.00 | 61 | 1020.1 |
| 20260901110001 | 69 | 271 | 2.6 | 6.1 | 0.00 | 0.00 | 0.00 | 60 | 1020.1 |
| 20260901105928 | 69 | 256 | 2.6 | 6.1 | 0.00 | 0.00 | 0.00 | 61 | 1020.1 |
| 20260901105901 | 69 | 257 | 2.6 | 6.1 | 0.00 | 0.00 | 0.00 | 61 | 1020.1 |
| 20260901105801 | 69 | 227 | 2.6 | 6.1 | 0.00 | 0.00 | 0.00 | 61 | 1020.1 |
| 20260901105701 | 69 | 264 | 2.6 | 6.1 | 0.00 | 0.00 | 0.00 | 61 | 1020.1 |
| 20260901105601 | 69 | 255 | 2.6 | 6.1 | 0.00 | 0.00 | 0.00 | 61 | 1020.0 |
| 20260901105501 | 69 | 242 | 2.6 | 6.1 | 0.00 | 0.00 | 0.00 | 61 | 1020.1 |
| 20260901105429 | 69 | 267 | 2.6 | 6.1 | 0.00 | 0.00 | 0.00 | 61 | 1020.1 |
| 20260901105402 | 69 | 266 | 2.6 | 6.1 | 0.00 | 0.00 | 0.00 | 61 | 1020.1 |
| 20260901105301 | 69 | 249 | 2.6 | 5.2 | 0.00 | 0.00 | 0.00 | 61 | 1020.1 |
| 20260901105201 | 69 | 254 | 2.6 | 5.2 | 0.00 | 0.00 | 0.00 | 62 | 1020.1 |
| 20260901105151 | 69 | 291 | 2.6 | 7.0 | 0.00 | 0.00 | 0.00 | 61 | 1020.1 |
| 20260901105143 | 69 | 274 | 2.6 | 6.1 | 0.00 | 0.00 | 0.00 | 61 | 1020.1 |
| 20260901105139 | 69 | 277 | 2.6 | 7.0 | 0.00 | 0.00 | 0.00 | 61 | 1020.1 |
| 20260901104901 | 69 | 309 | 2.6 | 7.0 | 0.00 | 0.00 | 0.00 | 61 | 1020.1 |
| 20260901104800 | 69 | 281 | 3.5 | 7.0 | 0.00 | 0.00 | 0.00 | 62 | 1020.1 |
| 20260901104700 | 69 | 277 | 3.5 | 7.0 | 0.00 | 0.00 | 0.00 | 62 | 1020.1 |
| 20260901104601 | 69 | 290 | 3.5 | 7.0 | 0.00 | 0.00 | 0.00 | 61 | 1020.1 |
| 20260901104501 | 69 | 259 | 3.5 | 7.0 | 0.00 | 0.00 | 0.00 | 62 | 1020.1 |
| 20260901104429 | 69 | 263 | 3.5 | 7.0 | 0.00 | 0.00 | 0.00 | 61 | 1020.1 |
| 20260901104401 | 69 | 301 | 3.5 | 7.0 | 0.00 | 0.00 | 0.00 | 61 | 1020.1 |
| 20260901104305 | 69 | 298 | 3.5 | 7.0 | 0.00 | 0.00 | 0.00 | 61 | 1020.1 |
| 20260901104201 | 69 | 279 | 3.5 | 7.0 | 0.00 | 0.00 | 0.00 | 61 | 1020.1 |
| 20260901104154 | 69 | 248 | 3.5 | 7.0 | 0.00 | 0.00 | 0.00 | 61 | 1020.1 |
| 20260901104145 | 69 | 265 | 3.5 | 7.0 | 0.00 | 0.00 | 0.00 | 61 | 1020.1 |
| 20260901104141 | 69 | 254 | 3.5 | 7.0 | 0.00 | 0.00 | 0.00 | 61 | 1020.1 |
| 20260901103902 | 69 | 292 | 3.5 | 7.0 | 0.00 | 0.00 | 0.00 | 61 | 1020.1 |
| 20260901103804 | 69 | 277 | 3.5 | 7.0 | 0.00 | 0.00 | 0.00 | 61 | 1020.0 |
| 20260901103702 | 69 | 302 | 3.5 | 7.0 | 0.00 | 0.00 | 0.00 | 60 | 1020.1 |
| 20260901103601 | 69 | 252 | 2.6 | 7.0 | 0.00 | 0.00 | 0.00 | 61 | 1020.1 |
| 20260901103501 | 69 | 292 | 2.6 | 7.0 | 0.00 | 0.00 | 0.00 | 61 | 1020.1 |
| 20260901103430 | 69 | 263 | 2.6 | 7.0 | 0.00 | 0.00 | 0.00 | 61 | 1020.1 |
| 20260901103401 | 69 | 279 | 2.6 | 7.0 | 0.00 | 0.00 | 0.00 | 60 | 1020.1 |
| 20260901103301 | 69 | 282 | 2.6 | 7.0 | 0.00 | 0.00 | 0.00 | 61 | 1020.2 |
| 20260901103201 | 69 | 290 | 2.6 | 7.0 | 0.00 | 0.00 | 0.00 | 61 | 1020.1 |
| 20260901103101 | 69 | 284 | 2.6 | 7.0 | 0.00 | 0.00 | 0.00 | 62 | 1020.2 |
| 20260901103001 | 69 | 270 | 2.6 | 7.0 | 0.00 | 0.00 | 0.00 | 62 | 1020.1 |
| 20260901102929 | 69 | 301 | 2.6 | 4.3 | 0.00 | 0.00 | 0.00 | 62 | 1020.1 |
| 20260901102901 | 69 | 292 | 2.6 | 5.2 | 0.00 | 0.00 | 0.00 | 62 | 1020.1 |
| 20260901102800 | 69 | 302 | 2.6 | 6.1 | 0.00 | 0.00 | 0.00 | 61 | 1020.2 |
| 20260901102701 | 69 | 302 | 2.6 | 6.1 | 0.00 | 0.00 | 0.00 | 62 | 1020.2 |
| 20260901102601 | 69 | 303 | 2.6 | 6.1 | 0.00 | 0.00 | 0.00 | 61 | 1020.2 |
| 20260901102500 | 69 | 304 | 2.6 | 6.1 | 0.00 | 0.00 | 0.00 | 62 | 1020.2 |
| 20260901102429 | 69 | 303 | 2.6 | 6.1 | 0.00 | 0.00 | 0.00 | 61 | 1020.2 |
| 20260901102400 | 69 | 327 | 2.6 | 6.1 | 0.00 | 0.00 | 0.00 | 60 | 1020.2 |
| 20260901102300 | 69 | 328 | 2.6 | 6.1 | 0.00 | 0.00 | 0.00 | 61 | 1020.2 |
| 20260901102200 | 69 | 327 | 2.6 | 6.1 | 0.00 | 0.00 | 0.00 | 61 | 1020.2 |
| 20260901102100 | 69 | 286 | 2.6 | 6.1 | 0.00 | 0.00 | 0.00 | 61 | 1020.2 |
| 20260901102000 | 69 | 281 | 2.6 | 6.1 | 0.00 | 0.00 | 0.00 | 61 | 1020.3 |
| 20260901101928 | 69 | 281 | 2.6 | 6.1 | 0.00 | 0.00 | 0.00 | 61 | 1020.3 |
| 20260901101901 | 69 | 282 | 2.6 | 6.1 | 0.00 | 0.00 | 0.00 | 61 | 1020.3 |
| 20260901101800 | 69 | 301 | 2.6 | 6.1 | 0.00 | 0.00 | 0.00 | 61 | 1020.2 |
| 20260901101701 | 69 | 306 | 2.6 | 6.1 | 0.00 | 0.00 | 0.00 | 61 | 1020.2 |
| 20260901101601 | 69 | 325 | 2.6 | 5.2 | 0.00 | 0.00 | 0.00 | 60 | 1020.2 |
| 20260901101502 | 69 | 304 | 2.6 | 5.2 | 0.00 | 0.00 | 0.00 | 61 | 1020.2 |
| 20260901101429 | 69 | 303 | 2.6 | 5.2 | 0.00 | 0.00 | 0.00 | 61 | 1020.2 |
| 20260901101401 | 69 | 309 | 2.6 | 5.2 | 0.00 | 0.00 | 0.00 | 61 | 1020.3 |
| 20260901101301 | 69 | 296 | 2.6 | 5.2 | 0.00 | 0.00 | 0.00 | 63 | 1020.3 |
| 20260901101201 | 69 | 309 | 2.6 | 5.2 | 0.00 | 0.00 | 0.00 | 62 | 1020.3 |
| 20260901101101 | 69 | 305 | 2.6 | 5.2 | 0.00 | 0.00 | 0.00 | 62 | 1020.3 |
| 20260901101001 | 69 | 263 | 2.6 | 6.1 | 0.00 | 0.00 | 0.00 | 61 | 1020.3 |
| 20260901100929 | 69 | 267 | 2.6 | 6.1 | 0.00 | 0.00 | 0.00 | 62 | 1020.3 |
| 20260901100901 | 69 | 298 | 3.5 | 6.1 | 0.00 | 0.00 | 0.00 | 62 | 1020.3 |
| 20260901100801 | 69 | 296 | 3.5 | 6.1 | 0.00 | 0.00 | 0.00 | 62 | 1020.3 |
| 20260901100701 | 69 | 306 | 3.5 | 6.1 | 0.00 | 0.00 | 0.00 | 62 | 1020.3 |
| 20260901100601 | 69 | 298 | 3.5 | 7.0 | 0.00 | 0.00 | 0.00 | 62 | 1020.4 |
| 20260901100501 | 69 | 309 | 3.5 | 7.0 | 0.00 | 0.00 | 0.00 | 62 | 1020.3 |
| 20260901100429 | 69 | 342 | 3.5 | 7.0 | 0.00 | 0.00 | 0.00 | 62 | 1020.3 |
| 20260901100401 | 69 | 319 | 3.5 | 7.0 | 0.00 | 0.00 | 0.00 | 62 | 1020.4 |
| 20260901100301 | 69 | 302 | 4.3 | 7.0 | 0.00 | 0.00 | 0.00 | 61 | 1020.3 |
| 20260901100201 | 70 | 347 | 4.3 | 7.0 | 0.00 | 0.00 | 0.00 | 62 | 1020.3 |
| 20260901100001 | 70 | 310 | 4.3 | 9.6 | 0.00 | 0.00 | 0.00 | 62 | 1020.4 |
| 20260901095928 | 70 | 300 | 4.3 | 9.6 | 0.00 | 0.00 | 0.00 | 62 | 1020.4 |
| 20260901095901 | 69 | 295 | 4.3 | 9.6 | 0.00 | 0.00 | 0.00 | 61 | 1020.3 |
| 20260901095801 | 70 | 329 | 4.3 | 9.6 | 0.00 | 0.00 | 0.00 | 61 | 1020.4 |
| 20260901095701 | 69 | 331 | 3.5 | 9.6 | 0.00 | 0.00 | 0.00 | 61 | 1020.3 |
| 20260901095601 | 69 | 319 | 3.5 | 9.6 | 0.00 | 0.00 | 0.00 | 61 | 1020.4 |
| 20260901095501 | 69 | 338 | 3.5 | 9.6 | 0.00 | 0.00 | 0.00 | 62 | 1020.4 |
| 20260901095428 | 69 | 345 | 3.5 | 9.6 | 0.00 | 0.00 | 0.00 | 62 | 1020.4 |
| 20260901095401 | 69 | 321 | 3.5 | 9.6 | 0.00 | 0.00 | 0.00 | 62 | 1020.3 |
| 20260901095301 | 69 | 318 | 3.5 | 9.6 | 0.00 | 0.00 | 0.00 | 62 | 1020.3 |
| 20260901095200 | 69 | 326 | 3.5 | 9.6 | 0.00 | 0.00 | 0.00 | 62 | 1020.3 |
| 20260901095100 | 69 | 299 | 2.6 | 7.0 | 0.00 | 0.00 | 0.00 | 63 | 1020.3 |
| 20260901095000 | 69 | 311 | 2.6 | 7.0 | 0.00 | 0.00 | 0.00 | 62 | 1020.4 |
| 20260901094928 | 69 | 296 | 2.6 | 7.0 | 0.00 | 0.00 | 0.00 | 62 | 1020.4 |
| 20260901094900 | 69 | 305 | 2.6 | 7.0 | 0.00 | 0.00 | 0.00 | 62 | 1020.3 |
| 20260901094800 | 69 | 302 | 3.5 | 7.0 | 0.00 | 0.00 | 0.00 | 62 | 1020.3 |
| 20260901094701 | 69 | 338 | 3.5 | 7.0 | 0.00 | 0.00 | 0.00 | 62 | 1020.3 |
| 20260901094648 | 69 | 289 | 3.5 | 8.7 | 0.00 | 0.00 | 0.00 | 62 | 1020.3 |
| 20260901094644 | 69 | 342 | 3.5 | 7.0 | 0.00 | 0.00 | 0.00 | 62 | 1020.3 |
| 20260901094640 | 69 | 314 | 3.5 | 7.0 | 0.00 | 0.00 | 0.00 | 61 | 1020.3 |
| 20260901094402 | 69 | 306 | 3.5 | 8.7 | 0.00 | 0.00 | 0.00 | 62 | 1020.3 |
| 20260901094301 | 69 | 311 | 3.5 | 8.7 | 0.00 | 0.00 | 0.00 | 63 | 1020.4 |
| 20260901094201 | 69 | 318 | 3.5 | 8.7 | 0.00 | 0.00 | 0.00 | 62 | 1020.3 |
| 20260901094101 | 69 | 292 | 3.5 | 8.7 | 0.00 | 0.00 | 0.00 | 62 | 1020.4 |
| 20260901094001 | 69 | 336 | 3.5 | 8.7 | 0.00 | 0.00 | 0.00 | 62 | 1020.3 |
| 20260901093929 | 69 | 340 | 3.5 | 8.7 | 0.00 | 0.00 | 0.00 | 62 | 1020.3 |
| 20260901093901 | 69 | 340 | 3.5 | 8.7 | 0.00 | 0.00 | 0.00 | 62 | 1020.4 |
| 20260901093801 | 69 | 344 | 3.5 | 8.7 | 0.00 | 0.00 | 0.00 | 63 | 1020.4 |
| 20260901093701 | 68 | 348 | 3.5 | 8.7 | 0.00 | 0.00 | 0.00 | 64 | 1020.4 |
| 20260901093649 | 68 | 287 | 2.6 | 6.1 | 0.00 | 0.00 | 0.00 | 62 | 1020.4 |
| 20260901093644 | 68 | 321 | 3.5 | 8.7 | 0.00 | 0.00 | 0.00 | 63 | 1020.4 |
| 20260901093640 | 68 | 292 | 2.6 | 8.7 | 0.00 | 0.00 | 0.00 | 63 | 1020.4 |
| 20260901093401 | 68 | 313 | 2.6 | 6.1 | 0.00 | 0.00 | 0.00 | 62 | 1020.4 |
| 20260901093301 | 68 | 250 | 2.6 | 6.1 | 0.00 | 0.00 | 0.00 | 62 | 1020.4 |
| 20260901093201 | 68 | 234 | 1.7 | 6.1 | 0.00 | 0.00 | 0.00 | 64 | 1020.5 |
| 20260901093101 | 68 | 244 | 1.7 | 6.1 | 0.00 | 0.00 | 0.00 | 63 | 1020.4 |
| 20260901093001 | 68 | 263 | 1.7 | 5.2 | 0.00 | 0.00 | 0.00 | 63 | 1020.5 |
| 20260901092928 | 68 | 263 | 1.7 | 5.2 | 0.00 | 0.00 | 0.00 | 63 | 1020.5 |
| 20260901092901 | 68 | 273 | 1.7 | 5.2 | 0.00 | 0.00 | 0.00 | 63 | 1020.5 |
| 20260901092801 | 68 | 302 | 1.7 | 4.3 | 0.00 | 0.00 | 0.00 | 63 | 1020.5 |
| 20260901092701 | 68 | 223 | 1.7 | 4.3 | 0.00 | 0.00 | 0.00 | 63 | 1020.4 |
| 20260901092601 | 68 | 222 | 1.7 | 4.3 | 0.00 | 0.00 | 0.00 | 62 | 1020.4 |
| 20260901092501 | 68 | 222 | 1.7 | 4.3 | 0.00 | 0.00 | 0.00 | 62 | 1020.5 |
| 20260901092429 | 68 | 222 | 1.7 | 5.2 | 0.00 | 0.00 | 0.00 | 62 | 1020.5 |
| 20260901092400 | 68 | 222 | 1.7 | 5.2 | 0.00 | 0.00 | 0.00 | 63 | 1020.4 |
| 20260901092300 | 68 | 222 | 1.7 | 5.2 | 0.00 | 0.00 | 0.00 | 64 | 1020.5 |
| 20260901092200 | 68 | 267 | 1.7 | 5.2 | 0.00 | 0.00 | 0.00 | 64 | 1020.5 |
| 20260901092100 | 68 | 278 | 2.6 | 6.1 | 0.00 | 0.00 | 0.00 | 62 | 1020.4 |
| 20260901092000 | 68 | 271 | 2.6 | 7.0 | 0.00 | 0.00 | 0.00 | 62 | 1020.5 |
| 20260901091928 | 68 | 271 | 2.6 | 7.0 | 0.00 | 0.00 | 0.00 | 62 | 1020.5 |
| 20260901091901 | 68 | 271 | 2.6 | 7.0 | 0.00 | 0.00 | 0.00 | 63 | 1020.5 |
| 20260901091801 | 68 | 271 | 2.6 | 7.8 | 0.00 | 0.00 | 0.00 | 63 | 1020.5 |
| 20260901091701 | 68 | 271 | 2.6 | 7.8 | 0.00 | 0.00 | 0.00 | 62 | 1020.5 |
| 20260901091648 | 67 | 289 | 2.6 | 7.8 | 0.00 | 0.00 | 0.00 | 63 | 1020.5 |
| 20260901091644 | 67 | 271 | 2.6 | 7.8 | 0.00 | 0.00 | 0.00 | 64 | 1020.5 |
| 20260901091640 | 67 | 271 | 2.6 | 7.8 | 0.00 | 0.00 | 0.00 | 63 | 1020.5 |
| 20260901091401 | 67 | 265 | 2.6 | 7.8 | 0.00 | 0.00 | 0.00 | 64 | 1020.5 |
| 20260901091257 | 67 | 265 | 2.6 | 7.8 | 0.00 | 0.00 | 0.00 | 64 | 1020.4 |
| 20260901091157 | 67 | 269 | 2.6 | 7.8 | 0.00 | 0.00 | 0.00 | 64 | 1020.4 |
| 20260901091057 | 67 | 283 | 2.6 | 7.8 | 0.00 | 0.00 | 0.00 | 65 | 1020.4 |
| 20260901090957 | 67 | 250 | 1.7 | 7.8 | 0.00 | 0.00 | 0.00 | 64 | 1020.5 |
| 20260901090929 | 67 | 269 | 1.7 | 7.8 | 0.00 | 0.00 | 0.00 | 65 | 1020.5 |
| 20260901090857 | 67 | 279 | 1.7 | 7.8 | 0.00 | 0.00 | 0.00 | 65 | 1020.5 |
| 20260901090755 | 67 | 253 | 1.7 | 4.3 | 0.00 | 0.00 | 0.00 | 64 | 1020.5 |
| 20260901090655 | 67 | 300 | 1.7 | 4.3 | 0.00 | 0.00 | 0.00 | 64 | 1020.5 |
| 20260901090553 | 67 | 302 | 1.7 | 4.3 | 0.00 | 0.00 | 0.00 | 64 | 1020.4 |
| 20260901090453 | 67 | 331 | 1.7 | 4.3 | 0.00 | 0.00 | 0.00 | 65 | 1020.4 |
| 20260901090429 | 67 | 331 | 1.7 | 4.3 | 0.00 | 0.00 | 0.00 | 64 | 1020.4 |
| 20260901090350 | 67 | 332 | 1.7 | 4.3 | 0.00 | 0.00 | 0.00 | 64 | 1020.4 |
| 20260901090245 | 67 | 331 | 1.7 | 4.3 | 0.00 | 0.00 | 0.00 | 64 | 1020.4 |
| 20260901090145 | 67 | 332 | 1.7 | 4.3 | 0.00 | 0.00 | 0.00 | 65 | 1020.5 |
| 20260901090045 | 67 | 304 | 1.7 | 4.3 | 0.00 | 0.00 | 0.00 | 65 | 1020.5 |
| 20260901085945 | 67 | 261 | 1.7 | 4.3 | 0.00 | 0.00 | 0.00 | 65 | 1020.5 |
| 20260901085929 | 67 | 261 | 1.7 | 5.2 | 0.00 | 0.00 | 0.00 | 64 | 1020.5 |
| 20260901085845 | 67 | 259 | 1.7 | 5.2 | 0.00 | 0.00 | 0.00 | 64 | 1020.5 |
| 20260901085740 | 67 | 255 | 1.7 | 5.2 | 0.00 | 0.00 | 0.00 | 64 | 1020.4 |
| 20260901085639 | 67 | 255 | 1.7 | 5.2 | 0.00 | 0.00 | 0.00 | 63 | 1020.4 |
| 20260901085539 | 67 | 255 | 1.7 | 5.2 | 0.00 | 0.00 | 0.00 | 63 | 1020.4 |
| 20260901085428 | 67 | 254 | 1.7 | 5.2 | 0.00 | 0.00 | 0.00 | 63 | 1020.4 |
| 20260901085338 | 67 | 255 | 2.6 | 5.2 | 0.00 | 0.00 | 0.00 | 64 | 1020.4 |
| 20260901085233 | 67 | 255 | 2.6 | 5.2 | 0.00 | 0.00 | 0.00 | 65 | 1020.4 |
| 20260901085133 | 67 | 222 | 2.6 | 5.2 | 0.00 | 0.00 | 0.00 | 66 | 1020.5 |
| 20260901085033 | 67 | 289 | 2.6 | 5.2 | 0.00 | 0.00 | 0.00 | 66 | 1020.4 |
| 20260901084932 | 67 | 269 | 2.6 | 5.2 | 0.00 | 0.00 | 0.00 | 66 | 1020.4 |
| 20260901084928 | 67 | 268 | 2.6 | 5.2 | 0.00 | 0.00 | 0.00 | 66 | 1020.4 |
| 20260901084829 | 67 | 285 | 2.6 | 5.2 | 0.00 | 0.00 | 0.00 | 67 | 1020.5 |
| 20260901084729 | 67 | 330 | 2.6 | 5.2 | 0.00 | 0.00 | 0.00 | 66 | 1020.5 |
| 20260901084629 | 67 | 330 | 2.6 | 5.2 | 0.00 | 0.00 | 0.00 | 66 | 1020.5 |
| 20260901084529 | 67 | 292 | 1.7 | 5.2 | 0.00 | 0.00 | 0.00 | 66 | 1020.5 |
| 20260901084429 | 67 | 298 | 2.6 | 5.2 | 0.00 | 0.00 | 0.00 | 66 | 1020.5 |
| 20260901084329 | 67 | 327 | 1.7 | 5.2 | 0.00 | 0.00 | 0.00 | 66 | 1020.4 |
| 20260901084229 | 66 | 355 | 1.7 | 5.2 | 0.00 | 0.00 | 0.00 | 68 | 1020.5 |
| 20260901084129 | 66 | 5 | 1.7 | 5.2 | 0.00 | 0.00 | 0.00 | 66 | 1020.5 |
| 20260901084028 | 66 | 301 | 1.7 | 5.2 | 0.00 | 0.00 | 0.00 | 66 | 1020.4 |
| 20260901083929 | 66 | 301 | 1.7 | 5.2 | 0.00 | 0.00 | 0.00 | 66 | 1020.5 |
| 20260901083829 | 66 | 301 | 1.7 | 5.2 | 0.00 | 0.00 | 0.00 | 67 | 1020.4 |
| 20260901083729 | 66 | 301 | 1.7 | 5.2 | 0.00 | 0.00 | 0.00 | 66 | 1020.5 |
| 20260901083629 | 66 | 304 | 2.6 | 6.1 | 0.00 | 0.00 | 0.00 | 66 | 1020.5 |
| 20260901083529 | 66 | 300 | 2.6 | 6.1 | 0.00 | 0.00 | 0.00 | 65 | 1020.5 |
| 20260901083429 | 66 | 283 | 2.6 | 6.1 | 0.00 | 0.00 | 0.00 | 65 | 1020.5 |
| 20260901083329 | 66 | 283 | 2.6 | 6.1 | 0.00 | 0.00 | 0.00 | 64 | 1020.5 |
| 20260901083229 | 66 | 283 | 2.6 | 6.1 | 0.00 | 0.00 | 0.00 | 65 | 1020.5 |
| 20260901083128 | 66 | 294 | 2.6 | 6.1 | 0.00 | 0.00 | 0.00 | 64 | 1020.5 |
| 20260901083028 | 66 | 294 | 3.5 | 6.1 | 0.00 | 0.00 | 0.00 | 65 | 1020.4 |
| 20260901082929 | 66 | 294 | 3.5 | 6.1 | 0.00 | 0.00 | 0.00 | 65 | 1020.5 |
| 20260901082829 | 66 | 293 | 3.5 | 6.1 | 0.00 | 0.00 | 0.00 | 64 | 1020.5 |
| 20260901082729 | 66 | 197 | 3.5 | 6.1 | 0.00 | 0.00 | 0.00 | 66 | 1020.5 |
| 20260901082647 | 66 | 213 | 3.5 | 6.1 | 0.00 | 0.00 | 0.00 | 67 | 1020.5 |
| 20260901082643 | 66 | 230 | 3.5 | 6.1 | 0.00 | 0.00 | 0.00 | 66 | 1020.4 |
| 20260901082639 | 66 | 269 | 2.6 | 6.1 | 0.00 | 0.00 | 0.00 | 67 | 1020.4 |
| 20260901082328 | 66 | 270 | 2.6 | 6.1 | 0.00 | 0.00 | 0.00 | 67 | 1020.4 |
| 20260901082228 | 66 | 275 | 2.6 | 6.1 | 0.00 | 0.00 | 0.00 | 66 | 1020.4 |
| 20260901082129 | 66 | 308 | 2.6 | 6.1 | 0.00 | 0.00 | 0.00 | 67 | 1020.4 |
| 20260901082028 | 66 | 295 | 2.6 | 6.1 | 0.00 | 0.00 | 0.00 | 69 | 1020.4 |
| 20260901081929 | 65 | 250 | 2.6 | 6.1 | 0.00 | 0.00 | 0.00 | 68 | 1020.4 |
| 20260901081829 | 65 | 263 | 2.6 | 5.2 | 0.00 | 0.00 | 0.00 | 68 | 1020.4 |
| 20260901081729 | 65 | 262 | 2.6 | 5.2 | 0.00 | 0.00 | 0.00 | 68 | 1020.4 |
| 20260901081638 | 65 | 259 | 2.6 | 5.2 | 0.00 | 0.00 | 0.00 | 68 | 1020.4 |
| 20260901081529 | 65 | 294 | 2.6 | 5.2 | 0.00 | 0.00 | 0.00 | 68 | 1020.4 |
| 20260901081430 | 65 | 276 | 2.6 | 5.2 | 0.00 | 0.00 | 0.00 | 68 | 1020.4 |
| 20260901081329 | 65 | 246 | 2.6 | 5.2 | 0.00 | 0.00 | 0.00 | 68 | 1020.4 |
| 20260901081229 | 65 | 259 | 2.6 | 5.2 | 0.00 | 0.00 | 0.00 | 69 | 1020.4 |
| 20260901081129 | 65 | 261 | 2.6 | 5.2 | 0.00 | 0.00 | 0.00 | 69 | 1020.4 |
| 20260901081028 | 65 | 259 | 2.6 | 6.1 | 0.00 | 0.00 | 0.00 | 69 | 1020.4 |
| 20260901080930 | 65 | 204 | 2.6 | 6.1 | 0.00 | 0.00 | 0.00 | 69 | 1020.4 |
| 20260901080926 | 65 | 205 | 2.6 | 6.1 | 0.00 | 0.00 | 0.00 | 69 | 1020.4 |
| 20260901080821 | 65 | 262 | 2.6 | 6.1 | 0.00 | 0.00 | 0.00 | 69 | 1020.4 |
| 20260901080721 | 65 | 257 | 2.6 | 6.1 | 0.00 | 0.00 | 0.00 | 69 | 1020.4 |
| 20260901080620 | 65 | 277 | 2.6 | 6.1 | 0.00 | 0.00 | 0.00 | 70 | 1020.4 |
| 20260901080521 | 65 | 298 | 2.6 | 6.1 | 0.00 | 0.00 | 0.00 | 69 | 1020.4 |
| 20260901080421 | 65 | 238 | 2.6 | 6.1 | 0.00 | 0.00 | 0.00 | 69 | 1020.4 |
| 20260901080315 | 65 | 238 | 2.6 | 6.1 | 0.00 | 0.00 | 0.00 | 70 | 1020.4 |
| 20260901080215 | 64 | 242 | 1.7 | 6.1 | 0.00 | 0.00 | 0.00 | 70 | 1020.3 |
| 20260901080155 | 64 | 274 | 1.7 | 6.1 | 0.00 | 0.00 | 0.00 | 70 | 1020.3 |
| 20260901080144 | 64 | 255 | 1.7 | 6.1 | 0.00 | 0.00 | 0.00 | 70 | 1020.3 |
| 20260901080140 | 64 | 232 | 1.7 | 6.1 | 0.00 | 0.00 | 0.00 | 70 | 1020.3 |
| 20260901075918 | 64 | 275 | 1.7 | 6.1 | 0.00 | 0.00 | 0.00 | 70 | 1020.3 |
| 20260901075810 | 64 | 279 | 1.7 | 6.1 | 0.00 | 0.00 | 0.00 | 71 | 1020.3 |
| 20260901075710 | 64 | 251 | 1.7 | 4.3 | 0.00 | 0.00 | 0.00 | 71 | 1020.3 |
| 20260901075612 | 64 | 217 | 1.7 | 4.3 | 0.00 | 0.00 | 0.00 | 70 | 1020.2 |
| 20260901075510 | 64 | 298 | 1.7 | 4.3 | 0.00 | 0.00 | 0.00 | 71 | 1020.3 |
| 20260901075428 | 64 | 308 | 1.7 | 4.3 | 0.00 | 0.00 | 0.00 | 71 | 1020.3 |
| 20260901075408 | 64 | 286 | 1.7 | 4.3 | 0.00 | 0.00 | 0.00 | 71 | 1020.3 |
| 20260901075307 | 64 | 281 | 2.6 | 4.3 | 0.00 | 0.00 | 0.00 | 71 | 1020.3 |
| 20260901075203 | 64 | 282 | 2.6 | 4.3 | 0.00 | 0.00 | 0.00 | 72 | 1020.3 |
| 20260901075103 | 64 | 286 | 2.6 | 4.3 | 0.00 | 0.00 | 0.00 | 72 | 1020.3 |
| 20260901075001 | 64 | 287 | 2.6 | 4.3 | 0.00 | 0.00 | 0.00 | 72 | 1020.3 |
| 20260901074928 | 64 | 287 | 2.6 | 4.3 | 0.00 | 0.00 | 0.00 | 72 | 1020.3 |
| 20260901074902 | 64 | 234 | 1.7 | 4.3 | 0.00 | 0.00 | 0.00 | 71 | 1020.3 |
| 20260901074802 | 64 | 234 | 1.7 | 4.3 | 0.00 | 0.00 | 0.00 | 72 | 1020.3 |
| 20260901074701 | 63 | 274 | 1.7 | 4.3 | 0.00 | 0.00 | 0.00 | 72 | 1020.3 |
| 20260901074601 | 63 | 284 | 2.6 | 5.2 | 0.00 | 0.00 | 0.00 | 72 | 1020.3 |
| 20260901074502 | 63 | 293 | 2.6 | 6.1 | 0.00 | 0.00 | 0.00 | 72 | 1020.3 |
| 20260901074400 | 63 | 294 | 2.6 | 6.1 | 0.00 | 0.00 | 0.00 | 72 | 1020.3 |
| 20260901074301 | 63 | 292 | 2.6 | 6.1 | 0.00 | 0.00 | 0.00 | 72 | 1020.2 |
| 20260901074201 | 63 | 284 | 2.6 | 6.1 | 0.00 | 0.00 | 0.00 | 72 | 1020.3 |
| 20260901074100 | 63 | 283 | 2.6 | 6.1 | 0.00 | 0.00 | 0.00 | 72 | 1020.2 |
| 20260901074001 | 63 | 284 | 2.6 | 6.1 | 0.00 | 0.00 | 0.00 | 72 | 1020.2 |
| 20260901073928 | 63 | 283 | 2.6 | 6.1 | 0.00 | 0.00 | 0.00 | 72 | 1020.2 |
| 20260901073901 | 63 | 317 | 2.6 | 6.1 | 0.00 | 0.00 | 0.00 | 72 | 1020.3 |
| 20260901073801 | 63 | 299 | 2.6 | 6.1 | 0.00 | 0.00 | 0.00 | 73 | 1020.3 |
| 20260901073701 | 63 | 290 | 2.6 | 6.1 | 0.00 | 0.00 | 0.00 | 72 | 1020.3 |
| 20260901073601 | 63 | 280 | 2.6 | 6.1 | 0.00 | 0.00 | 0.00 | 72 | 1020.3 |
| 20260901073501 | 63 | 262 | 2.6 | 6.1 | 0.00 | 0.00 | 0.00 | 72 | 1020.3 |
| 20260901073429 | 63 | 243 | 2.6 | 6.1 | 0.00 | 0.00 | 0.00 | 73 | 1020.3 |
| 20260901073400 | 63 | 239 | 2.6 | 6.1 | 0.00 | 0.00 | 0.00 | 73 | 1020.2 |
| 20260901073300 | 62 | 228 | 2.6 | 6.1 | 0.00 | 0.00 | 0.00 | 73 | 1020.3 |
| 20260901073201 | 62 | 240 | 2.6 | 6.1 | 0.00 | 0.00 | 0.00 | 73 | 1020.3 |
| 20260901073056 | 62 | 269 | 2.6 | 6.1 | 0.00 | 0.00 | 0.00 | 73 | 1020.2 |
| 20260901072928 | 62 | 269 | 2.6 | 6.1 | 0.00 | 0.00 | 0.00 | 73 | 1020.2 |
| 20260901072857 | 62 | 267 | 2.6 | 6.1 | 0.00 | 0.00 | 0.00 | 73 | 1020.3 |
| 20260901072757 | 62 | 317 | 2.6 | 6.1 | 0.00 | 0.00 | 0.00 | 73 | 1020.2 |
| 20260901072657 | 62 | 248 | 2.6 | 5.2 | 0.00 | 0.00 | 0.00 | 73 | 1020.3 |
| 20260901072551 | 62 | 250 | 2.6 | 5.2 | 0.00 | 0.00 | 0.00 | 74 | 1020.2 |
| 20260901072451 | 62 | 257 | 2.6 | 5.2 | 0.00 | 0.00 | 0.00 | 74 | 1020.2 |
| 20260901072428 | 62 | 256 | 2.6 | 5.2 | 0.00 | 0.00 | 0.00 | 74 | 1020.2 |
| 20260901072350 | 62 | 284 | 2.6 | 5.2 | 0.00 | 0.00 | 0.00 | 74 | 1020.2 |
| 20260901072250 | 62 | 213 | 2.6 | 5.2 | 0.00 | 0.00 | 0.00 | 74 | 1020.2 |
| 20260901072150 | 62 | 277 | 2.6 | 5.2 | 0.00 | 0.00 | 0.00 | 75 | 1020.2 |
| 20260901072046 | 62 | 269 | 2.6 | 5.2 | 0.00 | 0.00 | 0.00 | 75 | 1020.2 |
| 20260901071929 | 61 | 292 | 2.6 | 5.2 | 0.00 | 0.00 | 0.00 | 74 | 1020.1 |
| 20260901071846 | 61 | 295 | 2.6 | 6.1 | 0.00 | 0.00 | 0.00 | 74 | 1020.2 |
| 20260901071747 | 61 | 259 | 2.6 | 6.1 | 0.00 | 0.00 | 0.00 | 75 | 1020.2 |
| 20260901071653 | 61 | 259 | 3.5 | 6.1 | 0.00 | 0.00 | 0.00 | 75 | 1020.2 |
| 20260901071645 | 61 | 276 | 3.5 | 6.1 | 0.00 | 0.00 | 0.00 | 75 | 1020.2 |
| 20260901071641 | 61 | 275 | 3.5 | 6.1 | 0.00 | 0.00 | 0.00 | 75 | 1020.1 |
| 20260901071343 | 61 | 275 | 3.5 | 6.1 | 0.00 | 0.00 | 0.00 | 75 | 1020.2 |
| 20260901071243 | 61 | 275 | 3.5 | 6.1 | 0.00 | 0.00 | 0.00 | 75 | 1020.2 |
| 20260901071143 | 61 | 268 | 3.5 | 6.1 | 0.00 | 0.00 | 0.00 | 76 | 1020.2 |
| 20260901071043 | 61 | 263 | 2.6 | 6.1 | 0.00 | 0.00 | 0.00 | 76 | 1020.1 |
| 20260901070941 | 60 | 269 | 2.6 | 6.1 | 0.00 | 0.00 | 0.00 | 76 | 1020.2 |
| 20260901070928 | 61 | 269 | 2.6 | 6.1 | 0.00 | 0.00 | 0.00 | 76 | 1020.2 |
| 20260901070840 | 60 | 262 | 2.6 | 6.1 | 0.00 | 0.00 | 0.00 | 76 | 1020.2 |
| 20260901070740 | 60 | 238 | 2.6 | 6.1 | 0.00 | 0.00 | 0.00 | 76 | 1020.2 |
| 20260901070641 | 60 | 255 | 1.7 | 4.3 | 0.00 | 0.00 | 0.00 | 77 | 1020.2 |
| 20260901070541 | 60 | 264 | 1.7 | 3.5 | 0.00 | 0.00 | 0.00 | 78 | 1020.2 |
| 20260901070440 | 60 | 293 | 1.7 | 3.5 | 0.00 | 0.00 | 0.00 | 78 | 1020.2 |
| 20260901070429 | 60 | 302 | 1.7 | 3.5 | 0.00 | 0.00 | 0.00 | 78 | 1020.2 |
| 20260901070340 | 60 | 302 | 1.7 | 3.5 | 0.00 | 0.00 | 0.00 | 78 | 1020.2 |
| 20260901070241 | 60 | 294 | 1.7 | 3.5 | 0.00 | 0.00 | 0.00 | 78 | 1020.2 |
| 20260901070141 | 60 | 290 | 0.9 | 2.6 | 0.00 | 0.00 | 0.00 | 78 | 1020.2 |
| 20260901070040 | 60 | 290 | 0.9 | 2.6 | 0.00 | 0.00 | 0.00 | 78 | 1020.2 |
| 20260901065929 | 60 | 290 | 0.9 | 2.6 | 0.00 | 0.00 | 0.00 | 79 | 1020.1 |
| 20260901065834 | 60 | 290 | 0.9 | 2.6 | 0.00 | 0.00 | 0.00 | 79 | 1020.1 |
| 20260901065734 | 60 | 290 | 0.9 | 2.6 | 0.00 | 0.00 | 0.00 | 79 | 1020.1 |
| 20260901065634 | 60 | 243 | 0.9 | 2.6 | 0.00 | 0.00 | 0.00 | 79 | 1020.2 |
| 20260901065534 | 59 | 241 | 1.7 | 2.6 | 0.00 | 0.00 | 0.00 | 79 | 1020.1 |
| 20260901065428 | 59 | 241 | 1.7 | 2.6 | 0.00 | 0.00 | 0.00 | 79 | 1020.1 |
| 20260901065335 | 59 | 241 | 1.7 | 2.6 | 0.00 | 0.00 | 0.00 | 79 | 1020.1 |
| 20260901065233 | 59 | 240 | 0.9 | 2.6 | 0.00 | 0.00 | 0.00 | 80 | 1020.1 |
| 20260901065130 | 59 | 239 | 1.7 | 2.6 | 0.00 | 0.00 | 0.00 | 80 | 1020.1 |
| 20260901065029 | 59 | 239 | 0.9 | 2.6 | 0.00 | 0.00 | 0.00 | 80 | 1020.1 |
| 20260901064929 | 59 | 239 | 0.9 | 2.6 | 0.00 | 0.00 | 0.00 | 80 | 1020.1 |
| 20260901064829 | 59 | 239 | 0.9 | 2.6 | 0.00 | 0.00 | 0.00 | 80 | 1020.1 |
| 20260901064729 | 59 | 239 | 0.9 | 2.6 | 0.00 | 0.00 | 0.00 | 80 | 1020.1 |
| 20260901064653 | 59 | 236 | 0.9 | 2.6 | 0.00 | 0.00 | 0.00 | 80 | 1020.1 |
| 20260901064645 | 59 | 213 | 0.9 | 2.6 | 0.00 | 0.00 | 0.00 | 80 | 1020.1 |
| 20260901064641 | 58 | 213 | 0.9 | 2.6 | 0.00 | 0.00 | 0.00 | 81 | 1020.1 |
| 20260901064328 | 58 | 198 | 0.9 | 2.6 | 0.00 | 0.00 | 0.00 | 81 | 1020.1 |
| 20260901064229 | 58 | 192 | 0.9 | 2.6 | 0.00 | 0.00 | 0.00 | 82 | 1020.1 |
| 20260901064129 | 58 | 180 | 0.9 | 2.6 | 0.00 | 0.00 | 0.00 | 82 | 1020.1 |
| 20260901064028 | 58 | 180 | 0.9 | 2.6 | 0.00 | 0.00 | 0.00 | 82 | 1020.1 |
| 20260901063928 | 58 | 180 | 0.9 | 2.6 | 0.00 | 0.00 | 0.00 | 82 | 1020.1 |
| 20260901063828 | 58 | 180 | 0.9 | 2.6 | 0.00 | 0.00 | 0.00 | 82 | 1020.1 |
| 20260901063726 | 58 | 180 | 0.9 | 2.6 | 0.00 | 0.00 | 0.00 | 83 | 1020.1 |
| 20260901063627 | 58 | 180 | 0.9 | 2.6 | 0.00 | 0.00 | 0.00 | 83 | 1020.1 |
| 20260901063526 | 58 | 179 | 0.9 | 3.5 | 0.00 | 0.00 | 0.00 | 83 | 1020.1 |
| 20260901063427 | 58 | 179 | 0.9 | 3.5 | 0.00 | 0.00 | 0.00 | 83 | 1020.1 |
| 20260901063325 | 57 | 179 | 0.9 | 3.5 | 0.00 | 0.00 | 0.00 | 84 | 1020.1 |
| 20260901063225 | 57 | 179 | 0.9 | 3.5 | 0.00 | 0.00 | 0.00 | 84 | 1020.1 |
| 20260901063125 | 57 | 178 | 0.9 | 3.5 | 0.00 | 0.00 | 0.00 | 84 | 1020.2 |
| 20260901063024 | 57 | 171 | 0.9 | 3.5 | 0.00 | 0.00 | 0.00 | 84 | 1020.2 |
| 20260901062924 | 57 | 171 | 0.9 | 3.5 | 0.00 | 0.00 | 0.00 | 84 | 1020.2 |
| 20260901062824 | 57 | 171 | 0.9 | 3.5 | 0.00 | 0.00 | 0.00 | 84 | 1020.2 |
| 20260901062724 | 57 | 171 | 0.9 | 3.5 | 0.00 | 0.00 | 0.00 | 84 | 1020.2 |
| 20260901062625 | 56 | 171 | 0.9 | 3.5 | 0.00 | 0.00 | 0.00 | 84 | 1020.2 |
| 20260901062525 | 56 | 165 | 0.9 | 2.6 | 0.00 | 0.00 | 0.00 | 85 | 1020.2 |
| 20260901062425 | 56 | 165 | 0.9 | 2.6 | 0.00 | 0.00 | 0.00 | 85 | 1020.1 |
| 20260901062325 | 56 | 150 | 0.9 | 2.6 | 0.00 | 0.00 | 0.00 | 85 | 1020.1 |
| 20260901062224 | 56 | 151 | 0.9 | 2.6 | 0.00 | 0.00 | 0.00 | 85 | 1020.1 |
| 20260901062124 | 56 | 151 | 0.0 | 2.6 | 0.00 | 0.00 | 0.00 | 85 | 1020.1 |
| 20260901062025 | 56 | 125 | 0.0 | 1.7 | 0.00 | 0.00 | 0.00 | 85 | 1020.2 |
| 20260901061924 | 56 | 117 | 0.0 | 1.7 | 0.00 | 0.00 | 0.00 | 85 | 1020.1 |
| 20260901061824 | 56 | 117 | 0.0 | 1.7 | 0.00 | 0.00 | 0.00 | 85 | 1020.2 |
| 20260901061720 | 56 | 117 | 0.0 | 1.7 | 0.00 | 0.00 | 0.00 | 85 | 1020.1 |
| 20260901061621 | 56 | 117 | 0.0 | 1.7 | 0.00 | 0.00 | 0.00 | 86 | 1020.2 |
| 20260901061520 | 55 | 117 | 0.0 | 1.7 | 0.00 | 0.00 | 0.00 | 86 | 1020.1 |
| 20260901061421 | 55 | 117 | 0.0 | 1.7 | 0.00 | 0.00 | 0.00 | 86 | 1020.1 |
| 20260901061321 | 55 | 117 | 0.0 | 1.7 | 0.00 | 0.00 | 0.00 | 86 | 1020.1 |
| 20260901061221 | 55 | 117 | 0.0 | 1.7 | 0.00 | 0.00 | 0.00 | 86 | 1020.1 |
| 20260901061121 | 55 | 117 | 0.0 | 1.7 | 0.00 | 0.00 | 0.00 | 86 | 1020.1 |
| 20260901061021 | 55 | 101 | 0.0 | 0.9 | 0.00 | 0.00 | 0.00 | 86 | 1020.2 |
| 20260901060929 | 55 | 101 | 0.0 | 0.9 | 0.00 | 0.00 | 0.00 | 86 | 1020.2 |
| 20260901060920 | 55 | 101 | 0.0 | 0.9 | 0.00 | 0.00 | 0.00 | 86 | 1020.1 |
| 20260901060820 | 55 | 101 | 0.0 | 0.9 | 0.00 | 0.00 | 0.00 | 87 | 1020.1 |
| 20260901060720 | 55 | 101 | 0.0 | 1.7 | 0.00 | 0.00 | 0.00 | 87 | 1020.2 |
| 20260901060620 | 55 | 101 | 0.0 | 1.7 | 0.00 | 0.00 | 0.00 | 87 | 1020.1 |
| 20260901060520 | 55 | 101 | 0.0 | 1.7 | 0.00 | 0.00 | 0.00 | 87 | 1020.1 |
| 20260901060420 | 55 | 101 | 0.0 | 1.7 | 0.00 | 0.00 | 0.00 | 87 | 1020.1 |
| 20260901060320 | 55 | 101 | 0.0 | 1.7 | 0.00 | 0.00 | 0.00 | 87 | 1020.1 |
| 20260901060221 | 55 | 101 | 0.0 | 1.7 | 0.00 | 0.00 | 0.00 | 87 | 1020.1 |
| 20260901060151 | 55 | 101 | 0.0 | 1.7 | 0.00 | 0.00 | 0.00 | 87 | 1020.1 |
| 20260901060147 | 55 | 101 | 0.0 | 1.7 | 0.00 | 0.00 | 0.00 | 87 | 1020.1 |
| 20260901060139 | 55 | 101 | 0.0 | 1.7 | 0.00 | 0.00 | 0.00 | 87 | 1020.1 |
| 20260901055920 | 55 | 101 | 0.0 | 1.7 | 0.00 | 0.00 | 0.00 | 87 | 1020.1 |
| 20260901055816 | 55 | 101 | 0.0 | 1.7 | 0.00 | 0.00 | 0.00 | 87 | 1020.1 |
| 20260901055716 | 55 | 101 | 0.0 | 1.7 | 0.00 | 0.00 | 0.00 | 87 | 1020.1 |
| 20260901055652 | 55 | 101 | 0.0 | 1.7 | 0.00 | 0.00 | 0.00 | 87 | 1020.0 |
| 20260901055648 | 55 | 101 | 0.0 | 0.9 | 0.00 | 0.00 | 0.00 | 87 | 1020.1 |
| 20260901055640 | 55 | 101 | 0.0 | 1.7 | 0.00 | 0.00 | 0.00 | 87 | 1020.0 |
| 20260901055416 | 55 | 101 | 0.0 | 1.7 | 0.00 | 0.00 | 0.00 | 87 | 1020.1 |
| 20260901055317 | 55 | 101 | 0.0 | 1.7 | 0.00 | 0.00 | 0.00 | 87 | 1020.1 |
| 20260901055217 | 55 | 101 | 0.0 | 1.7 | 0.00 | 0.00 | 0.00 | 87 | 1020.0 |
| 20260901055159 | 55 | 101 | 0.0 | 1.7 | 0.00 | 0.00 | 0.00 | 86 | 1020.1 |
| 20260901055147 | 55 | 101 | 0.0 | 1.7 | 0.00 | 0.00 | 0.00 | 86 | 1020.1 |
| 20260901055139 | 55 | 101 | 0.0 | 1.7 | 0.00 | 0.00 | 0.00 | 86 | 1020.1 |
| 20260901054917 | 55 | 101 | 0.0 | 1.7 | 0.00 | 0.00 | 0.00 | 86 | 1020.1 |
| 20260901054817 | 55 | 101 | 0.9 | 1.7 | 0.00 | 0.00 | 0.00 | 86 | 1020.1 |
| 20260901054716 | 55 | 101 | 0.9 | 1.7 | 0.00 | 0.00 | 0.00 | 87 | 1020.1 |
| 20260901054616 | 55 | 101 | 0.9 | 2.6 | 0.00 | 0.00 | 0.00 | 87 | 1020.0 |
| 20260901054516 | 55 | 101 | 0.0 | 2.6 | 0.00 | 0.00 | 0.00 | 86 | 1020.0 |
| 20260901054417 | 55 | 101 | 0.0 | 2.6 | 0.00 | 0.00 | 0.00 | 86 | 1020.0 |
| 20260901054317 | 55 | 101 | 0.0 | 2.6 | 0.00 | 0.00 | 0.00 | 87 | 1020.0 |
| 20260901054217 | 55 | 101 | 0.0 | 2.6 | 0.00 | 0.00 | 0.00 | 87 | 1020.0 |
| 20260901054117 | 55 | 101 | 0.0 | 2.6 | 0.00 | 0.00 | 0.00 | 86 | 1020.0 |
| 20260901054017 | 55 | 101 | 0.9 | 2.6 | 0.00 | 0.00 | 0.00 | 86 | 1020.0 |
| 20260901053913 | 55 | 101 | 0.9 | 2.6 | 0.00 | 0.00 | 0.00 | 86 | 1020.0 |
| 20260901053813 | 55 | 101 | 0.9 | 2.6 | 0.00 | 0.00 | 0.00 | 86 | 1020.0 |
| 20260901053712 | 55 | 101 | 0.9 | 2.6 | 0.00 | 0.00 | 0.00 | 86 | 1020.0 |
| 20260901053612 | 55 | 101 | 0.9 | 1.7 | 0.00 | 0.00 | 0.00 | 86 | 1020.1 |
| 20260901053512 | 55 | 101 | 0.9 | 1.7 | 0.00 | 0.00 | 0.00 | 86 | 1020.0 |
| 20260901053430 | 55 | 101 | 0.9 | 1.7 | 0.00 | 0.00 | 0.00 | 86 | 1020.0 |
| 20260901053412 | 55 | 100 | 0.9 | 1.7 | 0.00 | 0.00 | 0.00 | 86 | 1020.0 |
| 20260901053312 | 55 | 100 | 0.9 | 1.7 | 0.00 | 0.00 | 0.00 | 86 | 1020.0 |
| 20260901053212 | 55 | 100 | 0.0 | 1.7 | 0.00 | 0.00 | 0.00 | 86 | 1019.9 |
| 20260901053114 | 55 | 101 | 0.0 | 1.7 | 0.00 | 0.00 | 0.00 | 86 | 1020.0 |
| 20260901053012 | 55 | 100 | 0.0 | 1.7 | 0.00 | 0.00 | 0.00 | 86 | 1020.0 |
| 20260901052913 | 54 | 100 | 0.0 | 1.7 | 0.00 | 0.00 | 0.00 | 86 | 1020.0 |
| 20260901052813 | 54 | 100 | 0.0 | 1.7 | 0.00 | 0.00 | 0.00 | 86 | 1020.1 |
| 20260901052713 | 54 | 100 | 0.0 | 0.9 | 0.00 | 0.00 | 0.00 | 86 | 1020.0 |
| 20260901052612 | 54 | 100 | 0.0 | 0.9 | 0.00 | 0.00 | 0.00 | 86 | 1020.0 |
| 20260901052513 | 54 | 100 | 0.0 | 0.9 | 0.00 | 0.00 | 0.00 | 86 | 1020.1 |
| 20260901052413 | 54 | 100 | 0.0 | 0.9 | 0.00 | 0.00 | 0.00 | 86 | 1020.1 |
| 20260901052312 | 54 | 100 | 0.0 | 0.9 | 0.00 | 0.00 | 0.00 | 86 | 1020.1 |
| 20260901052212 | 54 | 100 | 0.0 | 0.9 | 0.00 | 0.00 | 0.00 | 86 | 1020.1 |
| 20260901052112 | 54 | 100 | 0.0 | 0.9 | 0.00 | 0.00 | 0.00 | 86 | 1020.1 |
| 20260901052008 | 54 | 100 | 0.0 | 1.7 | 0.00 | 0.00 | 0.00 | 86 | 1020.1 |
| 20260901051929 | 55 | 100 | 0.0 | 1.7 | 0.00 | 0.00 | 0.00 | 86 | 1020.1 |
| 20260901051908 | 55 | 100 | 0.9 | 1.7 | 0.00 | 0.00 | 0.00 | 86 | 1020.1 |
| 20260901051808 | 55 | 100 | 0.0 | 1.7 | 0.00 | 0.00 | 0.00 | 86 | 1020.1 |
| 20260901051708 | 54 | 100 | 0.0 | 1.7 | 0.00 | 0.00 | 0.00 | 86 | 1020.1 |
| 20260901051608 | 55 | 100 | 0.9 | 1.7 | 0.00 | 0.00 | 0.00 | 86 | 1020.1 |
| 20260901051508 | 55 | 100 | 0.9 | 1.7 | 0.00 | 0.00 | 0.00 | 86 | 1020.1 |
| 20260901051428 | 55 | 100 | 0.9 | 1.7 | 0.00 | 0.00 | 0.00 | 86 | 1020.1 |
| 20260901051409 | 54 | 100 | 0.9 | 1.7 | 0.00 | 0.00 | 0.00 | 86 | 1020.0 |
| 20260901051309 | 55 | 100 | 0.9 | 1.7 | 0.00 | 0.00 | 0.00 | 86 | 1020.1 |
| 20260901051208 | 55 | 100 | 0.9 | 1.7 | 0.00 | 0.00 | 0.00 | 86 | 1020.1 |
| 20260901051108 | 55 | 100 | 0.0 | 1.7 | 0.00 | 0.00 | 0.00 | 86 | 1020.0 |
| 20260901051009 | 55 | 100 | 0.0 | 1.7 | 0.00 | 0.00 | 0.00 | 86 | 1020.1 |
| 20260901050908 | 55 | 100 | 0.0 | 1.7 | 0.00 | 0.00 | 0.00 | 87 | 1020.1 |
| 20260901050808 | 55 | 100 | 0.0 | 1.7 | 0.00 | 0.00 | 0.00 | 87 | 1020.1 |
| 20260901050708 | 55 | 100 | 0.0 | 1.7 | 0.00 | 0.00 | 0.00 | 87 | 1020.1 |
| 20260901050608 | 54 | 100 | 0.0 | 1.7 | 0.00 | 0.00 | 0.00 | 87 | 1020.1 |
| 20260901050513 | 54 | 100 | 0.0 | 0.9 | 0.00 | 0.00 | 0.00 | 87 | 1020.1 |
| 20260901050408 | 54 | 100 | 0.0 | 0.9 | 0.00 | 0.00 | 0.00 | 87 | 1020.1 |
| 20260901050308 | 54 | 100 | 0.0 | 0.9 | 0.00 | 0.00 | 0.00 | 87 | 1020.1 |
| 20260901050209 | 54 | 100 | 0.0 | 0.9 | 0.00 | 0.00 | 0.00 | 87 | 1020.0 |
| 20260901050105 | 54 | 100 | 0.0 | 0.9 | 0.00 | 0.00 | 0.00 | 87 | 1020.1 |
| 20260901050004 | 54 | 100 | 0.0 | 1.7 | 0.00 | 0.00 | 0.00 | 87 | 1020.0 |
| 20260901045904 | 54 | 100 | 0.0 | 1.7 | 0.00 | 0.00 | 0.00 | 87 | 1020.0 |
| 20260901045805 | 54 | 100 | 0.0 | 1.7 | 0.00 | 0.00 | 0.00 | 87 | 1020.0 |
| 20260901045705 | 54 | 100 | 0.0 | 1.7 | 0.00 | 0.00 | 0.00 | 87 | 1020.0 |
| 20260901045605 | 54 | 100 | 0.0 | 1.7 | 0.00 | 0.00 | 0.00 | 87 | 1020.1 |
| 20260901045511 | 54 | 100 | 0.0 | 1.7 | 0.00 | 0.00 | 0.00 | 87 | 1020.1 |
| 20260901045404 | 54 | 100 | 0.0 | 1.7 | 0.00 | 0.00 | 0.00 | 87 | 1020.1 |
| 20260901045306 | 54 | 100 | 0.0 | 1.7 | 0.00 | 0.00 | 0.00 | 87 | 1020.0 |
| 20260901045201 | 54 | 100 | 0.0 | 1.7 | 0.00 | 0.00 | 0.00 | 87 | 1020.0 |
| 20260901045101 | 54 | 100 | 0.0 | 1.7 | 0.00 | 0.00 | 0.00 | 88 | 1020.0 |
| 20260901045006 | 54 | 100 | 0.0 | 1.7 | 0.00 | 0.00 | 0.00 | 87 | 1020.0 |
| 20260901044930 | 54 | 100 | 0.0 | 1.7 | 0.00 | 0.00 | 0.00 | 87 | 1020.0 |
| 20260901044901 | 54 | 100 | 0.0 | 0.9 | 0.00 | 0.00 | 0.00 | 87 | 1020.0 |
| 20260901044801 | 54 | 100 | 0.0 | 0.9 | 0.00 | 0.00 | 0.00 | 87 | 1020.0 |
| 20260901044701 | 54 | 100 | 0.0 | 0.9 | 0.00 | 0.00 | 0.00 | 87 | 1020.0 |
| 20260901044601 | 54 | 100 | 0.0 | 0.9 | 0.00 | 0.00 | 0.00 | 87 | 1020.0 |
| 20260901044506 | 54 | 100 | 0.0 | 0.9 | 0.00 | 0.00 | 0.00 | 87 | 1020.0 |
| 20260901044401 | 54 | 100 | 0.0 | 0.9 | 0.00 | 0.00 | 0.00 | 87 | 1020.0 |
| 20260901044301 | 54 | 100 | 0.0 | 0.9 | 0.00 | 0.00 | 0.00 | 86 | 1020.0 |
| 20260901044201 | 54 | 100 | 0.0 | 0.9 | 0.00 | 0.00 | 0.00 | 87 | 1020.0 |
| 20260901044101 | 54 | 100 | 0.0 | 0.0 | 0.00 | 0.00 | 0.00 | 86 | 1020.0 |
| 20260901044000 | 54 | 100 | 0.0 | 0.0 | 0.00 | 0.00 | 0.00 | 86 | 1020.0 |
| 20260901043901 | 54 | 100 | 0.0 | 0.0 | 0.00 | 0.00 | 0.00 | 86 | 1020.0 |
| 20260901043801 | 54 | 100 | 0.0 | 0.0 | 0.00 | 0.00 | 0.00 | 86 | 1020.0 |
| 20260901043700 | 54 | 100 | 0.0 | 0.0 | 0.00 | 0.00 | 0.00 | 86 | 1020.0 |
| 20260901043649 | 54 | 100 | 0.0 | 0.9 | 0.00 | 0.00 | 0.00 | 86 | 1020.0 |
| 20260901043644 | 54 | 100 | 0.0 | 0.0 | 0.00 | 0.00 | 0.00 | 86 | 1020.0 |
| 20260901043640 | 54 | 100 | 0.0 | 0.0 | 0.00 | 0.00 | 0.00 | 86 | 1020.0 |
| 20260901043401 | 54 | 100 | 0.0 | 0.9 | 0.00 | 0.00 | 0.00 | 86 | 1020.0 |
| 20260901043301 | 54 | 100 | 0.0 | 0.9 | 0.00 | 0.00 | 0.00 | 86 | 1020.0 |
| 20260901043201 | 54 | 100 | 0.0 | 0.9 | 0.00 | 0.00 | 0.00 | 86 | 1019.9 |
| 20260901043101 | 54 | 100 | 0.0 | 0.9 | 0.00 | 0.00 | 0.00 | 86 | 1019.9 |
| 20260901043001 | 54 | 100 | 0.0 | 0.9 | 0.00 | 0.00 | 0.00 | 86 | 1020.0 |
| 20260901042900 | 54 | 100 | 0.0 | 0.9 | 0.00 | 0.00 | 0.00 | 86 | 1019.9 |
| 20260901042759 | 54 | 100 | 0.0 | 0.9 | 0.00 | 0.00 | 0.00 | 86 | 1020.0 |
| 20260901042700 | 54 | 100 | 0.0 | 0.9 | 0.00 | 0.00 | 0.00 | 86 | 1020.0 |
| 20260901042558 | 54 | 100 | 0.0 | 0.9 | 0.00 | 0.00 | 0.00 | 86 | 1020.0 |
| 20260901042458 | 54 | 100 | 0.0 | 0.9 | 0.00 | 0.00 | 0.00 | 86 | 1020.0 |
| 20260901042423 | 54 | 100 | 0.0 | 0.9 | 0.00 | 0.00 | 0.00 | 86 | 1020.0 |
| 20260901042356 | 54 | 100 | 0.0 | 0.9 | 0.00 | 0.00 | 0.00 | 86 | 1019.9 |
| 20260901042256 | 54 | 100 | 0.0 | 0.9 | 0.00 | 0.00 | 0.00 | 86 | 1019.9 |
| 20260901042157 | 54 | 100 | 0.0 | 0.9 | 0.00 | 0.00 | 0.00 | 86 | 1019.9 |
| 20260901042057 | 54 | 100 | 0.0 | 0.9 | 0.00 | 0.00 | 0.00 | 86 | 1019.9 |
| 20260901041954 | 54 | 100 | 0.0 | 0.9 | 0.00 | 0.00 | 0.00 | 86 | 1020.0 |
| 20260901041923 | 54 | 100 | 0.0 | 0.9 | 0.00 | 0.00 | 0.00 | 86 | 1020.0 |
| 20260901041855 | 54 | 100 | 0.0 | 0.9 | 0.00 | 0.00 | 0.00 | 86 | 1020.0 |
| 20260901041755 | 54 | 100 | 0.0 | 0.9 | 0.00 | 0.00 | 0.00 | 86 | 1020.1 |
| 20260901041654 | 54 | 100 | 0.0 | 0.9 | 0.00 | 0.00 | 0.00 | 86 | 1020.1 |
| 20260901041552 | 54 | 100 | 0.0 | 0.9 | 0.00 | 0.00 | 0.00 | 85 | 1020.0 |
| 20260901041452 | 54 | 100 | 0.0 | 0.9 | 0.00 | 0.00 | 0.00 | 85 | 1020.0 |
| 20260901041422 | 54 | 100 | 0.0 | 0.9 | 0.00 | 0.00 | 0.00 | 85 | 1020.0 |
| 20260901041350 | 54 | 100 | 0.0 | 0.9 | 0.00 | 0.00 | 0.00 | 85 | 1020.0 |
| 20260901041250 | 54 | 100 | 0.0 | 0.9 | 0.00 | 0.00 | 0.00 | 85 | 1020.0 |
| 20260901041148 | 54 | 100 | 0.0 | 0.9 | 0.00 | 0.00 | 0.00 | 85 | 1020.0 |
| 20260901041046 | 54 | 100 | 0.0 | 1.7 | 0.00 | 0.00 | 0.00 | 85 | 1020.1 |
| 20260901040947 | 54 | 100 | 0.0 | 1.7 | 0.00 | 0.00 | 0.00 | 85 | 1020.0 |
| 20260901040915 | 54 | 100 | 0.0 | 1.7 | 0.00 | 0.00 | 0.00 | 85 | 1020.0 |
| 20260901040844 | 54 | 100 | 0.0 | 1.7 | 0.00 | 0.00 | 0.00 | 85 | 1020.0 |
| 20260901040745 | 54 | 100 | 0.0 | 1.7 | 0.00 | 0.00 | 0.00 | 85 | 1020.0 |
| 20260901040642 | 54 | 100 | 0.0 | 1.7 | 0.00 | 0.00 | 0.00 | 85 | 1020.0 |
| 20260901040540 | 54 | 100 | 0.0 | 1.7 | 0.00 | 0.00 | 0.00 | 85 | 1019.9 |
| 20260901040416 | 54 | 100 | 0.0 | 1.7 | 0.00 | 0.00 | 0.00 | 85 | 1020.0 |
| 20260901040340 | 54 | 100 | 0.0 | 1.7 | 0.00 | 0.00 | 0.00 | 85 | 1020.0 |
| 20260901040240 | 54 | 100 | 0.0 | 1.7 | 0.00 | 0.00 | 0.00 | 85 | 1019.9 |
| 20260901040140 | 54 | 100 | 0.0 | 1.7 | 0.00 | 0.00 | 0.00 | 85 | 1019.9 |
| 20260901040038 | 54 | 100 | 0.0 | 0.0 | 0.00 | 0.00 | 0.00 | 85 | 1019.9 |
| 20260901035915 | 54 | 100 | 0.0 | 0.0 | 0.00 | 0.00 | 0.00 | 85 | 1019.9 |
| 20260901035836 | 54 | 100 | 0.0 | 0.0 | 0.00 | 0.00 | 0.00 | 85 | 1019.9 |
| 20260901035736 | 54 | 100 | 0.0 | 0.0 | 0.00 | 0.00 | 0.00 | 85 | 1020.0 |
| 20260901035635 | 54 | 100 | 0.0 | 0.0 | 0.00 | 0.00 | 0.00 | 85 | 1020.0 |
| 20260901035533 | 54 | 100 | 0.0 | 0.0 | 0.00 | 0.00 | 0.00 | 85 | 1019.9 |
| 20260901035412 | 54 | 100 | 0.0 | 0.0 | 0.00 | 0.00 | 0.00 | 85 | 1020.0 |
| 20260901035329 | 54 | 100 | 0.0 | 0.0 | 0.00 | 0.00 | 0.00 | 85 | 1020.0 |
| 20260901035229 | 54 | 100 | 0.0 | 0.0 | 0.00 | 0.00 | 0.00 | 85 | 1020.0 |
| 20260901035129 | 54 | 100 | 0.0 | 0.0 | 0.00 | 0.00 | 0.00 | 85 | 1020.0 |
| 20260901035029 | 54 | 100 | 0.0 | 0.0 | 0.00 | 0.00 | 0.00 | 85 | 1020.0 |
| 20260901034929 | 54 | 100 | 0.0 | 0.0 | 0.00 | 0.00 | 0.00 | 84 | 1020.0 |
| 20260901034913 | 54 | 100 | 0.0 | 0.0 | 0.00 | 0.00 | 0.00 | 85 | 1020.0 |
| 20260901034829 | 54 | 100 | 0.0 | 0.0 | 0.00 | 0.00 | 0.00 | 84 | 1020.0 |
| 20260901034729 | 54 | 100 | 0.0 | 0.0 | 0.00 | 0.00 | 0.00 | 84 | 1020.0 |
| 20260901034629 | 54 | 100 | 0.0 | 0.9 | 0.00 | 0.00 | 0.00 | 84 | 1020.0 |
| 20260901034525 | 54 | 100 | 0.0 | 0.9 | 0.00 | 0.00 | 0.00 | 84 | 1020.0 |
| 20260901034410 | 54 | 100 | 0.0 | 0.9 | 0.00 | 0.00 | 0.00 | 84 | 1020.0 |
| 20260901034320 | 54 | 100 | 0.0 | 0.9 | 0.00 | 0.00 | 0.00 | 84 | 1020.0 |
| 20260901034220 | 54 | 100 | 0.0 | 0.9 | 0.00 | 0.00 | 0.00 | 84 | 1020.0 |
| 20260901034120 | 54 | 100 | 0.0 | 0.9 | 0.00 | 0.00 | 0.00 | 84 | 1020.0 |
| 20260901034020 | 54 | 100 | 0.0 | 0.9 | 0.00 | 0.00 | 0.00 | 84 | 1020.0 |
| 20260901033908 | 54 | 100 | 0.0 | 0.9 | 0.00 | 0.00 | 0.00 | 84 | 1019.9 |
| 20260901033815 | 54 | 100 | 0.0 | 0.9 | 0.00 | 0.00 | 0.00 | 84 | 1019.9 |
| 20260901033714 | 54 | 100 | 0.0 | 0.9 | 0.00 | 0.00 | 0.00 | 84 | 1019.9 |
| 20260901033614 | 54 | 100 | 0.0 | 0.9 | 0.00 | 0.00 | 0.00 | 83 | 1019.9 |
| 20260901033513 | 54 | 100 | 0.0 | 1.7 | 0.00 | 0.00 | 0.00 | 83 | 1019.9 |
| 20260901033406 | 54 | 100 | 0.0 | 1.7 | 0.00 | 0.00 | 0.00 | 83 | 1019.9 |
| 20260901033312 | 54 | 100 | 0.0 | 1.7 | 0.00 | 0.00 | 0.00 | 83 | 1019.9 |
| 20260901033212 | 54 | 100 | 0.0 | 1.7 | 0.00 | 0.00 | 0.00 | 83 | 1019.9 |
| 20260901033111 | 54 | 100 | 0.9 | 1.7 | 0.00 | 0.00 | 0.00 | 83 | 1019.9 |
| 20260901033007 | 54 | 100 | 0.9 | 1.7 | 0.00 | 0.00 | 0.00 | 83 | 1020.0 |
| 20260901032905 | 54 | 100 | 0.9 | 1.7 | 0.00 | 0.00 | 0.00 | 83 | 1020.0 |
| 20260901032806 | 54 | 100 | 0.9 | 1.7 | 0.00 | 0.00 | 0.00 | 83 | 1020.0 |
| 20260901032706 | 54 | 100 | 0.9 | 1.7 | 0.00 | 0.00 | 0.00 | 83 | 1020.0 |
| 20260901032625 | 54 | 100 | 0.9 | 1.7 | 0.00 | 0.00 | 0.00 | 83 | 1020.0 |
| 20260901032620 | 54 | 100 | 0.9 | 1.7 | 0.00 | 0.00 | 0.00 | 83 | 1020.0 |
| 20260901032613 | 54 | 100 | 0.9 | 1.7 | 0.00 | 0.00 | 0.00 | 83 | 1020.0 |
| 20260901032302 | 54 | 100 | 0.9 | 1.7 | 0.00 | 0.00 | 0.00 | 83 | 1020.0 |
| 20260901032201 | 55 | 100 | 0.9 | 1.7 | 0.00 | 0.00 | 0.00 | 83 | 1020.0 |
| 20260901032101 | 55 | 100 | 0.9 | 1.7 | 0.00 | 0.00 | 0.00 | 82 | 1020.0 |
| 20260901032001 | 55 | 100 | 0.9 | 2.6 | 0.00 | 0.00 | 0.00 | 82 | 1020.0 |
| 20260901031901 | 55 | 100 | 0.9 | 2.6 | 0.00 | 0.00 | 0.00 | 82 | 1020.0 |
| 20260901031801 | 55 | 100 | 0.9 | 2.6 | 0.00 | 0.00 | 0.00 | 82 | 1020.0 |
| 20260901031701 | 55 | 100 | 0.9 | 2.6 | 0.00 | 0.00 | 0.00 | 82 | 1020.0 |
| 20260901031601 | 55 | 100 | 0.9 | 2.6 | 0.00 | 0.00 | 0.00 | 82 | 1020.0 |
| 20260901031501 | 55 | 100 | 0.9 | 2.6 | 0.00 | 0.00 | 0.00 | 82 | 1020.0 |
| 20260901031400 | 55 | 100 | 0.9 | 2.6 | 0.00 | 0.00 | 0.00 | 82 | 1020.0 |
| 20260901031301 | 55 | 100 | 0.9 | 2.6 | 0.00 | 0.00 | 0.00 | 82 | 1020.0 |
| 20260901031201 | 55 | 100 | 0.9 | 2.6 | 0.00 | 0.00 | 0.00 | 82 | 1020.0 |
| 20260901031101 | 55 | 100 | 0.9 | 2.6 | 0.00 | 0.00 | 0.00 | 82 | 1020.0 |
| 20260901031001 | 55 | 95 | 0.9 | 2.6 | 0.00 | 0.00 | 0.00 | 82 | 1020.0 |
| 20260901030901 | 55 | 96 | 0.9 | 1.7 | 0.00 | 0.00 | 0.00 | 82 | 1020.0 |
| 20260901030801 | 55 | 96 | 0.9 | 1.7 | 0.00 | 0.00 | 0.00 | 81 | 1020.0 |
| 20260901030700 | 55 | 82 | 0.9 | 1.7 | 0.00 | 0.00 | 0.00 | 81 | 1020.0 |
| 20260901030600 | 55 | 82 | 0.9 | 1.7 | 0.00 | 0.00 | 0.00 | 81 | 1020.0 |
| 20260901030500 | 55 | 80 | 0.9 | 1.7 | 0.00 | 0.00 | 0.00 | 81 | 1020.0 |
| 20260901030400 | 55 | 80 | 0.9 | 1.7 | 0.00 | 0.00 | 0.00 | 81 | 1020.0 |
| 20260901030300 | 55 | 71 | 0.9 | 1.7 | 0.00 | 0.00 | 0.00 | 81 | 1020.0 |
| 20260901030200 | 55 | 71 | 0.9 | 1.7 | 0.00 | 0.00 | 0.00 | 81 | 1020.0 |
| 20260901030001 | 55 | 67 | 0.9 | 1.7 | 0.00 | 0.00 | 0.00 | 81 | 1020.0 |
| 20260901025901 | 56 | 67 | 0.9 | 1.7 | 0.00 | 0.00 | 0.00 | 81 | 1020.1 |
| 20260901025801 | 56 | 67 | 0.9 | 1.7 | 0.00 | 0.00 | 0.00 | 81 | 1020.1 |
| 20260901025701 | 56 | 67 | 0.9 | 1.7 | 0.00 | 0.00 | 0.00 | 81 | 1020.1 |
| 20260901025601 | 56 | 67 | 0.9 | 1.7 | 0.00 | 0.00 | 0.00 | 81 | 1020.1 |
| 20260901025500 | 56 | 67 | 0.9 | 1.7 | 0.00 | 0.00 | 0.00 | 81 | 1020.1 |
| 20260901025401 | 56 | 67 | 0.9 | 1.7 | 0.00 | 0.00 | 0.00 | 81 | 1020.0 |
| 20260901025301 | 56 | 67 | 0.9 | 1.7 | 0.00 | 0.00 | 0.00 | 81 | 1020.1 |
| 20260901025201 | 56 | 67 | 0.0 | 1.7 | 0.00 | 0.00 | 0.00 | 81 | 1020.1 |
| 20260901025101 | 56 | 67 | 0.0 | 1.7 | 0.00 | 0.00 | 0.00 | 81 | 1020.1 |
| 20260901025001 | 56 | 67 | 0.0 | 1.7 | 0.00 | 0.00 | 0.00 | 81 | 1020.1 |
| 20260901024901 | 56 | 67 | 0.0 | 1.7 | 0.00 | 0.00 | 0.00 | 81 | 1020.1 |
| 20260901024801 | 56 | 64 | 0.9 | 1.7 | 0.00 | 0.00 | 0.00 | 80 | 1020.0 |
| 20260901024701 | 56 | 64 | 0.9 | 1.7 | 0.00 | 0.01 | 0.00 | 80 | 1020.1 |
| 20260901024601 | 56 | 64 | 0.9 | 1.7 | 0.00 | 0.01 | 0.00 | 80 | 1020.0 |
| 20260901024501 | 56 | 64 | 0.0 | 1.7 | 0.00 | 0.01 | 0.00 | 80 | 1020.1 |
| 20260901024401 | 56 | 64 | 0.0 | 1.7 | 0.00 | 0.01 | 0.00 | 80 | 1020.1 |
| 20260901024301 | 56 | 64 | 0.0 | 1.7 | 0.00 | 0.01 | 0.00 | 80 | 1020.1 |
| 20260901024201 | 56 | 64 | 0.0 | 1.7 | 0.00 | 0.01 | 0.00 | 80 | 1020.1 |
| 20260901024100 | 56 | 64 | 0.9 | 1.7 | 0.00 | 0.01 | 0.00 | 80 | 1020.1 |
| 20260901024001 | 56 | 64 | 0.9 | 2.6 | 0.00 | 0.02 | 0.00 | 80 | 1020.0 |
| 20260901023905 | 56 | 64 | 0.9 | 2.6 | 0.00 | 0.02 | 0.00 | 80 | 1020.1 |
| 20260901023801 | 56 | 64 | 0.9 | 2.6 | 0.00 | 0.02 | 0.00 | 79 | 1020.1 |
| 20260901023701 | 56 | 64 | 0.9 | 2.6 | 0.00 | 0.02 | 0.00 | 79 | 1020.1 |
| 20260901023601 | 56 | 64 | 0.9 | 2.6 | 0.00 | 0.02 | 0.00 | 79 | 1020.1 |
| 20260901023500 | 56 | 64 | 0.9 | 2.6 | 0.00 | 0.02 | 0.00 | 79 | 1020.0 |
| 20260901023404 | 56 | 64 | 0.9 | 3.5 | 0.00 | 0.02 | 0.00 | 79 | 1020.1 |
| 20260901023300 | 57 | 64 | 0.9 | 3.5 | 0.00 | 0.03 | 0.00 | 79 | 1020.1 |
| 20260901023200 | 57 | 64 | 0.9 | 3.5 | 0.00 | 0.03 | 0.00 | 79 | 1020.1 |
| 20260901023100 | 57 | 64 | 0.9 | 3.5 | 0.00 | 0.03 | 0.00 | 79 | 1020.0 |
| 20260901023000 | 57 | 81 | 0.9 | 3.5 | 0.00 | 0.03 | 0.00 | 79 | 1020.1 |
| 20260901022904 | 57 | 81 | 0.9 | 3.5 | 0.00 | 0.03 | 0.00 | 79 | 1020.1 |
| 20260901022900 | 57 | 81 | 0.9 | 3.5 | 0.00 | 0.03 | 0.00 | 79 | 1020.1 |
| 20260901022758 | 57 | 81 | 0.9 | 3.5 | 0.00 | 0.03 | 0.00 | 78 | 1020.1 |
| 20260901022656 | 57 | 81 | 0.9 | 3.5 | 0.00 | 0.04 | 0.00 | 78 | 1020.0 |
| 20260901022556 | 57 | 82 | 0.9 | 3.5 | 0.00 | 0.04 | 0.00 | 78 | 1020.0 |
| 20260901022454 | 57 | 82 | 0.9 | 3.5 | 0.00 | 0.04 | 0.00 | 78 | 1020.0 |
| 20260901022402 | 57 | 84 | 0.9 | 3.5 | 0.00 | 0.05 | 0.00 | 78 | 1020.1 |
| 20260901022353 | 57 | 88 | 0.9 | 3.5 | 0.00 | 0.05 | 0.00 | 78 | 1020.1 |
| 20260901022252 | 57 | 175 | 0.9 | 2.6 | 0.00 | 0.06 | 0.00 | 78 | 1020.0 |
| 20260901022150 | 57 | 175 | 0.9 | 2.6 | 0.00 | 0.07 | 0.00 | 78 | 1020.1 |
| 20260901022050 | 57 | 175 | 0.9 | 2.6 | 0.00 | 0.08 | 0.00 | 78 | 1020.0 |
| 20260901021948 | 57 | 175 | 0.0 | 2.6 | 0.00 | 0.09 | 0.00 | 78 | 1020.1 |
| 20260901021901 | 57 | 218 | 0.0 | 2.6 | 0.00 | 0.09 | 0.00 | 78 | 1020.0 |
| 20260901021846 | 57 | 218 | 0.0 | 2.6 | 0.00 | 0.09 | 0.00 | 78 | 1020.0 |
| 20260901021746 | 57 | 225 | 0.0 | 2.6 | 0.00 | 0.10 | 0.00 | 77 | 1020.1 |
| 20260901021646 | 57 | 243 | 0.0 | 2.6 | 0.00 | 0.11 | 0.00 | 77 | 1020.1 |
| 20260901021546 | 57 | 244 | 0.0 | 1.7 | 0.00 | 0.12 | 0.00 | 77 | 1020.0 |
| 20260901021446 | 58 | 244 | 0.0 | 1.7 | 0.00 | 0.12 | 0.00 | 77 | 1020.0 |
| 20260901021401 | 58 | 244 | 0.0 | 1.7 | 0.00 | 0.12 | 0.00 | 77 | 1020.1 |
| 20260901021344 | 58 | 244 | 0.0 | 1.7 | 0.00 | 0.12 | 0.00 | 77 | 1020.1 |
| 20260901021244 | 58 | 244 | 0.0 | 1.7 | 0.00 | 0.12 | 0.00 | 77 | 1020.0 |
| 20260901021142 | 58 | 244 | 0.9 | 1.7 | 0.00 | 0.12 | 0.00 | 76 | 1020.1 |
| 20260901021042 | 58 | 244 | 0.9 | 1.7 | 0.00 | 0.12 | 0.00 | 76 | 1020.1 |
| 20260901020940 | 58 | 244 | 0.9 | 1.7 | 0.00 | 0.12 | 0.00 | 76 | 1020.0 |
| 20260901020900 | 58 | 244 | 0.9 | 1.7 | 0.00 | 0.12 | 0.00 | 76 | 1020.0 |
| 20260901020840 | 58 | 244 | 0.9 | 1.7 | 0.00 | 0.12 | 0.00 | 76 | 1020.0 |
| 20260901020738 | 58 | 244 | 0.9 | 1.7 | 0.00 | 0.12 | 0.00 | 76 | 1020.0 |
| 20260901020636 | 58 | 244 | 0.9 | 1.7 | 0.00 | 0.12 | 0.00 | 76 | 1020.0 |
| 20260901020536 | 58 | 244 | 0.9 | 1.7 | 0.00 | 0.12 | 0.00 | 76 | 1020.0 |
| 20260901020434 | 58 | 244 | 0.9 | 1.7 | 0.00 | 0.12 | 0.00 | 76 | 1020.0 |
| 20260901020400 | 58 | 244 | 0.9 | 1.7 | 0.00 | 0.12 | 0.00 | 76 | 1020.0 |
| 20260901020334 | 58 | 244 | 0.9 | 1.7 | 0.00 | 0.12 | 0.00 | 76 | 1020.0 |
| 20260901020234 | 58 | 244 | 0.9 | 1.7 | 0.00 | 0.13 | 0.00 | 76 | 1020.0 |
| 20260901020134 | 58 | 244 | 0.9 | 2.6 | 0.00 | 0.13 | 0.00 | 76 | 1020.0 |
| 20260901020034 | 58 | 244 | 0.9 | 2.6 | 0.00 | 0.13 | 0.00 | 76 | 1020.0 |
| 20260901015932 | 58 | 244 | 0.9 | 2.6 | 0.00 | 0.13 | 0.00 | 76 | 1020.0 |
| 20260901015901 | 58 | 244 | 0.9 | 2.6 | 0.00 | 0.13 | 0.00 | 76 | 1020.0 |
| 20260901015832 | 58 | 244 | 0.9 | 2.6 | 0.00 | 0.13 | 0.00 | 76 | 1020.0 |
| 20260901015730 | 58 | 244 | 0.9 | 2.6 | 0.00 | 0.13 | 0.00 | 76 | 1020.0 |
| 20260901015629 | 58 | 244 | 0.9 | 2.6 | 0.00 | 0.13 | 0.00 | 76 | 1020.0 |
| 20260901015624 | 58 | 244 | 0.9 | 2.6 | 0.00 | 0.14 | 0.00 | 76 | 1020.0 |
| 20260901015616 | 58 | 244 | 0.9 | 2.6 | 0.00 | 0.13 | 0.00 | 76 | 1019.9 |
| 20260901015612 | 58 | 244 | 0.9 | 2.6 | 0.00 | 0.13 | 0.00 | 76 | 1020.0 |
| 20260901015329 | 58 | 244 | 0.9 | 2.6 | 0.00 | 0.14 | 0.00 | 76 | 1020.0 |
| 20260901015229 | 58 | 244 | 1.7 | 2.6 | 0.00 | 0.14 | 0.00 | 76 | 1020.0 |
| 20260901015129 | 58 | 244 | 1.7 | 2.6 | 0.00 | 0.14 | 0.00 | 76 | 1020.0 |
| 20260901015029 | 58 | 244 | 1.7 | 2.6 | 0.00 | 0.14 | 0.00 | 76 | 1020.0 |
| 20260901014929 | 58 | 244 | 1.7 | 2.6 | 0.00 | 0.14 | 0.00 | 76 | 1019.9 |
| 20260901014901 | 58 | 244 | 1.7 | 2.6 | 0.00 | 0.14 | 0.00 | 76 | 1020.0 |
| 20260901014829 | 58 | 244 | 1.7 | 2.6 | 0.00 | 0.14 | 0.00 | 76 | 1020.0 |
| 20260901014729 | 58 | 244 | 1.7 | 2.6 | 0.00 | 0.14 | 0.00 | 76 | 1020.0 |
| 20260901014629 | 58 | 232 | 1.7 | 2.6 | 0.00 | 0.14 | 0.00 | 76 | 1020.0 |
| 20260901014529 | 58 | 232 | 0.9 | 2.6 | 0.00 | 0.14 | 0.00 | 76 | 1020.0 |
| 20260901014429 | 58 | 229 | 0.9 | 2.6 | 0.00 | 0.14 | 0.00 | 76 | 1020.0 |
| 20260901014401 | 58 | 229 | 1.7 | 2.6 | 0.00 | 0.14 | 0.00 | 76 | 1020.0 |
| 20260901014329 | 58 | 229 | 1.7 | 2.6 | 0.00 | 0.14 | 0.00 | 76 | 1020.0 |
| 20260901014229 | 58 | 229 | 0.9 | 2.6 | 0.00 | 0.14 | 0.00 | 76 | 1020.0 |
| 20260901014129 | 58 | 229 | 0.9 | 2.6 | 0.00 | 0.14 | 0.00 | 76 | 1020.0 |
| 20260901014028 | 58 | 229 | 0.9 | 2.6 | 0.00 | 0.14 | 0.00 | 76 | 1019.9 |
| 20260901013901 | 58 | 229 | 0.9 | 2.6 | 0.00 | 0.14 | 0.00 | 76 | 1020.0 |
| 20260901013855 | 58 | 229 | 0.0 | 2.6 | 0.00 | 0.14 | 0.00 | 77 | 1020.0 |
| 20260901013848 | 58 | 229 | 0.9 | 2.6 | 0.00 | 0.14 | 0.00 | 76 | 1020.0 |
| 20260901013844 | 58 | 229 | 0.9 | 2.6 | 0.00 | 0.14 | 0.00 | 76 | 1020.0 |
| 20260901013840 | 58 | 229 | 0.9 | 2.6 | 0.00 | 0.14 | 0.00 | 76 | 1020.0 |
| 20260901013617 | 58 | 229 | 0.9 | 2.6 | 0.00 | 0.14 | 0.00 | 76 | 1020.0 |
| 20260901013612 | 58 | 229 | 0.9 | 2.6 | 0.00 | 0.14 | 0.00 | 77 | 1020.0 |
| 20260901013326 | 58 | 229 | 0.0 | 2.6 | 0.00 | 0.14 | 0.00 | 77 | 1020.0 |
| 20260901013224 | 58 | 229 | 0.0 | 1.7 | 0.00 | 0.14 | 0.00 | 76 | 1020.0 |
| 20260901013124 | 58 | 229 | 0.0 | 1.7 | 0.00 | 0.14 | 0.00 | 76 | 1020.0 |
| 20260901013023 | 58 | 229 | 0.0 | 1.7 | 0.00 | 0.14 | 0.00 | 76 | 1020.0 |
| 20260901012901 | 58 | 229 | 0.0 | 1.7 | 0.00 | 0.14 | 0.00 | 76 | 1020.0 |
| 20260901012820 | 58 | 229 | 0.0 | 1.7 | 0.00 | 0.14 | 0.00 | 77 | 1020.0 |
| 20260901012720 | 58 | 229 | 0.0 | 0.9 | 0.00 | 0.14 | 0.00 | 76 | 1020.0 |
| 20260901012620 | 58 | 229 | 0.9 | 1.7 | 0.00 | 0.14 | 0.00 | 76 | 1020.0 |
| 20260901012520 | 58 | 229 | 0.9 | 1.7 | 0.00 | 0.14 | 0.00 | 76 | 1019.9 |
| 20260901012420 | 58 | 229 | 0.9 | 1.7 | 0.00 | 0.14 | 0.00 | 76 | 1019.9 |
| 20260901012401 | 58 | 229 | 0.9 | 1.7 | 0.00 | 0.14 | 0.00 | 77 | 1019.9 |
| 20260901012320 | 58 | 229 | 0.9 | 1.7 | 0.00 | 0.14 | 0.00 | 77 | 1019.9 |
| 20260901012220 | 58 | 229 | 0.0 | 1.7 | 0.00 | 0.14 | 0.00 | 77 | 1019.9 |
| 20260901012119 | 58 | 229 | 0.0 | 1.7 | 0.00 | 0.14 | 0.00 | 77 | 1020.0 |
| 20260901012020 | 58 | 229 | 0.0 | 1.7 | 0.00 | 0.14 | 0.00 | 77 | 1019.9 |
| 20260901011920 | 58 | 229 | 0.0 | 1.7 | 0.00 | 0.14 | 0.00 | 77 | 1019.9 |
| 20260901011901 | 58 | 229 | 0.0 | 1.7 | 0.00 | 0.14 | 0.00 | 76 | 1019.9 |
| 20260901011820 | 58 | 229 | 0.0 | 1.7 | 0.00 | 0.14 | 0.00 | 76 | 1019.9 |
| 20260901011718 | 57 | 229 | 0.0 | 1.7 | 0.00 | 0.14 | 0.00 | 76 | 1019.9 |
| 20260901011618 | 57 | 229 | 0.0 | 1.7 | 0.00 | 0.14 | 0.00 | 77 | 1019.9 |
| 20260901011516 | 57 | 229 | 0.0 | 1.7 | 0.00 | 0.14 | 0.00 | 77 | 1019.9 |
| 20260901011416 | 57 | 229 | 0.0 | 1.7 | 0.00 | 0.14 | 0.00 | 77 | 1019.9 |
| 20260901011400 | 57 | 229 | 0.0 | 1.7 | 0.00 | 0.14 | 0.00 | 78 | 1019.9 |
| 20260901011314 | 57 | 229 | 0.9 | 1.7 | 0.00 | 0.14 | 0.00 | 78 | 1019.9 |
| 20260901011212 | 57 | 229 | 0.9 | 2.6 | 0.00 | 0.14 | 0.00 | 77 | 1019.9 |
| 20260901011111 | 57 | 229 | 0.9 | 2.6 | 0.00 | 0.14 | 0.00 | 77 | 1019.9 |
| 20260901011009 | 57 | 229 | 0.9 | 2.6 | 0.00 | 0.14 | 0.00 | 77 | 1019.9 |
| 20260901010901 | 57 | 229 | 0.9 | 2.6 | 0.00 | 0.14 | 0.00 | 77 | 1019.9 |
| 20260901010808 | 57 | 229 | 0.9 | 2.6 | 0.00 | 0.14 | 0.00 | 77 | 1019.9 |
| 20260901010706 | 57 | 229 | 0.9 | 2.6 | 0.00 | 0.14 | 0.00 | 77 | 1019.9 |
| 20260901010606 | 57 | 229 | 0.9 | 2.6 | 0.00 | 0.14 | 0.00 | 78 | 1019.9 |
| 20260901010504 | 57 | 229 | 0.9 | 2.6 | 0.00 | 0.14 | 0.00 | 78 | 1019.9 |
| 20260901010401 | 57 | 229 | 0.9 | 2.6 | 0.00 | 0.14 | 0.00 | 78 | 1019.9 |
| 20260901010303 | 57 | 229 | 0.0 | 2.6 | 0.00 | 0.14 | 0.00 | 79 | 1019.9 |
| 20260901010204 | 57 | 229 | 0.9 | 1.7 | 0.00 | 0.14 | 0.00 | 79 | 1019.8 |
| 20260901010104 | 57 | 229 | 0.9 | 2.6 | 0.00 | 0.14 | 0.00 | 79 | 1019.8 |
| 20260901010002 | 57 | 229 | 0.9 | 2.6 | 0.00 | 0.14 | 0.00 | 78 | 1019.8 |
| 20260901005901 | 57 | 229 | 0.9 | 2.6 | 0.00 | 0.14 | 0.00 | 77 | 1019.8 |
| 20260901005801 | 57 | 229 | 0.9 | 2.6 | 0.00 | 0.14 | 0.00 | 77 | 1019.8 |
| 20260901005701 | 57 | 229 | 0.9 | 2.6 | 0.00 | 0.14 | 0.00 | 77 | 1019.8 |
| 20260901005602 | 57 | 229 | 0.9 | 2.6 | 0.00 | 0.14 | 0.00 | 78 | 1019.8 |
| 20260901005502 | 57 | 229 | 0.9 | 2.6 | 0.00 | 0.14 | 0.00 | 79 | 1019.8 |
| 20260901005401 | 57 | 229 | 0.9 | 2.6 | 0.00 | 0.14 | 0.00 | 79 | 1019.8 |
| 20260901005301 | 57 | 229 | 0.9 | 2.6 | 0.00 | 0.14 | 0.00 | 79 | 1019.8 |
| 20260901005201 | 57 | 229 | 0.9 | 2.6 | 0.00 | 0.14 | 0.00 | 80 | 1019.8 |
| 20260901005101 | 57 | 143 | 0.9 | 1.7 | 0.00 | 0.14 | 0.00 | 80 | 1019.8 |
| 20260901005001 | 57 | 143 | 0.9 | 1.7 | 0.00 | 0.14 | 0.00 | 81 | 1019.8 |
| 20260901004902 | 57 | 143 | 0.0 | 1.7 | 0.00 | 0.14 | 0.00 | 81 | 1019.8 |
| 20260901004800 | 57 | 143 | 0.0 | 1.7 | 0.00 | 0.14 | 0.00 | 81 | 1019.8 |
| 20260901004701 | 57 | 143 | 0.0 | 1.7 | 0.00 | 0.14 | 0.00 | 81 | 1019.8 |
| 20260901004601 | 57 | 143 | 0.0 | 1.7 | 0.00 | 0.14 | 0.00 | 80 | 1019.8 |
| 20260901004501 | 57 | 143 | 0.0 | 1.7 | 0.00 | 0.14 | 0.00 | 81 | 1019.7 |
| 20260901004401 | 57 | 143 | 0.0 | 1.7 | 0.00 | 0.14 | 0.00 | 81 | 1019.8 |
| 20260901004301 | 57 | 143 | 0.0 | 0.9 | 0.00 | 0.14 | 0.00 | 81 | 1019.7 |
| 20260901004201 | 57 | 143 | 0.0 | 0.0 | 0.00 | 0.14 | 0.00 | 81 | 1019.7 |
| 20260901004101 | 57 | 143 | 0.0 | 0.0 | 0.00 | 0.14 | 0.00 | 81 | 1019.7 |
| 20260901004001 | 57 | 143 | 0.0 | 0.0 | 0.00 | 0.14 | 0.00 | 81 | 1019.8 |
| 20260901003901 | 57 | 143 | 0.0 | 0.0 | 0.00 | 0.14 | 0.00 | 81 | 1019.7 |
| 20260901003801 | 57 | 143 | 0.0 | 0.0 | 0.00 | 0.14 | 0.00 | 80 | 1019.8 |
| 20260901003701 | 57 | 143 | 0.0 | 0.0 | 0.00 | 0.14 | 0.00 | 80 | 1019.7 |
| 20260901003620 | 57 | 143 | 0.0 | 0.0 | 0.00 | 0.14 | 0.00 | 80 | 1019.7 |
| 20260901003616 | 57 | 143 | 0.0 | 0.0 | 0.00 | 0.14 | 0.00 | 81 | 1019.8 |
| 20260901003612 | 57 | 143 | 0.0 | 0.0 | 0.00 | 0.14 | 0.00 | 81 | 1019.7 |
| 20260901003300 | 57 | 143 | 0.0 | 0.0 | 0.00 | 0.14 | 0.00 | 81 | 1019.7 |
| 20260901003200 | 57 | 143 | 0.0 | 0.0 | 0.00 | 0.14 | 0.00 | 81 | 1019.7 |
| 20260901003101 | 57 | 143 | 0.0 | 0.0 | 0.00 | 0.14 | 0.00 | 81 | 1019.7 |
| 20260901003001 | 57 | 143 | 0.0 | 0.0 | 0.00 | 0.14 | 0.00 | 81 | 1019.7 |
| 20260901002901 | 57 | 143 | 0.0 | 0.0 | 0.00 | 0.14 | 0.00 | 81 | 1019.7 |
| 20260901002801 | 57 | 143 | 0.0 | 0.0 | 0.00 | 0.14 | 0.00 | 81 | 1019.8 |
| 20260901002702 | 57 | 143 | 0.0 | 0.0 | 0.00 | 0.14 | 0.00 | 81 | 1019.7 |
| 20260901002620 | 57 | 143 | 0.0 | 0.0 | 0.00 | 0.14 | 0.00 | 80 | 1019.7 |
| 20260901002616 | 57 | 143 | 0.0 | 0.0 | 0.00 | 0.14 | 0.00 | 80 | 1019.7 |
| 20260901002612 | 57 | 143 | 0.0 | 0.0 | 0.00 | 0.14 | 0.00 | 81 | 1019.7 |
| 20260901002306 | 57 | 143 | 0.0 | 0.0 | 0.00 | 0.14 | 0.00 | 81 | 1019.7 |
| 20260901002201 | 57 | 143 | 0.0 | 0.0 | 0.00 | 0.14 | 0.00 | 81 | 1019.7 |
| 20260901002101 | 57 | 143 | 0.0 | 0.0 | 0.00 | 0.14 | 0.00 | 81 | 1019.7 |
| 20260901002001 | 57 | 143 | 0.0 | 0.0 | 0.00 | 0.14 | 0.00 | 81 | 1019.7 |
| 20260901001901 | 57 | 143 | 0.0 | 0.0 | 0.00 | 0.14 | 0.00 | 81 | 1019.7 |
| 20260901001804 | 57 | 143 | 0.0 | 0.0 | 0.00 | 0.14 | 0.00 | 80 | 1019.7 |
| 20260901001701 | 57 | 143 | 0.0 | 0.0 | 0.00 | 0.14 | 0.00 | 80 | 1019.7 |
| 20260901001600 | 57 | 143 | 0.0 | 0.0 | 0.00 | 0.14 | 0.00 | 81 | 1019.7 |
| 20260901001500 | 57 | 143 | 0.0 | 0.0 | 0.00 | 0.14 | 0.00 | 80 | 1019.7 |
| 20260901001401 | 57 | 143 | 0.0 | 0.0 | 0.00 | 0.14 | 0.00 | 80 | 1019.7 |
| 20260901001301 | 57 | 143 | 0.0 | 0.0 | 0.00 | 0.14 | 0.00 | 80 | 1019.7 |
| 20260901001200 | 57 | 143 | 0.0 | 0.0 | 0.00 | 0.14 | 0.00 | 80 | 1019.7 |
| 20260901001121 | 57 | 143 | 0.0 | 0.0 | 0.00 | 0.14 | 0.00 | 80 | 1019.7 |
| 20260901001117 | 57 | 143 | 0.0 | 0.0 | 0.00 | 0.14 | 0.00 | 80 | 1019.7 |
| 20260901001112 | 57 | 143 | 0.0 | 0.0 | 0.00 | 0.14 | 0.00 | 80 | 1019.7 |
| 20260901000801 | 57 | 143 | 0.0 | 0.0 | 0.00 | 0.14 | 0.00 | 80 | 1019.7 |
| 20260901000700 | 57 | 143 | 0.0 | 0.0 | 0.00 | 0.14 | 0.00 | 80 | 1019.7 |
| 20260901000558 | 57 | 143 | 0.0 | 0.0 | 0.00 | 0.14 | 0.00 | 80 | 1019.7 |
| 20260901000458 | 57 | 143 | 0.0 | 0.0 | 0.00 | 0.14 | 0.00 | 80 | 1019.7 |
| 20260901000402 | 57 | 143 | 0.0 | 0.0 | 0.00 | 0.14 | 0.00 | 80 | 1019.7 |
| 20260901000358 | 57 | 143 | 0.0 | 0.0 | 0.00 | 0.14 | 0.00 | 80 | 1019.7 |
| 20260901000258 | 57 | 143 | 0.0 | 0.0 | 0.00 | 0.14 | 0.00 | 80 | 1019.7 |
| 20260901000157 | 57 | 143 | 0.0 | 0.0 | 0.00 | 0.14 | 0.00 | 80 | 1019.7 |
| 20260901000057 | 57 | 143 | 0.0 | 0.0 | 0.00 | 0.14 | 0.00 | 80 | 1019.7 |
| 20260831235958 | 57 | 143 | 0.0 | 0.0 | 0.00 | 0.14 | 0.00 | 80 | 1019.7 |
| 20260831235901 | 57 | 143 | 0.0 | 0.0 | 0.00 | 0.14 | 0.00 | 80 | 1019.7 |
| 20260831235856 | 57 | 143 | 0.0 | 0.0 | 0.00 | 0.14 | 0.00 | 80 | 1019.7 |
| 20260831235756 | 57 | 143 | 0.0 | 0.9 | 0.00 | 0.14 | 0.00 | 80 | 1019.7 |
| 20260831235653 | 57 | 143 | 0.0 | 0.9 | 0.00 | 0.14 | 0.00 | 80 | 1019.7 |
| 20260831235618 | 57 | 143 | 0.0 | 0.9 | 0.00 | 0.14 | 0.00 | 79 | 1019.5 |
| 20260831235613 | 57 | 143 | 0.0 | 0.9 | 0.00 | 0.14 | 0.00 | 80 | 1019.7 |
| 20260831235605 | 57 | 143 | 0.0 | 0.9 | 0.00 | 0.14 | 0.00 | 79 | 1019.7 |
| 20260831235350 | 57 | 143 | 0.0 | 0.9 | 0.00 | 0.14 | 0.00 | 79 | 1019.7 |
| 20260831235341 | 57 | 143 | 0.0 | 0.9 | 0.00 | 0.14 | 0.00 | 80 | 1019.5 |
| 20260831235334 | 57 | 143 | 0.0 | 0.9 | 0.00 | 0.14 | 0.00 | 80 | 1019.7 |
| 20260831235116 | 57 | 143 | 0.0 | 0.9 | 0.00 | 0.14 | 0.00 | 80 | 1019.5 |
| 20260831235112 | 57 | 143 | 0.0 | 0.9 | 0.00 | 0.14 | 0.00 | 79 | 1019.7 |
| 20260831234839 | 57 | 143 | 0.0 | 0.9 | 0.00 | 0.14 | 0.00 | 79 | 1019.5 |
| 20260831234740 | 57 | 143 | 0.0 | 0.9 | 0.00 | 0.14 | 0.00 | 79 | 1019.7 |
| 20260831234640 | 57 | 143 | 0.0 | 0.9 | 0.00 | 0.14 | 0.00 | 79 | 1019.5 |
| 20260831234539 | 57 | 143 | 0.0 | 0.9 | 0.00 | 0.14 | 0.00 | 78 | 1019.5 |
| 20260831234439 | 57 | 143 | 0.0 | 0.9 | 0.00 | 0.14 | 0.00 | 78 | 1019.5 |
| 20260831234338 | 57 | 143 | 0.0 | 0.9 | 0.00 | 0.14 | 0.00 | 78 | 1019.5 |
| 20260831234237 | 57 | 143 | 0.0 | 0.9 | 0.00 | 0.14 | 0.00 | 78 | 1019.5 |
| 20260831234136 | 57 | 143 | 0.0 | 0.9 | 0.00 | 0.14 | 0.00 | 78 | 1019.7 |
| 20260831234034 | 57 | 143 | 0.0 | 1.7 | 0.00 | 0.14 | 0.00 | 78 | 1019.5 |
| 20260831233932 | 57 | 143 | 0.0 | 1.7 | 0.00 | 0.14 | 0.00 | 78 | 1019.7 |
| 20260831233832 | 58 | 143 | 0.0 | 1.7 | 0.00 | 0.14 | 0.00 | 78 | 1019.5 |
| 20260831233732 | 58 | 143 | 0.0 | 1.7 | 0.00 | 0.14 | 0.00 | 78 | 1019.5 |
| 20260831233632 | 58 | 143 | 0.0 | 1.7 | 0.00 | 0.14 | 0.00 | 78 | 1019.5 |
| 20260831233613 | 58 | 143 | 0.0 | 1.7 | 0.00 | 0.14 | 0.00 | 78 | 1019.5 |
| 20260831233605 | 58 | 143 | 0.0 | 1.7 | 0.00 | 0.14 | 0.00 | 78 | 1019.5 |
| 20260831233601 | 58 | 143 | 0.0 | 1.7 | 0.00 | 0.14 | 0.00 | 78 | 1019.5 |
| 20260831233331 | 58 | 143 | 0.0 | 1.7 | 0.00 | 0.14 | 0.00 | 78 | 1019.5 |
| 20260831233230 | 58 | 143 | 0.0 | 1.7 | 0.00 | 0.14 | 0.00 | 78 | 1019.5 |
| 20260831233129 | 58 | 143 | 0.0 | 1.7 | 0.00 | 0.14 | 0.00 | 78 | 1019.7 |
| 20260831233029 | 58 | 143 | 0.0 | 1.7 | 0.00 | 0.14 | 0.00 | 78 | 1019.5 |
| 20260831232929 | 58 | 143 | 0.0 | 1.7 | 0.00 | 0.14 | 0.00 | 79 | 1019.5 |
| 20260831232829 | 58 | 143 | 0.0 | 1.7 | 0.00 | 0.14 | 0.00 | 79 | 1019.5 |
| 20260831232729 | 58 | 143 | 0.0 | 1.7 | 0.00 | 0.14 | 0.00 | 79 | 1019.7 |
| 20260831232629 | 58 | 143 | 0.0 | 1.7 | 0.00 | 0.14 | 0.00 | 78 | 1019.7 |
| 20260831232529 | 58 | 143 | 0.0 | 1.7 | 0.00 | 0.14 | 0.00 | 78 | 1019.7 |
| 20260831232429 | 58 | 143 | 0.0 | 1.7 | 0.00 | 0.14 | 0.00 | 78 | 1019.7 |
| 20260831232329 | 58 | 143 | 0.0 | 1.7 | 0.00 | 0.14 | 0.00 | 77 | 1019.7 |
| 20260831232226 | 58 | 143 | 0.0 | 1.7 | 0.00 | 0.14 | 0.00 | 78 | 1019.7 |
| 20260831232124 | 58 | 143 | 0.0 | 1.7 | 0.00 | 0.14 | 0.00 | 78 | 1019.7 |
| 20260831232023 | 58 | 143 | 0.0 | 1.7 | 0.00 | 0.14 | 0.00 | 77 | 1019.5 |
| 20260831231921 | 58 | 143 | 0.0 | 1.7 | 0.00 | 0.14 | 0.00 | 77 | 1019.5 |
| 20260831231821 | 58 | 143 | 0.0 | 1.7 | 0.00 | 0.14 | 0.00 | 77 | 1019.7 |
| 20260831231717 | 58 | 143 | 0.0 | 1.7 | 0.00 | 0.14 | 0.00 | 77 | 1019.7 |
| 20260831231616 | 58 | 143 | 0.0 | 1.7 | 0.00 | 0.14 | 0.00 | 78 | 1019.7 |
| 20260831231516 | 58 | 143 | 0.0 | 1.7 | 0.00 | 0.14 | 0.00 | 78 | 1019.7 |
| 20260831231416 | 58 | 143 | 0.0 | 1.7 | 0.00 | 0.14 | 0.00 | 78 | 1019.7 |
| 20260831231345 | 58 | 144 | 0.0 | 1.7 | 0.00 | 0.14 | 0.00 | 78 | 1019.7 |
| 20260831231316 | 58 | 144 | 0.9 | 1.7 | 0.00 | 0.14 | 0.00 | 78 | 1019.7 |
| 20260831231212 | 58 | 144 | 0.0 | 1.7 | 0.00 | 0.14 | 0.00 | 78 | 1019.7 |
| 20260831231110 | 58 | 144 | 0.0 | 1.7 | 0.00 | 0.14 | 0.00 | 78 | 1019.5 |
| 20260831231007 | 58 | 144 | 0.0 | 1.7 | 0.00 | 0.14 | 0.00 | 79 | 1019.7 |
| 20260831230907 | 58 | 144 | 0.0 | 1.7 | 0.00 | 0.14 | 0.00 | 78 | 1019.5 |
| 20260831230844 | 58 | 144 | 0.0 | 1.7 | 0.00 | 0.14 | 0.00 | 78 | 1019.5 |
| 20260831230808 | 58 | 144 | 0.0 | 1.7 | 0.00 | 0.14 | 0.00 | 78 | 1019.7 |
| 20260831230703 | 58 | 144 | 0.0 | 1.7 | 0.00 | 0.14 | 0.00 | 78 | 1019.5 |
| 20260831230601 | 58 | 144 | 0.0 | 1.7 | 0.00 | 0.14 | 0.00 | 78 | 1019.5 |
| 20260831230502 | 58 | 144 | 0.0 | 1.7 | 0.00 | 0.14 | 0.00 | 78 | 1019.5 |
| 20260831230402 | 58 | 150 | 0.0 | 1.7 | 0.00 | 0.14 | 0.00 | 78 | 1019.5 |
| 20260831230344 | 58 | 150 | 0.0 | 1.7 | 0.00 | 0.14 | 0.00 | 78 | 1019.5 |
| 20260831230302 | 58 | 159 | 0.0 | 1.7 | 0.00 | 0.14 | 0.00 | 78 | 1019.5 |
| 20260831230201 | 58 | 159 | 0.0 | 1.7 | 0.00 | 0.14 | 0.00 | 78 | 1019.5 |
| 20260831230101 | 58 | 159 | 0.0 | 1.7 | 0.00 | 0.14 | 0.00 | 78 | 1019.7 |
| 20260831230002 | 58 | 159 | 0.0 | 1.7 | 0.00 | 0.14 | 0.00 | 78 | 1019.7 |
| 20260831225902 | 58 | 159 | 0.0 | 1.7 | 0.00 | 0.14 | 0.00 | 77 | 1019.7 |
| 20260831225842 | 58 | 159 | 0.0 | 1.7 | 0.00 | 0.14 | 0.00 | 77 | 1019.7 |
| 20260831225801 | 58 | 159 | 0.0 | 1.7 | 0.00 | 0.14 | 0.00 | 77 | 1019.7 |
| 20260831225701 | 58 | 159 | 0.0 | 1.7 | 0.00 | 0.14 | 0.00 | 77 | 1019.7 |
| 20260831225601 | 58 | 159 | 0.9 | 1.7 | 0.00 | 0.14 | 0.00 | 77 | 1019.7 |
| 20260831225501 | 58 | 159 | 0.9 | 1.7 | 0.00 | 0.14 | 0.00 | 77 | 1019.7 |
| 20260831225401 | 58 | 159 | 0.9 | 1.7 | 0.00 | 0.14 | 0.00 | 77 | 1019.7 |
| 20260831225340 | 58 | 159 | 0.9 | 1.7 | 0.00 | 0.14 | 0.00 | 77 | 1019.7 |
| 20260831225301 | 58 | 159 | 0.0 | 1.7 | 0.00 | 0.14 | 0.00 | 77 | 1019.7 |
| 20260831225201 | 58 | 159 | 0.0 | 1.7 | 0.00 | 0.14 | 0.00 | 77 | 1019.7 |
| 20260831225100 | 58 | 160 | 0.0 | 1.7 | 0.00 | 0.14 | 0.00 | 76 | 1019.5 |
| 20260831225001 | 58 | 160 | 0.0 | 1.7 | 0.00 | 0.14 | 0.00 | 76 | 1019.7 |
| 20260831224901 | 58 | 160 | 0.0 | 1.7 | 0.00 | 0.14 | 0.00 | 76 | 1019.7 |
| 20260831224838 | 58 | 159 | 0.0 | 1.7 | 0.00 | 0.14 | 0.00 | 76 | 1019.7 |
| 20260831224801 | 58 | 159 | 0.0 | 1.7 | 0.00 | 0.14 | 0.00 | 76 | 1019.7 |
| 20260831224701 | 59 | 159 | 0.0 | 1.7 | 0.00 | 0.14 | 0.00 | 76 | 1019.7 |
| 20260831224601 | 59 | 159 | 0.0 | 1.7 | 0.00 | 0.14 | 0.00 | 76 | 1019.7 |
| 20260831224501 | 59 | 159 | 0.0 | 1.7 | 0.00 | 0.14 | 0.00 | 76 | 1019.7 |
| 20260831224401 | 59 | 159 | 0.0 | 1.7 | 0.00 | 0.14 | 0.00 | 76 | 1019.7 |
| 20260831224337 | 59 | 160 | 0.0 | 1.7 | 0.00 | 0.14 | 0.00 | 76 | 1019.7 |
| 20260831224300 | 59 | 159 | 0.0 | 1.7 | 0.00 | 0.14 | 0.00 | 76 | 1019.8 |
| 20260831224200 | 59 | 159 | 0.0 | 1.7 | 0.00 | 0.14 | 0.00 | 77 | 1019.7 |
| 20260831224100 | 59 | 159 | 0.0 | 1.7 | 0.00 | 0.14 | 0.00 | 75 | 1019.7 |
| 20260831224000 | 59 | 159 | 0.0 | 1.7 | 0.00 | 0.14 | 0.00 | 76 | 1019.7 |
| 20260831223900 | 59 | 159 | 0.0 | 1.7 | 0.00 | 0.14 | 0.00 | 75 | 1019.8 |
| 20260831223838 | 59 | 159 | 0.0 | 1.7 | 0.00 | 0.14 | 0.00 | 75 | 1019.8 |
| 20260831223801 | 59 | 159 | 0.0 | 1.7 | 0.00 | 0.14 | 0.00 | 74 | 1019.8 |
| 20260831223700 | 59 | 160 | 0.0 | 1.7 | 0.00 | 0.14 | 0.00 | 74 | 1019.8 |
| 20260831223600 | 59 | 160 | 0.0 | 1.7 | 0.00 | 0.14 | 0.00 | 74 | 1019.8 |
| 20260831223500 | 59 | 160 | 0.0 | 1.7 | 0.00 | 0.14 | 0.00 | 73 | 1019.8 |
| 20260831223401 | 59 | 159 | 0.9 | 1.7 | 0.00 | 0.14 | 0.00 | 73 | 1019.8 |
| 20260831223338 | 59 | 159 | 0.9 | 1.7 | 0.00 | 0.14 | 0.00 | 73 | 1019.8 |
| 20260831223301 | 59 | 159 | 0.9 | 1.7 | 0.00 | 0.14 | 0.00 | 73 | 1019.7 |
| 20260831223202 | 59 | 159 | 0.9 | 1.7 | 0.00 | 0.14 | 0.00 | 73 | 1019.7 |
| 20260831223102 | 59 | 160 | 0.9 | 1.7 | 0.00 | 0.14 | 0.00 | 73 | 1019.7 |
| 20260831223055 | 59 | 159 | 0.9 | 1.7 | 0.00 | 0.14 | 0.00 | 73 | 1019.7 |
| 20260831223049 | 59 | 160 | 0.9 | 1.7 | 0.00 | 0.14 | 0.00 | 73 | 1019.7 |
| 20260831223045 | 59 | 160 | 0.9 | 1.7 | 0.00 | 0.14 | 0.00 | 73 | 1019.7 |
| 20260831222801 | 59 | 159 | 0.9 | 1.7 | 0.00 | 0.14 | 0.00 | 73 | 1019.7 |
| 20260831222701 | 59 | 160 | 0.9 | 1.7 | 0.00 | 0.14 | 0.00 | 72 | 1019.7 |
| 20260831222601 | 59 | 160 | 0.9 | 1.7 | 0.00 | 0.14 | 0.00 | 72 | 1019.7 |
| 20260831222501 | 59 | 160 | 0.9 | 1.7 | 0.00 | 0.14 | 0.00 | 72 | 1019.7 |
| 20260831222401 | 59 | 160 | 0.0 | 1.7 | 0.00 | 0.14 | 0.00 | 72 | 1019.7 |
| 20260831222331 | 59 | 160 | 0.0 | 1.7 | 0.00 | 0.14 | 0.00 | 72 | 1019.7 |
| 20260831222300 | 59 | 160 | 0.0 | 1.7 | 0.00 | 0.14 | 0.00 | 72 | 1019.7 |
| 20260831222200 | 59 | 161 | 0.0 | 1.7 | 0.00 | 0.14 | 0.00 | 72 | 1019.7 |
| 20260831222100 | 59 | 172 | 0.0 | 1.7 | 0.00 | 0.14 | 0.00 | 72 | 1019.7 |
| 20260831222000 | 59 | 223 | 0.0 | 1.7 | 0.00 | 0.14 | 0.00 | 72 | 1019.7 |
| 20260831221900 | 59 | 227 | 0.0 | 1.7 | 0.00 | 0.14 | 0.00 | 72 | 1019.7 |
| 20260831221801 | 59 | 227 | 0.0 | 1.7 | 0.00 | 0.14 | 0.00 | 72 | 1019.7 |
| 20260831221701 | 60 | 227 | 0.0 | 1.7 | 0.00 | 0.14 | 0.00 | 71 | 1019.7 |
| 20260831221601 | 60 | 227 | 0.0 | 1.7 | 0.00 | 0.14 | 0.00 | 71 | 1019.7 |
| 20260831221501 | 60 | 227 | 0.9 | 2.6 | 0.00 | 0.14 | 0.00 | 71 | 1019.7 |
| 20260831221401 | 60 | 227 | 0.9 | 3.5 | 0.00 | 0.14 | 0.00 | 71 | 1019.7 |
| 20260831221301 | 60 | 227 | 0.9 | 3.5 | 0.00 | 0.14 | 0.00 | 71 | 1019.7 |
| 20260831221201 | 60 | 227 | 0.9 | 3.5 | 0.00 | 0.14 | 0.00 | 71 | 1019.7 |
| 20260831221101 | 60 | 227 | 0.9 | 3.5 | 0.00 | 0.14 | 0.00 | 70 | 1019.7 |
| 20260831221001 | 60 | 227 | 1.7 | 3.5 | 0.00 | 0.14 | 0.00 | 70 | 1019.7 |
| 20260831220901 | 60 | 227 | 1.7 | 3.5 | 0.00 | 0.14 | 0.00 | 70 | 1019.7 |
| 20260831220831 | 60 | 227 | 1.7 | 3.5 | 0.00 | 0.14 | 0.00 | 70 | 1019.7 |
| 20260831220800 | 60 | 227 | 1.7 | 3.5 | 0.00 | 0.14 | 0.00 | 70 | 1019.7 |
| 20260831220704 | 60 | 227 | 1.7 | 3.5 | 0.00 | 0.14 | 0.00 | 69 | 1019.7 |
| 20260831220600 | 60 | 227 | 1.7 | 3.5 | 0.00 | 0.14 | 0.00 | 68 | 1019.7 |
| 20260831220500 | 60 | 227 | 1.7 | 3.5 | 0.00 | 0.14 | 0.00 | 68 | 1019.7 |
| 20260831220400 | 60 | 227 | 1.7 | 3.5 | 0.00 | 0.14 | 0.00 | 68 | 1019.7 |
| 20260831220330 | 60 | 228 | 1.7 | 3.5 | 0.00 | 0.14 | 0.00 | 68 | 1019.7 |
| 20260831220302 | 60 | 227 | 1.7 | 3.5 | 0.00 | 0.14 | 0.00 | 68 | 1019.7 |
| 20260831220203 | 60 | 230 | 1.7 | 3.5 | 0.00 | 0.14 | 0.00 | 67 | 1019.7 |
| 20260831220101 | 60 | 230 | 1.7 | 3.5 | 0.00 | 0.14 | 0.00 | 67 | 1019.7 |
| 20260831220002 | 60 | 232 | 1.7 | 3.5 | 0.00 | 0.14 | 0.00 | 67 | 1019.7 |
| 20260831215902 | 60 | 236 | 0.9 | 3.5 | 0.00 | 0.14 | 0.14 | 67 | 1019.7 |
| 20260831215829 | 61 | 245 | 0.9 | 2.6 | 0.00 | 0.14 | 0.14 | 67 | 1019.7 |
| 20260831215800 | 60 | 245 | 0.9 | 2.6 | 0.00 | 0.14 | 0.14 | 68 | 1019.7 |
| 20260831215700 | 61 | 246 | 0.9 | 2.6 | 0.00 | 0.14 | 0.14 | 68 | 1019.7 |
| 20260831215601 | 61 | 246 | 0.9 | 2.6 | 0.00 | 0.14 | 0.14 | 67 | 1019.7 |
| 20260831215500 | 61 | 246 | 0.9 | 2.6 | 0.00 | 0.14 | 0.14 | 67 | 1019.7 |
| 20260831215400 | 61 | 245 | 0.9 | 2.6 | 0.00 | 0.14 | 0.14 | 68 | 1019.7 |
| 20260831215328 | 61 | 262 | 0.9 | 2.6 | 0.00 | 0.14 | 0.14 | 68 | 1019.7 |
| 20260831215300 | 61 | 263 | 0.9 | 2.6 | 0.00 | 0.14 | 0.14 | 67 | 1019.7 |
| 20260831215201 | 61 | 266 | 0.9 | 2.6 | 0.00 | 0.14 | 0.14 | 67 | 1019.7 |
| 20260831215100 | 61 | 266 | 0.9 | 2.6 | 0.00 | 0.14 | 0.14 | 67 | 1019.7 |
| 20260831215001 | 61 | 267 | 0.9 | 1.7 | 0.00 | 0.14 | 0.14 | 66 | 1019.7 |
| 20260831214901 | 61 | 267 | 0.9 | 1.7 | 0.00 | 0.14 | 0.14 | 66 | 1019.7 |
| 20260831214801 | 61 | 267 | 0.9 | 1.7 | 0.00 | 0.14 | 0.14 | 66 | 1019.7 |
| 20260831214701 | 61 | 267 | 0.9 | 1.7 | 0.00 | 0.14 | 0.14 | 66 | 1019.7 |
| 20260831214601 | 61 | 267 | 0.9 | 1.7 | 0.00 | 0.14 | 0.14 | 66 | 1019.5 |
| 20260831214501 | 61 | 267 | 0.9 | 1.7 | 0.00 | 0.14 | 0.14 | 66 | 1019.5 |
| 20260831214400 | 61 | 267 | 0.9 | 1.7 | 0.00 | 0.14 | 0.14 | 66 | 1019.5 |
| 20260831214329 | 61 | 267 | 0.9 | 1.7 | 0.00 | 0.14 | 0.14 | 66 | 1019.5 |
| 20260831214300 | 61 | 267 | 0.9 | 1.7 | 0.00 | 0.14 | 0.14 | 66 | 1019.4 |
| 20260831214200 | 62 | 267 | 0.9 | 1.7 | 0.00 | 0.14 | 0.14 | 66 | 1019.5 |
| 20260831214101 | 62 | 267 | 0.9 | 1.7 | 0.00 | 0.14 | 0.14 | 65 | 1019.4 |
| 20260831214000 | 62 | 267 | 0.9 | 1.7 | 0.00 | 0.14 | 0.14 | 66 | 1019.4 |
| 20260831213900 | 62 | 267 | 0.9 | 1.7 | 0.00 | 0.14 | 0.14 | 65 | 1019.4 |
| 20260831213800 | 62 | 267 | 0.9 | 1.7 | 0.00 | 0.14 | 0.14 | 65 | 1019.4 |
| 20260831213700 | 62 | 267 | 0.9 | 1.7 | 0.00 | 0.14 | 0.14 | 65 | 1019.4 |
| 20260831213600 | 62 | 267 | 0.9 | 1.7 | 0.00 | 0.14 | 0.14 | 65 | 1019.4 |
| 20260831213500 | 62 | 267 | 0.9 | 2.6 | 0.00 | 0.14 | 0.14 | 65 | 1019.4 |
| 20260831213401 | 62 | 267 | 0.9 | 2.6 | 0.00 | 0.14 | 0.14 | 64 | 1019.4 |
| 20260831213329 | 62 | 267 | 0.9 | 2.6 | 0.00 | 0.14 | 0.14 | 64 | 1019.4 |
| 20260831213301 | 62 | 267 | 1.7 | 3.5 | 0.00 | 0.14 | 0.14 | 64 | 1019.4 |
| 20260831213201 | 62 | 267 | 1.7 | 3.5 | 0.00 | 0.14 | 0.14 | 64 | 1019.4 |
| 20260831213101 | 62 | 267 | 1.7 | 3.5 | 0.00 | 0.14 | 0.14 | 64 | 1019.4 |
| 20260831213053 | 62 | 267 | 1.7 | 5.2 | 0.00 | 0.14 | 0.14 | 64 | 1019.4 |
| 20260831213046 | 62 | 267 | 1.7 | 4.3 | 0.00 | 0.14 | 0.14 | 64 | 1019.4 |
| 20260831213041 | 62 | 267 | 1.7 | 4.3 | 0.00 | 0.14 | 0.14 | 64 | 1019.4 |
| 20260831212801 | 62 | 267 | 1.7 | 5.2 | 0.00 | 0.14 | 0.14 | 64 | 1019.5 |
| 20260831212701 | 62 | 267 | 2.6 | 5.2 | 0.00 | 0.14 | 0.14 | 64 | 1019.5 |
| 20260831212601 | 62 | 267 | 2.6 | 5.2 | 0.00 | 0.14 | 0.14 | 63 | 1019.5 |
| 20260831212500 | 62 | 267 | 2.6 | 5.2 | 0.00 | 0.14 | 0.14 | 63 | 1019.5 |
| 20260831212401 | 63 | 267 | 2.6 | 5.2 | 0.00 | 0.14 | 0.14 | 63 | 1019.5 |
| 20260831212301 | 63 | 267 | 2.6 | 5.2 | 0.00 | 0.14 | 0.14 | 63 | 1019.5 |
| 20260831212201 | 63 | 256 | 2.6 | 5.2 | 0.00 | 0.14 | 0.14 | 63 | 1019.4 |
| 20260831212101 | 63 | 250 | 2.6 | 6.1 | 0.00 | 0.14 | 0.14 | 63 | 1019.5 |
| 20260831212001 | 63 | 246 | 3.5 | 6.1 | 0.00 | 0.14 | 0.14 | 62 | 1019.5 |
| 20260831211901 | 63 | 260 | 3.5 | 7.0 | 0.00 | 0.14 | 0.14 | 63 | 1019.5 |
| 20260831211829 | 63 | 249 | 3.5 | 7.0 | 0.00 | 0.14 | 0.14 | 63 | 1019.5 |
| 20260831211801 | 63 | 249 | 3.5 | 7.0 | 0.00 | 0.14 | 0.14 | 62 | 1019.5 |
| 20260831211700 | 63 | 268 | 3.5 | 7.0 | 0.00 | 0.14 | 0.14 | 62 | 1019.4 |
| 20260831211601 | 63 | 271 | 3.5 | 7.0 | 0.00 | 0.14 | 0.14 | 62 | 1019.4 |
| 20260831211501 | 63 | 252 | 4.3 | 7.0 | 0.00 | 0.14 | 0.14 | 62 | 1019.4 |
| 20260831211401 | 63 | 238 | 4.3 | 7.0 | 0.00 | 0.14 | 0.14 | 62 | 1019.4 |
| 20260831211328 | 63 | 278 | 4.3 | 7.0 | 0.00 | 0.14 | 0.14 | 62 | 1019.4 |
| 20260831211300 | 63 | 259 | 4.3 | 7.0 | 0.00 | 0.14 | 0.14 | 62 | 1019.4 |
| 20260831211201 | 63 | 250 | 4.3 | 7.0 | 0.00 | 0.14 | 0.14 | 61 | 1019.4 |
| 20260831211100 | 63 | 248 | 4.3 | 7.0 | 0.00 | 0.14 | 0.14 | 61 | 1019.4 |
| 20260831211049 | 63 | 257 | 5.2 | 7.0 | 0.00 | 0.14 | 0.14 | 61 | 1019.4 |
| 20260831211045 | 63 | 261 | 4.3 | 7.0 | 0.00 | 0.14 | 0.14 | 61 | 1019.4 |
| 20260831211041 | 63 | 243 | 5.2 | 7.0 | 0.00 | 0.14 | 0.14 | 61 | 1019.4 |
| 20260831210755 | 63 | 257 | 5.2 | 7.0 | 0.00 | 0.14 | 0.14 | 61 | 1019.5 |
| 20260831210655 | 63 | 248 | 5.2 | 7.8 | 0.00 | 0.14 | 0.14 | 61 | 1019.4 |
| 20260831210554 | 63 | 250 | 5.2 | 7.8 | 0.00 | 0.14 | 0.14 | 61 | 1019.4 |
| 20260831210453 | 63 | 266 | 4.3 | 7.8 | 0.00 | 0.14 | 0.14 | 61 | 1019.4 |
| 20260831210350 | 63 | 272 | 4.3 | 7.8 | 0.00 | 0.14 | 0.14 | 61 | 1019.4 |
| 20260831210328 | 63 | 276 | 4.3 | 7.8 | 0.00 | 0.14 | 0.14 | 61 | 1019.4 |
| 20260831210246 | 63 | 300 | 4.3 | 7.8 | 0.00 | 0.14 | 0.14 | 61 | 1019.3 |
| 20260831210146 | 63 | 271 | 4.3 | 7.8 | 0.00 | 0.14 | 0.14 | 61 | 1019.3 |
| 20260831210046 | 63 | 245 | 4.3 | 7.8 | 0.00 | 0.14 | 0.14 | 61 | 1019.3 |
| 20260831205946 | 64 | 274 | 4.3 | 7.8 | 0.00 | 0.14 | 0.14 | 61 | 1019.3 |
| 20260831205843 | 64 | 263 | 4.3 | 7.8 | 0.00 | 0.14 | 0.14 | 61 | 1019.3 |
| 20260831205829 | 64 | 252 | 4.3 | 7.8 | 0.00 | 0.14 | 0.14 | 61 | 1019.3 |
| 20260831205739 | 64 | 235 | 4.3 | 7.8 | 0.00 | 0.14 | 0.14 | 61 | 1019.3 |
| 20260831205639 | 64 | 261 | 4.3 | 7.8 | 0.00 | 0.14 | 0.14 | 61 | 1019.3 |
| 20260831205539 | 64 | 253 | 4.3 | 7.8 | 0.00 | 0.14 | 0.14 | 61 | 1019.3 |
| 20260831205439 | 64 | 260 | 5.2 | 7.8 | 0.00 | 0.14 | 0.14 | 61 | 1019.3 |
| 20260831205329 | 64 | 259 | 4.3 | 7.8 | 0.00 | 0.14 | 0.14 | 61 | 1019.3 |
| 20260831205319 | 64 | 277 | 4.3 | 7.8 | 0.00 | 0.14 | 0.14 | 61 | 1019.4 |
| 20260831205315 | 64 | 238 | 4.3 | 7.8 | 0.00 | 0.14 | 0.14 | 61 | 1019.3 |
| 20260831205310 | 64 | 257 | 5.2 | 7.8 | 0.00 | 0.14 | 0.14 | 61 | 1019.3 |
| 20260831205049 | 64 | 276 | 5.2 | 7.8 | 0.00 | 0.14 | 0.14 | 61 | 1019.3 |
| 20260831205045 | 64 | 283 | 5.2 | 7.8 | 0.00 | 0.14 | 0.14 | 61 | 1019.3 |
| 20260831205041 | 64 | 229 | 4.3 | 7.8 | 0.00 | 0.14 | 0.14 | 61 | 1019.4 |
| 20260831204732 | 64 | 279 | 4.3 | 7.8 | 0.00 | 0.14 | 0.14 | 61 | 1019.4 |
| 20260831204632 | 64 | 257 | 4.3 | 7.8 | 0.00 | 0.14 | 0.14 | 61 | 1019.4 |
| 20260831204530 | 64 | 295 | 4.3 | 7.8 | 0.00 | 0.14 | 0.14 | 61 | 1019.4 |
| 20260831204430 | 64 | 227 | 4.3 | 7.8 | 0.00 | 0.14 | 0.14 | 61 | 1019.3 |
| 20260831204328 | 64 | 267 | 4.3 | 8.7 | 0.00 | 0.14 | 0.14 | 61 | 1019.3 |
| 20260831204320 | 64 | 262 | 4.3 | 8.7 | 0.00 | 0.14 | 0.14 | 61 | 1019.3 |
| 20260831204316 | 64 | 277 | 4.3 | 8.7 | 0.00 | 0.14 | 0.14 | 61 | 1019.3 |
| 20260831204312 | 64 | 277 | 4.3 | 8.7 | 0.00 | 0.14 | 0.14 | 61 | 1019.4 |
| 20260831204047 | 64 | 327 | 4.3 | 8.7 | 0.00 | 0.14 | 0.14 | 62 | 1019.4 |
| 20260831204043 | 64 | 256 | 4.3 | 8.7 | 0.00 | 0.14 | 0.14 | 61 | 1019.3 |
| 20260831204038 | 64 | 258 | 4.3 | 8.7 | 0.00 | 0.14 | 0.14 | 61 | 1019.3 |
| 20260831203730 | 64 | 263 | 4.3 | 8.7 | 0.00 | 0.14 | 0.14 | 61 | 1019.3 |
| 20260831203629 | 64 | 244 | 3.5 | 8.7 | 0.00 | 0.14 | 0.14 | 61 | 1019.3 |
| 20260831203529 | 64 | 265 | 3.5 | 8.7 | 0.00 | 0.14 | 0.14 | 61 | 1019.3 |
| 20260831203429 | 64 | 267 | 3.5 | 8.7 | 0.00 | 0.14 | 0.14 | 61 | 1019.3 |
| 20260831203329 | 64 | 277 | 3.5 | 8.7 | 0.00 | 0.14 | 0.14 | 61 | 1019.3 |
| 20260831203229 | 64 | 267 | 3.5 | 8.7 | 0.00 | 0.14 | 0.14 | 61 | 1019.3 |
| 20260831203129 | 64 | 271 | 3.5 | 8.7 | 0.00 | 0.14 | 0.14 | 61 | 1019.3 |
| 20260831203029 | 64 | 255 | 3.5 | 8.7 | 0.00 | 0.14 | 0.14 | 61 | 1019.3 |
| 20260831202931 | 65 | 302 | 4.3 | 7.8 | 0.00 | 0.14 | 0.14 | 61 | 1019.1 |
| 20260831202829 | 65 | 275 | 4.3 | 7.8 | 0.00 | 0.14 | 0.14 | 61 | 1019.2 |
| 20260831202729 | 65 | 263 | 4.3 | 7.8 | 0.00 | 0.14 | 0.14 | 61 | 1019.1 |
| 20260831202629 | 65 | 292 | 4.3 | 7.8 | 0.00 | 0.14 | 0.14 | 61 | 1019.1 |
| 20260831202529 | 65 | 281 | 4.3 | 7.8 | 0.00 | 0.14 | 0.14 | 61 | 1019.2 |
| 20260831202429 | 65 | 286 | 4.3 | 7.8 | 0.00 | 0.14 | 0.14 | 61 | 1019.1 |
| 20260831202329 | 65 | 287 | 4.3 | 8.7 | 0.00 | 0.14 | 0.14 | 61 | 1019.1 |
| 20260831202230 | 65 | 270 | 4.3 | 8.7 | 0.00 | 0.14 | 0.14 | 60 | 1019.0 |
| 20260831202129 | 65 | 269 | 4.3 | 8.7 | 0.00 | 0.14 | 0.14 | 60 | 1019.0 |
| 20260831202048 | 65 | 266 | 4.3 | 8.7 | 0.00 | 0.14 | 0.14 | 60 | 1019.0 |
| 20260831202044 | 65 | 275 | 4.3 | 8.7 | 0.00 | 0.14 | 0.14 | 61 | 1019.0 |
| 20260831202040 | 65 | 267 | 4.3 | 8.7 | 0.00 | 0.14 | 0.14 | 61 | 1019.0 |
| 20260831201729 | 65 | 287 | 4.3 | 8.7 | 0.00 | 0.14 | 0.14 | 60 | 1018.9 |
| 20260831201629 | 65 | 283 | 3.5 | 8.7 | 0.00 | 0.14 | 0.14 | 60 | 1018.9 |
| 20260831201528 | 65 | 266 | 3.5 | 8.7 | 0.00 | 0.14 | 0.14 | 60 | 1018.9 |
| 20260831201428 | 65 | 284 | 3.5 | 8.7 | 0.00 | 0.14 | 0.14 | 60 | 1018.9 |
| 20260831201329 | 65 | 282 | 3.5 | 7.8 | 0.00 | 0.14 | 0.14 | 60 | 1018.9 |
| 20260831201228 | 65 | 281 | 3.5 | 7.8 | 0.00 | 0.14 | 0.14 | 61 | 1018.8 |
| 20260831201128 | 65 | 296 | 3.5 | 7.8 | 0.00 | 0.14 | 0.14 | 60 | 1018.8 |
| 20260831201025 | 65 | 297 | 3.5 | 7.8 | 0.00 | 0.14 | 0.14 | 60 | 1018.8 |
| 20260831200924 | 65 | 264 | 3.5 | 7.8 | 0.00 | 0.14 | 0.14 | 60 | 1018.8 |
| 20260831200829 | 65 | 293 | 3.5 | 7.8 | 0.00 | 0.14 | 0.14 | 60 | 1018.8 |
| 20260831200819 | 65 | 288 | 3.5 | 7.8 | 0.00 | 0.14 | 0.14 | 60 | 1018.8 |
| 20260831200718 | 65 | 275 | 3.5 | 7.8 | 0.00 | 0.14 | 0.14 | 60 | 1018.7 |
| 20260831200618 | 65 | 257 | 3.5 | 8.7 | 0.00 | 0.14 | 0.14 | 60 | 1018.7 |
| 20260831200519 | 65 | 286 | 4.3 | 8.7 | 0.00 | 0.14 | 0.14 | 60 | 1018.7 |
| 20260831200418 | 65 | 257 | 3.5 | 8.7 | 0.00 | 0.14 | 0.14 | 60 | 1018.7 |
| 20260831200330 | 65 | 252 | 3.5 | 8.7 | 0.00 | 0.14 | 0.14 | 60 | 1018.7 |
| 20260831200316 | 65 | 250 | 3.5 | 8.7 | 0.00 | 0.14 | 0.14 | 60 | 1018.6 |
| 20260831200216 | 65 | 271 | 4.3 | 8.7 | 0.00 | 0.14 | 0.14 | 60 | 1018.6 |
| 20260831200116 | 65 | 290 | 4.3 | 8.7 | 0.00 | 0.14 | 0.14 | 60 | 1018.7 |
| 20260831200052 | 65 | 269 | 4.3 | 9.6 | 0.00 | 0.14 | 0.14 | 59 | 1018.6 |
| 20260831200044 | 65 | 257 | 4.3 | 9.6 | 0.00 | 0.14 | 0.14 | 60 | 1018.6 |
| 20260831200040 | 65 | 252 | 4.3 | 9.6 | 0.00 | 0.14 | 0.14 | 59 | 1018.6 |
| 20260831195812 | 65 | 269 | 4.3 | 9.6 | 0.00 | 0.14 | 0.14 | 59 | 1018.6 |
| 20260831195712 | 65 | 268 | 4.3 | 9.6 | 0.00 | 0.14 | 0.14 | 59 | 1018.5 |
| 20260831195612 | 65 | 280 | 4.3 | 9.6 | 0.00 | 0.14 | 0.14 | 59 | 1018.5 |
| 20260831195512 | 65 | 250 | 4.3 | 9.6 | 0.00 | 0.14 | 0.14 | 59 | 1018.5 |
| 20260831195438 | 65 | 252 | 4.3 | 9.6 | 0.00 | 0.14 | 0.14 | 59 | 1018.5 |
| 20260831195434 | 65 | 268 | 4.3 | 9.6 | 0.00 | 0.14 | 0.14 | 59 | 1018.5 |
| 20260831195322 | 65 | 271 | 4.3 | 9.6 | 0.00 | 0.14 | 0.14 | 59 | 1018.4 |
| 20260831195208 | 65 | 253 | 4.3 | 9.6 | 0.00 | 0.14 | 0.14 | 59 | 1018.4 |
| 20260831195108 | 65 | 263 | 4.3 | 9.6 | 0.00 | 0.14 | 0.14 | 59 | 1018.4 |
| 20260831195053 | 65 | 261 | 4.3 | 7.8 | 0.00 | 0.14 | 0.14 | 59 | 1018.3 |
| 20260831195044 | 65 | 257 | 4.3 | 7.0 | 0.00 | 0.14 | 0.14 | 59 | 1018.4 |
| 20260831195040 | 65 | 302 | 4.3 | 7.8 | 0.00 | 0.14 | 0.14 | 59 | 1018.3 |
| 20260831194804 | 65 | 251 | 4.3 | 7.8 | 0.00 | 0.14 | 0.14 | 59 | 1018.3 |
| 20260831194704 | 65 | 261 | 4.3 | 7.8 | 0.00 | 0.14 | 0.14 | 60 | 1018.3 |
| 20260831194602 | 65 | 263 | 4.3 | 7.8 | 0.00 | 0.14 | 0.14 | 60 | 1018.3 |
| 20260831194502 | 65 | 251 | 4.3 | 7.8 | 0.00 | 0.14 | 0.14 | 60 | 1018.3 |
| 20260831194403 | 65 | 284 | 4.3 | 7.8 | 0.00 | 0.14 | 0.14 | 60 | 1018.2 |
| 20260831194329 | 65 | 277 | 4.3 | 7.8 | 0.00 | 0.14 | 0.14 | 60 | 1018.2 |
| 20260831194302 | 65 | 246 | 4.3 | 7.8 | 0.00 | 0.14 | 0.14 | 60 | 1018.3 |
| 20260831194202 | 65 | 252 | 4.3 | 7.8 | 0.00 | 0.14 | 0.14 | 60 | 1018.3 |
| 20260831194102 | 65 | 283 | 4.3 | 7.8 | 0.00 | 0.14 | 0.14 | 60 | 1018.3 |
| 20260831194002 | 65 | 259 | 3.5 | 7.8 | 0.00 | 0.14 | 0.14 | 60 | 1018.3 |
| 20260831193901 | 65 | 272 | 3.5 | 7.8 | 0.00 | 0.14 | 0.14 | 60 | 1018.3 |
| 20260831193830 | 65 | 265 | 3.5 | 7.8 | 0.00 | 0.14 | 0.14 | 60 | 1018.3 |
| 20260831193801 | 65 | 248 | 3.5 | 7.8 | 0.00 | 0.14 | 0.14 | 60 | 1018.3 |
| 20260831193701 | 65 | 271 | 3.5 | 7.8 | 0.00 | 0.14 | 0.14 | 61 | 1018.3 |
| 20260831193603 | 65 | 246 | 2.6 | 7.8 | 0.00 | 0.14 | 0.14 | 61 | 1018.3 |
| 20260831193501 | 65 | 263 | 2.6 | 7.8 | 0.00 | 0.14 | 0.14 | 61 | 1018.3 |
| 20260831193401 | 65 | 270 | 2.6 | 6.1 | 0.00 | 0.14 | 0.14 | 61 | 1018.3 |
| 20260831193329 | 65 | 259 | 2.6 | 5.2 | 0.00 | 0.14 | 0.14 | 61 | 1018.3 |
| 20260831193301 | 65 | 258 | 2.6 | 5.2 | 0.00 | 0.14 | 0.14 | 61 | 1018.2 |
| 20260831193203 | 65 | 295 | 2.6 | 5.2 | 0.00 | 0.14 | 0.14 | 62 | 1018.3 |
| 20260831193101 | 65 | 254 | 2.6 | 5.2 | 0.00 | 0.14 | 0.14 | 62 | 1018.2 |
| 20260831193026 | 65 | 291 | 1.7 | 3.5 | 0.00 | 0.14 | 0.14 | 63 | 1018.2 |
| 20260831193022 | 66 | 267 | 1.7 | 2.6 | 0.00 | 0.14 | 0.14 | 61 | 1018.0 |
| 20260831193017 | 65 | 288 | 2.6 | 4.3 | 0.00 | 0.14 | 0.14 | 63 | 1018.2 |
| 20260831193013 | 65 | 269 | 2.6 | 4.3 | 0.00 | 0.14 | 0.14 | 63 | 1018.2 |
| 20260831193009 | 65 | 264 | 2.6 | 4.3 | 0.00 | 0.14 | 0.14 | 63 | 1018.2 |
| 20260831193005 | 65 | 264 | 1.7 | 4.3 | 0.00 | 0.14 | 0.14 | 63 | 1018.2 |
| 20260831192750 | 65 | 273 | 1.7 | 4.3 | 0.00 | 0.14 | 0.14 | 63 | 1018.2 |
| 20260831192746 | 65 | 287 | 1.7 | 4.3 | 0.00 | 0.14 | 0.14 | 63 | 1018.2 |
| 20260831192738 | 65 | 280 | 1.7 | 3.5 | 0.00 | 0.14 | 0.14 | 62 | 1018.1 |
| 20260831192734 | 65 | 280 | 1.7 | 3.5 | 0.00 | 0.14 | 0.14 | 62 | 1018.1 |
| 20260831192305 | 65 | 291 | 1.7 | 3.5 | 0.00 | 0.14 | 0.14 | 63 | 1018.2 |
| 20260831192259 | 66 | 286 | 1.7 | 3.5 | 0.00 | 0.14 | 0.14 | 62 | 1018.1 |
| 20260831192255 | 66 | 286 | 1.7 | 3.5 | 0.00 | 0.14 | 0.14 | 62 | 1018.1 |
| 20260831192247 | 66 | 286 | 1.7 | 2.6 | 0.00 | 0.14 | 0.14 | 62 | 1018.0 |
| 20260831192243 | 66 | 286 | 1.7 | 2.6 | 0.00 | 0.14 | 0.14 | 62 | 1018.0 |
| 20260831191812 | 66 | 286 | 1.7 | 2.6 | 0.00 | 0.14 | 0.14 | 62 | 1018.0 |
| 20260831191808 | 66 | 286 | 1.7 | 2.6 | 0.00 | 0.14 | 0.14 | 61 | 1018.0 |
| 20260831191804 | 66 | 267 | 1.7 | 2.6 | 0.00 | 0.14 | 0.14 | 61 | 1018.0 |
| 20260831191543 | 66 | 267 | 1.7 | 2.6 | 0.00 | 0.14 | 0.14 | 61 | 1018.0 |
| 20260831191539 | 66 | 267 | 1.7 | 2.6 | 0.00 | 0.14 | 0.14 | 61 | 1018.0 |
| 20260831191258 | 66 | 267 | 1.7 | 2.6 | 0.00 | 0.14 | 0.14 | 61 | 1017.9 |
| 20260831191158 | 66 | 267 | 1.7 | 2.6 | 0.00 | 0.14 | 0.14 | 60 | 1017.9 |
| 20260831191056 | 67 | 267 | 1.7 | 2.6 | 0.00 | 0.14 | 0.14 | 60 | 1017.9 |
| 20260831190954 | 67 | 267 | 1.7 | 2.6 | 0.00 | 0.14 | 0.14 | 60 | 1017.9 |
| 20260831190830 | 67 | 267 | 1.7 | 2.6 | 0.00 | 0.14 | 0.14 | 60 | 1017.9 |
| 20260831190748 | 67 | 267 | 1.7 | 2.6 | 0.00 | 0.14 | 0.14 | 60 | 1017.9 |
| 20260831190648 | 67 | 253 | 1.7 | 2.6 | 0.00 | 0.14 | 0.14 | 60 | 1017.8 |
| 20260831190559 | 67 | 253 | 1.7 | 2.6 | 0.00 | 0.14 | 0.14 | 60 | 1017.8 |
| 20260831190545 | 67 | 253 | 1.7 | 4.3 | 0.00 | 0.14 | 0.14 | 60 | 1017.8 |
| 20260831190541 | 67 | 253 | 1.7 | 4.3 | 0.00 | 0.14 | 0.14 | 59 | 1017.6 |
| 20260831190247 | 67 | 253 | 1.7 | 4.3 | 0.00 | 0.14 | 0.14 | 59 | 1017.6 |
| 20260831190146 | 67 | 253 | 1.7 | 5.2 | 0.00 | 0.14 | 0.14 | 60 | 1017.6 |
| 20260831190044 | 67 | 253 | 2.6 | 5.2 | 0.00 | 0.14 | 0.14 | 59 | 1017.6 |
| 20260831185941 | 67 | 253 | 2.6 | 5.2 | 0.00 | 0.14 | 0.14 | 59 | 1017.6 |
| 20260831185830 | 67 | 252 | 2.6 | 5.2 | 0.00 | 0.14 | 0.14 | 58 | 1017.5 |
| 20260831185736 | 67 | 253 | 2.6 | 5.2 | 0.00 | 0.14 | 0.14 | 58 | 1017.5 |
| 20260831185636 | 67 | 253 | 2.6 | 6.1 | 0.00 | 0.14 | 0.14 | 58 | 1017.5 |
| 20260831185536 | 67 | 252 | 2.6 | 6.1 | 0.00 | 0.14 | 0.14 | 58 | 1017.6 |
| 20260831185436 | 67 | 250 | 2.6 | 6.1 | 0.00 | 0.14 | 0.14 | 58 | 1017.5 |
| 20260831185343 | 67 | 248 | 3.5 | 6.1 | 0.00 | 0.14 | 0.14 | 57 | 1017.4 |
| 20260831185328 | 67 | 266 | 3.5 | 6.1 | 0.00 | 0.14 | 0.14 | 57 | 1017.4 |
| 20260831185234 | 67 | 267 | 3.5 | 6.1 | 0.00 | 0.14 | 0.14 | 58 | 1017.5 |
| 20260831185132 | 67 | 266 | 3.5 | 6.1 | 0.00 | 0.14 | 0.14 | 58 | 1017.5 |
| 20260831185052 | 68 | 248 | 3.5 | 6.1 | 0.00 | 0.14 | 0.14 | 58 | 1017.4 |
| 20260831185044 | 68 | 269 | 2.6 | 6.1 | 0.00 | 0.14 | 0.14 | 57 | 1017.4 |
| 20260831185040 | 68 | 273 | 3.5 | 6.1 | 0.00 | 0.14 | 0.14 | 57 | 1017.4 |
| 20260831184732 | 68 | 251 | 3.5 | 6.1 | 0.00 | 0.14 | 0.14 | 57 | 1017.4 |
| 20260831184632 | 68 | 252 | 3.5 | 5.2 | 0.00 | 0.14 | 0.14 | 57 | 1017.3 |
| 20260831184532 | 68 | 250 | 2.6 | 5.2 | 0.00 | 0.14 | 0.14 | 57 | 1017.3 |
| 20260831184432 | 68 | 263 | 2.6 | 6.1 | 0.00 | 0.14 | 0.14 | 57 | 1017.3 |
| 20260831184329 | 68 | 270 | 2.6 | 6.1 | 0.00 | 0.14 | 0.14 | 57 | 1017.2 |
| 20260831184231 | 68 | 273 | 2.6 | 6.1 | 0.00 | 0.14 | 0.14 | 57 | 1017.2 |
| 20260831184130 | 68 | 253 | 2.6 | 6.1 | 0.00 | 0.14 | 0.14 | 56 | 1017.2 |
| 20260831184029 | 68 | 261 | 2.6 | 6.1 | 0.00 | 0.14 | 0.14 | 57 | 1017.2 |
| 20260831183929 | 68 | 271 | 3.5 | 7.0 | 0.00 | 0.14 | 0.14 | 57 | 1017.1 |
| 20260831183830 | 68 | 259 | 3.5 | 7.0 | 0.00 | 0.14 | 0.14 | 56 | 1017.1 |
| 20260831183730 | 68 | 265 | 3.5 | 7.0 | 0.00 | 0.14 | 0.14 | 56 | 1017.0 |
| 20260831183630 | 68 | 246 | 3.5 | 7.0 | 0.00 | 0.14 | 0.14 | 56 | 1017.0 |
| 20260831183529 | 68 | 242 | 3.5 | 7.0 | 0.00 | 0.14 | 0.14 | 56 | 1017.0 |
| 20260831183429 | 68 | 265 | 4.3 | 7.0 | 0.00 | 0.14 | 0.14 | 56 | 1017.0 |
| 20260831183329 | 68 | 274 | 4.3 | 7.0 | 0.00 | 0.14 | 0.14 | 56 | 1017.0 |
| 20260831183229 | 68 | 267 | 4.3 | 7.0 | 0.00 | 0.14 | 0.14 | 56 | 1016.9 |
| 20260831183129 | 68 | 276 | 4.3 | 7.0 | 0.00 | 0.14 | 0.14 | 56 | 1016.9 |
| 20260831183029 | 68 | 246 | 4.3 | 7.8 | 0.00 | 0.14 | 0.14 | 56 | 1016.8 |
| 20260831182929 | 68 | 263 | 4.3 | 7.8 | 0.00 | 0.14 | 0.14 | 56 | 1016.8 |
| 20260831182829 | 68 | 269 | 4.3 | 7.8 | 0.00 | 0.14 | 0.14 | 56 | 1016.8 |
| 20260831182729 | 68 | 260 | 4.3 | 7.8 | 0.00 | 0.14 | 0.14 | 56 | 1016.8 |
| 20260831182630 | 68 | 251 | 4.3 | 7.8 | 0.00 | 0.14 | 0.14 | 56 | 1016.8 |
| 20260831182529 | 68 | 288 | 4.3 | 7.8 | 0.00 | 0.14 | 0.14 | 56 | 1016.7 |
| 20260831182429 | 69 | 250 | 4.3 | 7.8 | 0.00 | 0.14 | 0.14 | 56 | 1016.8 |
| 20260831182330 | 69 | 261 | 4.3 | 7.8 | 0.00 | 0.14 | 0.14 | 55 | 1016.7 |
| 20260831182229 | 69 | 231 | 4.3 | 7.8 | 0.00 | 0.14 | 0.14 | 55 | 1016.7 |
| 20260831182129 | 69 | 246 | 4.3 | 7.8 | 0.00 | 0.14 | 0.14 | 55 | 1016.7 |
| 20260831182029 | 69 | 273 | 4.3 | 7.8 | 0.00 | 0.14 | 0.14 | 55 | 1016.7 |
| 20260831181929 | 69 | 278 | 4.3 | 7.0 | 0.00 | 0.14 | 0.14 | 55 | 1016.7 |
| 20260831181829 | 69 | 250 | 3.5 | 7.0 | 0.00 | 0.14 | 0.14 | 55 | 1016.6 |
| 20260831181729 | 69 | 247 | 3.5 | 7.0 | 0.00 | 0.14 | 0.14 | 55 | 1016.7 |
| 20260831181629 | 69 | 256 | 3.5 | 7.0 | 0.00 | 0.14 | 0.14 | 55 | 1016.6 |
| 20260831181528 | 69 | 254 | 3.5 | 7.0 | 0.00 | 0.14 | 0.14 | 54 | 1016.6 |
| 20260831181425 | 69 | 243 | 3.5 | 7.0 | 0.00 | 0.14 | 0.14 | 54 | 1016.6 |
| 20260831181328 | 69 | 244 | 3.5 | 7.0 | 0.00 | 0.14 | 0.14 | 54 | 1016.6 |
| 20260831181324 | 69 | 248 | 3.5 | 7.0 | 0.00 | 0.14 | 0.14 | 54 | 1016.6 |
| 20260831181224 | 69 | 262 | 3.5 | 7.0 | 0.00 | 0.14 | 0.14 | 54 | 1016.6 |
| 20260831181124 | 69 | 254 | 3.5 | 7.0 | 0.00 | 0.14 | 0.14 | 54 | 1016.6 |
| 20260831181024 | 69 | 264 | 4.3 | 7.0 | 0.00 | 0.14 | 0.14 | 54 | 1016.6 |
| 20260831180920 | 69 | 246 | 4.3 | 6.1 | 0.00 | 0.14 | 0.14 | 54 | 1016.5 |
| 20260831180829 | 69 | 263 | 4.3 | 7.0 | 0.00 | 0.14 | 0.14 | 54 | 1016.5 |
| 20260831180818 | 69 | 264 | 4.3 | 7.0 | 0.00 | 0.14 | 0.14 | 54 | 1016.5 |
| 20260831180718 | 70 | 256 | 4.3 | 7.0 | 0.00 | 0.14 | 0.14 | 54 | 1016.5 |
| 20260831180618 | 70 | 272 | 4.3 | 7.0 | 0.00 | 0.14 | 0.14 | 54 | 1016.5 |
| 20260831180555 | 70 | 259 | 4.3 | 7.8 | 0.00 | 0.14 | 0.14 | 53 | 1016.5 |
| 20260831180550 | 70 | 259 | 4.3 | 7.0 | 0.00 | 0.14 | 0.14 | 54 | 1016.5 |
| 20260831180543 | 70 | 259 | 4.3 | 7.0 | 0.00 | 0.14 | 0.14 | 53 | 1016.5 |
| 20260831180314 | 70 | 256 | 4.3 | 7.8 | 0.00 | 0.14 | 0.14 | 53 | 1016.5 |
| 20260831180213 | 70 | 298 | 5.2 | 7.8 | 0.00 | 0.14 | 0.14 | 53 | 1016.4 |
| 20260831180114 | 70 | 248 | 5.2 | 7.8 | 0.00 | 0.14 | 0.14 | 53 | 1016.5 |
| 20260831180053 | 70 | 244 | 5.2 | 10.4 | 0.00 | 0.14 | 0.14 | 52 | 1016.4 |
| 20260831180048 | 70 | 286 | 5.2 | 7.8 | 0.00 | 0.14 | 0.14 | 52 | 1016.4 |
| 20260831180039 | 70 | 257 | 5.2 | 7.8 | 0.00 | 0.14 | 0.14 | 52 | 1016.4 |
| 20260831175810 | 70 | 270 | 5.2 | 10.4 | 0.00 | 0.14 | 0.14 | 52 | 1016.4 |
| 20260831175710 | 70 | 261 | 6.1 | 10.4 | 0.00 | 0.14 | 0.14 | 52 | 1016.4 |
| 20260831175608 | 70 | 273 | 6.1 | 10.4 | 0.00 | 0.14 | 0.14 | 52 | 1016.4 |
| 20260831175506 | 70 | 268 | 6.1 | 10.4 | 0.00 | 0.14 | 0.14 | 52 | 1016.4 |
| 20260831175402 | 70 | 244 | 6.1 | 10.4 | 0.00 | 0.14 | 0.14 | 52 | 1016.4 |
| 20260831175324 | 70 | 245 | 6.1 | 10.4 | 0.00 | 0.14 | 0.14 | 52 | 1016.4 |
| 20260831175302 | 70 | 273 | 6.1 | 10.4 | 0.00 | 0.14 | 0.14 | 52 | 1016.4 |
| 20260831175201 | 70 | 265 | 6.1 | 10.4 | 0.00 | 0.14 | 0.14 | 52 | 1016.4 |
| 20260831175101 | 70 | 244 | 6.1 | 10.4 | 0.00 | 0.14 | 0.14 | 52 | 1016.3 |
| 20260831175003 | 71 | 274 | 6.1 | 10.4 | 0.00 | 0.14 | 0.14 | 52 | 1016.3 |
| 20260831174902 | 71 | 260 | 6.1 | 10.4 | 0.00 | 0.14 | 0.14 | 51 | 1016.3 |
| 20260831174817 | 71 | 265 | 6.1 | 10.4 | 0.00 | 0.14 | 0.14 | 51 | 1016.3 |
| 20260831174802 | 71 | 261 | 6.1 | 10.4 | 0.00 | 0.14 | 0.14 | 51 | 1016.3 |
| 20260831174702 | 71 | 238 | 6.1 | 10.4 | 0.00 | 0.14 | 0.14 | 51 | 1016.3 |
| 20260831174602 | 71 | 257 | 6.1 | 10.4 | 0.00 | 0.14 | 0.14 | 51 | 1016.2 |
| 20260831174536 | 71 | 267 | 6.1 | 10.4 | 0.00 | 0.14 | 0.14 | 51 | 1016.2 |
| 20260831174530 | 71 | 269 | 6.1 | 10.4 | 0.00 | 0.14 | 0.14 | 51 | 1016.2 |
| 20260831174522 | 71 | 268 | 6.1 | 10.4 | 0.00 | 0.14 | 0.14 | 51 | 1016.1 |
| 20260831174302 | 71 | 288 | 6.1 | 10.4 | 0.00 | 0.14 | 0.14 | 51 | 1016.2 |
| 20260831174202 | 71 | 274 | 6.1 | 10.4 | 0.00 | 0.14 | 0.14 | 51 | 1016.1 |
| 20260831174102 | 71 | 273 | 6.1 | 11.3 | 0.00 | 0.14 | 0.14 | 51 | 1016.1 |
| 20260831174002 | 71 | 232 | 7.0 | 11.3 | 0.00 | 0.14 | 0.14 | 51 | 1016.1 |
| 20260831173902 | 71 | 240 | 7.0 | 11.3 | 0.00 | 0.14 | 0.14 | 50 | 1016.1 |
| 20260831173813 | 71 | 242 | 7.0 | 11.3 | 0.00 | 0.14 | 0.14 | 50 | 1016.0 |
| 20260831173801 | 71 | 254 | 7.0 | 11.3 | 0.00 | 0.14 | 0.14 | 50 | 1016.0 |
| 20260831173700 | 71 | 274 | 7.0 | 11.3 | 0.00 | 0.14 | 0.14 | 51 | 1016.0 |
| 20260831173600 | 71 | 280 | 7.0 | 11.3 | 0.00 | 0.14 | 0.14 | 50 | 1016.1 |
| 20260831173501 | 71 | 252 | 7.0 | 11.3 | 0.00 | 0.14 | 0.14 | 50 | 1016.1 |
| 20260831173400 | 71 | 252 | 7.0 | 11.3 | 0.00 | 0.14 | 0.14 | 49 | 1016.0 |
| 20260831173312 | 71 | 265 | 7.0 | 11.3 | 0.00 | 0.14 | 0.14 | 50 | 1016.0 |
| 20260831173300 | 71 | 258 | 7.0 | 11.3 | 0.00 | 0.14 | 0.14 | 50 | 1016.0 |
| 20260831173155 | 71 | 244 | 7.0 | 11.3 | 0.00 | 0.14 | 0.14 | 50 | 1016.1 |
| 20260831173055 | 71 | 261 | 7.0 | 11.3 | 0.00 | 0.14 | 0.14 | 50 | 1016.0 |
| 20260831173035 | 72 | 242 | 6.1 | 11.3 | 0.00 | 0.14 | 0.14 | 50 | 1016.0 |
| 20260831173031 | 72 | 272 | 7.0 | 11.3 | 0.00 | 0.14 | 0.14 | 50 | 1016.0 |
| 20260831173023 | 72 | 265 | 6.1 | 11.3 | 0.00 | 0.14 | 0.14 | 50 | 1016.0 |
| 20260831172754 | 72 | 291 | 6.1 | 11.3 | 0.00 | 0.14 | 0.14 | 50 | 1016.0 |
| 20260831172649 | 72 | 243 | 6.1 | 11.3 | 0.00 | 0.14 | 0.14 | 50 | 1016.0 |
| 20260831172550 | 72 | 284 | 6.1 | 11.3 | 0.00 | 0.14 | 0.14 | 50 | 1016.0 |
| 20260831172535 | 72 | 256 | 6.1 | 10.4 | 0.00 | 0.14 | 0.14 | 49 | 1015.8 |
| 20260831172530 | 72 | 271 | 6.1 | 10.4 | 0.00 | 0.14 | 0.14 | 50 | 1016.0 |
| 20260831172522 | 72 | 236 | 6.1 | 10.4 | 0.00 | 0.14 | 0.14 | 50 | 1016.0 |
| 20260831172247 | 72 | 262 | 6.1 | 10.4 | 0.00 | 0.14 | 0.14 | 49 | 1015.8 |
| 20260831172146 | 72 | 264 | 6.1 | 10.4 | 0.00 | 0.14 | 0.14 | 48 | 1015.8 |
| 20260831172046 | 72 | 265 | 6.1 | 10.4 | 0.00 | 0.14 | 0.14 | 49 | 1015.8 |
| 20260831171946 | 72 | 264 | 6.1 | 10.4 | 0.00 | 0.14 | 0.14 | 48 | 1015.8 |
| 20260831171844 | 72 | 248 | 7.0 | 10.4 | 0.00 | 0.14 | 0.14 | 48 | 1015.8 |
| 20260831171812 | 72 | 242 | 7.0 | 11.3 | 0.00 | 0.14 | 0.14 | 48 | 1015.8 |
| 20260831171741 | 72 | 255 | 7.0 | 11.3 | 0.00 | 0.14 | 0.14 | 48 | 1015.8 |
| 20260831171636 | 72 | 275 | 7.0 | 11.3 | 0.00 | 0.14 | 0.14 | 48 | 1015.8 |
| 20260831171536 | 72 | 246 | 6.1 | 11.3 | 0.00 | 0.14 | 0.14 | 48 | 1015.8 |
| 20260831171440 | 72 | 275 | 6.1 | 11.3 | 0.00 | 0.14 | 0.14 | 48 | 1015.7 |
| 20260831171336 | 73 | 263 | 6.1 | 11.3 | 0.00 | 0.14 | 0.14 | 48 | 1015.8 |
| 20260831171312 | 73 | 237 | 6.1 | 11.3 | 0.00 | 0.14 | 0.14 | 48 | 1015.8 |
| 20260831171236 | 73 | 246 | 6.1 | 11.3 | 0.00 | 0.14 | 0.14 | 47 | 1015.8 |
| 20260831171130 | 73 | 265 | 6.1 | 11.3 | 0.00 | 0.14 | 0.14 | 47 | 1015.8 |
| 20260831171030 | 73 | 311 | 6.1 | 11.3 | 0.00 | 0.14 | 0.14 | 47 | 1015.7 |
| 20260831170929 | 73 | 283 | 6.1 | 11.3 | 0.00 | 0.14 | 0.14 | 48 | 1015.7 |
| 20260831170830 | 73 | 263 | 5.2 | 11.3 | 0.00 | 0.14 | 0.14 | 47 | 1015.7 |
| 20260831170812 | 73 | 259 | 5.2 | 11.3 | 0.00 | 0.14 | 0.14 | 47 | 1015.7 |
| 20260831170730 | 73 | 260 | 5.2 | 12.2 | 0.00 | 0.14 | 0.14 | 47 | 1015.7 |
| 20260831170623 | 73 | 242 | 6.1 | 12.2 | 0.00 | 0.14 | 0.14 | 47 | 1015.7 |
| 20260831170524 | 73 | 275 | 6.1 | 12.2 | 0.00 | 0.14 | 0.14 | 47 | 1015.7 |
| 20260831170423 | 73 | 265 | 6.1 | 12.2 | 0.00 | 0.14 | 0.14 | 47 | 1015.7 |
| 20260831170324 | 73 | 252 | 7.0 | 12.2 | 0.00 | 0.14 | 0.14 | 47 | 1015.7 |
| 20260831170312 | 73 | 234 | 7.0 | 12.2 | 0.00 | 0.14 | 0.14 | 47 | 1015.7 |
| 20260831170223 | 73 | 271 | 7.0 | 12.2 | 0.00 | 0.14 | 0.14 | 46 | 1015.7 |
| 20260831170120 | 73 | 281 | 7.0 | 12.2 | 0.00 | 0.14 | 0.14 | 46 | 1015.7 |
| 20260831170020 | 73 | 269 | 7.0 | 12.2 | 0.00 | 0.14 | 0.14 | 46 | 1015.6 |
| 20260831165920 | 73 | 273 | 7.0 | 12.2 | 0.00 | 0.14 | 0.14 | 46 | 1015.7 |
| 20260831165820 | 73 | 263 | 7.0 | 12.2 | 0.00 | 0.14 | 0.14 | 46 | 1015.7 |
| 20260831165812 | 73 | 233 | 7.0 | 12.2 | 0.00 | 0.14 | 0.14 | 46 | 1015.7 |
| 20260831165717 | 73 | 267 | 7.0 | 11.3 | 0.00 | 0.14 | 0.14 | 46 | 1015.6 |
| 20260831165613 | 73 | 248 | 7.0 | 11.3 | 0.00 | 0.14 | 0.14 | 45 | 1015.7 |
| 20260831165539 | 73 | 254 | 7.0 | 13.0 | 0.00 | 0.14 | 0.14 | 46 | 1015.6 |
| 20260831165533 | 73 | 255 | 7.0 | 10.4 | 0.00 | 0.14 | 0.14 | 46 | 1015.7 |
| 20260831165526 | 73 | 315 | 7.0 | 13.0 | 0.00 | 0.14 | 0.14 | 46 | 1015.7 |
| 20260831165522 | 73 | 247 | 7.0 | 13.0 | 0.00 | 0.14 | 0.14 | 46 | 1015.6 |
| 20260831165212 | 73 | 269 | 7.0 | 13.0 | 0.00 | 0.14 | 0.14 | 46 | 1015.6 |
| 20260831165107 | 73 | 243 | 7.0 | 13.0 | 0.00 | 0.14 | 0.14 | 46 | 1015.7 |
| 20260831165007 | 73 | 262 | 7.0 | 13.0 | 0.00 | 0.14 | 0.14 | 46 | 1015.6 |
| 20260831164908 | 73 | 281 | 7.8 | 13.0 | 0.00 | 0.14 | 0.14 | 46 | 1015.6 |
| 20260831164807 | 73 | 236 | 7.8 | 13.0 | 0.00 | 0.14 | 0.14 | 45 | 1015.6 |
| 20260831164705 | 73 | 283 | 7.8 | 13.0 | 0.00 | 0.14 | 0.14 | 45 | 1015.5 |
| 20260831164604 | 73 | 268 | 7.8 | 13.0 | 0.00 | 0.14 | 0.14 | 44 | 1015.6 |
| 20260831164504 | 73 | 277 | 7.8 | 13.0 | 0.00 | 0.14 | 0.14 | 44 | 1015.7 |
| 20260831164403 | 74 | 257 | 7.8 | 13.0 | 0.00 | 0.14 | 0.14 | 44 | 1015.6 |
| 20260831164308 | 74 | 253 | 7.8 | 13.0 | 0.00 | 0.14 | 0.14 | 44 | 1015.6 |
| 20260831164302 | 73 | 259 | 7.8 | 13.0 | 0.00 | 0.14 | 0.14 | 44 | 1015.6 |
| 20260831164202 | 74 | 238 | 8.7 | 13.0 | 0.00 | 0.14 | 0.14 | 44 | 1015.6 |
| 20260831164102 | 74 | 265 | 8.7 | 15.6 | 0.00 | 0.14 | 0.14 | 43 | 1015.7 |
| 20260831164002 | 74 | 251 | 8.7 | 15.6 | 0.00 | 0.14 | 0.14 | 43 | 1015.6 |
| 20260831163902 | 74 | 256 | 8.7 | 15.6 | 0.00 | 0.14 | 0.14 | 43 | 1015.6 |
| 20260831163808 | 74 | 250 | 8.7 | 15.6 | 0.00 | 0.14 | 0.14 | 43 | 1015.6 |
| 20260831163800 | 74 | 248 | 8.7 | 15.6 | 0.00 | 0.14 | 0.14 | 43 | 1015.6 |
| 20260831163659 | 74 | 267 | 8.7 | 15.6 | 0.00 | 0.14 | 0.14 | 42 | 1015.6 |
| 20260831163559 | 74 | 278 | 9.6 | 15.6 | 0.00 | 0.14 | 0.14 | 43 | 1015.6 |
| 20260831163459 | 74 | 267 | 9.6 | 15.6 | 0.00 | 0.14 | 0.14 | 42 | 1015.6 |
| 20260831163359 | 74 | 260 | 9.6 | 15.6 | 0.00 | 0.14 | 0.14 | 42 | 1015.6 |
| 20260831163307 | 74 | 263 | 9.6 | 15.6 | 0.00 | 0.14 | 0.14 | 42 | 1015.6 |
| 20260831163258 | 74 | 279 | 9.6 | 15.6 | 0.00 | 0.14 | 0.14 | 42 | 1015.6 |
| 20260831163158 | 74 | 293 | 8.7 | 15.6 | 0.00 | 0.14 | 0.14 | 42 | 1015.7 |
| 20260831163058 | 74 | 285 | 8.7 | 14.8 | 0.00 | 0.14 | 0.14 | 42 | 1015.7 |
| 20260831162958 | 74 | 250 | 7.8 | 14.8 | 0.00 | 0.14 | 0.14 | 42 | 1015.6 |
| 20260831162858 | 74 | 219 | 7.8 | 14.8 | 0.00 | 0.14 | 0.14 | 43 | 1015.6 |
| 20260831162808 | 74 | 298 | 7.8 | 14.8 | 0.00 | 0.14 | 0.14 | 42 | 1015.5 |
| 20260831162758 | 74 | 248 | 7.8 | 14.8 | 0.00 | 0.14 | 0.14 | 42 | 1015.5 |
| 20260831162658 | 74 | 271 | 7.8 | 14.8 | 0.00 | 0.14 | 0.14 | 42 | 1015.6 |
| 20260831162557 | 74 | 247 | 7.0 | 14.8 | 0.00 | 0.14 | 0.14 | 43 | 1015.6 |
| 20260831162457 | 74 | 267 | 7.0 | 13.0 | 0.00 | 0.14 | 0.14 | 44 | 1015.5 |
| 20260831162353 | 74 | 243 | 7.0 | 13.9 | 0.00 | 0.14 | 0.14 | 44 | 1015.5 |
| 20260831162308 | 74 | 253 | 7.0 | 13.9 | 0.00 | 0.14 | 0.14 | 44 | 1015.5 |
| 20260831162251 | 74 | 250 | 7.0 | 13.9 | 0.00 | 0.14 | 0.14 | 44 | 1015.5 |
| 20260831162151 | 74 | 249 | 7.8 | 13.9 | 0.00 | 0.14 | 0.14 | 43 | 1015.5 |
| 20260831162052 | 74 | 270 | 7.8 | 13.9 | 0.00 | 0.14 | 0.14 | 44 | 1015.6 |
| 20260831161952 | 74 | 252 | 7.8 | 13.9 | 0.00 | 0.14 | 0.14 | 43 | 1015.6 |
| 20260831161851 | 74 | 257 | 7.8 | 13.9 | 0.00 | 0.14 | 0.14 | 43 | 1015.6 |
| 20260831161807 | 74 | 281 | 8.7 | 13.9 | 0.00 | 0.14 | 0.14 | 42 | 1015.6 |
| 20260831161750 | 74 | 230 | 8.7 | 13.9 | 0.00 | 0.14 | 0.14 | 42 | 1015.6 |
| 20260831161650 | 74 | 283 | 8.7 | 13.9 | 0.00 | 0.14 | 0.14 | 42 | 1015.6 |
| 20260831161550 | 74 | 284 | 8.7 | 13.9 | 0.00 | 0.14 | 0.14 | 42 | 1015.5 |
| 20260831161450 | 74 | 298 | 8.7 | 13.9 | 0.00 | 0.14 | 0.14 | 42 | 1015.6 |
| 20260831161350 | 74 | 269 | 9.6 | 17.4 | 0.00 | 0.14 | 0.14 | 42 | 1015.6 |
| 20260831161304 | 74 | 274 | 9.6 | 17.4 | 0.00 | 0.14 | 0.14 | 41 | 1015.6 |
| 20260831161249 | 74 | 263 | 9.6 | 17.4 | 0.00 | 0.14 | 0.14 | 41 | 1015.6 |
| 20260831161147 | 74 | 262 | 8.7 | 17.4 | 0.00 | 0.14 | 0.14 | 42 | 1015.6 |
| 20260831161049 | 74 | 273 | 9.6 | 17.4 | 0.00 | 0.14 | 0.14 | 42 | 1015.6 |
| 20260831160948 | 74 | 267 | 9.6 | 17.4 | 0.00 | 0.14 | 0.14 | 42 | 1015.6 |
| 20260831160848 | 74 | 239 | 9.6 | 17.4 | 0.00 | 0.14 | 0.14 | 41 | 1015.6 |
| 20260831160803 | 74 | 254 | 9.6 | 17.4 | 0.00 | 0.14 | 0.14 | 41 | 1015.6 |
| 20260831160748 | 74 | 262 | 9.6 | 17.4 | 0.00 | 0.14 | 0.14 | 41 | 1015.6 |
| 20260831160646 | 74 | 273 | 9.6 | 17.4 | 0.00 | 0.14 | 0.14 | 41 | 1015.6 |
| 20260831160546 | 74 | 262 | 9.6 | 17.4 | 0.00 | 0.14 | 0.14 | 41 | 1015.6 |
| 20260831160447 | 74 | 286 | 9.6 | 17.4 | 0.00 | 0.14 | 0.14 | 41 | 1015.6 |
| 20260831160346 | 74 | 288 | 9.6 | 15.6 | 0.00 | 0.14 | 0.14 | 41 | 1015.6 |
| 20260831160304 | 74 | 258 | 10.4 | 16.5 | 0.00 | 0.14 | 0.14 | 41 | 1015.5 |
| 20260831160245 | 74 | 252 | 10.4 | 16.5 | 0.00 | 0.14 | 0.14 | 41 | 1015.5 |
| 20260831160139 | 74 | 263 | 10.4 | 16.5 | 0.00 | 0.14 | 0.14 | 41 | 1015.5 |
| 20260831160040 | 74 | 277 | 10.4 | 16.5 | 0.00 | 0.14 | 0.14 | 41 | 1015.7 |
| 20260831155940 | 74 | 234 | 10.4 | 16.5 | 0.00 | 0.14 | 0.14 | 41 | 1015.6 |
| 20260831155839 | 74 | 258 | 10.4 | 16.5 | 0.00 | 0.14 | 0.14 | 41 | 1015.5 |
| 20260831155803 | 74 | 296 | 10.4 | 16.5 | 0.00 | 0.14 | 0.14 | 41 | 1015.5 |
| 20260831155740 | 74 | 229 | 10.4 | 16.5 | 0.00 | 0.14 | 0.14 | 41 | 1015.5 |
| 20260831155634 | 74 | 259 | 9.6 | 16.5 | 0.00 | 0.14 | 0.14 | 41 | 1015.5 |
| 20260831155533 | 74 | 271 | 9.6 | 16.5 | 0.00 | 0.14 | 0.14 | 40 | 1015.5 |
| 20260831155433 | 74 | 257 | 9.6 | 16.5 | 0.00 | 0.14 | 0.14 | 39 | 1015.6 |
| 20260831155334 | 74 | 280 | 8.7 | 14.8 | 0.00 | 0.14 | 0.14 | 40 | 1015.4 |
| 20260831155306 | 74 | 261 | 8.7 | 14.8 | 0.00 | 0.14 | 0.14 | 40 | 1015.6 |
| 20260831155233 | 74 | 268 | 8.7 | 14.8 | 0.00 | 0.14 | 0.14 | 41 | 1015.6 |
| 20260831155133 | 75 | 259 | 8.7 | 13.9 | 0.00 | 0.14 | 0.14 | 40 | 1015.5 |
| 20260831155033 | 75 | 248 | 8.7 | 13.9 | 0.00 | 0.14 | 0.14 | 41 | 1015.5 |
| 20260831154932 | 75 | 298 | 8.7 | 13.9 | 0.00 | 0.14 | 0.14 | 40 | 1015.4 |
| 20260831154831 | 75 | 265 | 7.8 | 13.9 | 0.00 | 0.14 | 0.14 | 41 | 1015.5 |
| 20260831154804 | 75 | 257 | 7.8 | 13.9 | 0.00 | 0.14 | 0.14 | 41 | 1015.4 |
| 20260831154732 | 74 | 282 | 7.8 | 13.9 | 0.00 | 0.14 | 0.14 | 41 | 1015.4 |
| 20260831154632 | 75 | 263 | 7.8 | 13.9 | 0.00 | 0.14 | 0.14 | 41 | 1015.3 |
| 20260831154532 | 75 | 270 | 7.8 | 13.0 | 0.00 | 0.14 | 0.14 | 41 | 1015.3 |
| 20260831154430 | 75 | 252 | 7.8 | 13.0 | 0.00 | 0.14 | 0.14 | 41 | 1015.4 |
| 20260831154330 | 75 | 253 | 7.8 | 13.0 | 0.00 | 0.14 | 0.14 | 40 | 1015.4 |
| 20260831154303 | 75 | 265 | 7.8 | 13.0 | 0.00 | 0.14 | 0.14 | 42 | 1015.4 |
| 20260831154230 | 75 | 268 | 7.8 | 13.0 | 0.00 | 0.14 | 0.14 | 42 | 1015.4 |
| 20260831154130 | 75 | 248 | 7.0 | 13.0 | 0.00 | 0.14 | 0.14 | 43 | 1015.4 |
| 20260831154029 | 75 | 276 | 7.0 | 13.0 | 0.00 | 0.14 | 0.14 | 43 | 1015.4 |
| 20260831153925 | 75 | 267 | 7.0 | 13.0 | 0.00 | 0.14 | 0.14 | 44 | 1015.4 |
| 20260831153825 | 75 | 299 | 7.0 | 13.0 | 0.00 | 0.14 | 0.14 | 45 | 1015.4 |
| 20260831153804 | 75 | 250 | 7.0 | 13.0 | 0.00 | 0.14 | 0.14 | 44 | 1015.4 |
| 20260831153725 | 75 | 257 | 7.0 | 13.0 | 0.00 | 0.14 | 0.14 | 44 | 1015.4 |
| 20260831153626 | 75 | 263 | 7.0 | 13.0 | 0.00 | 0.14 | 0.14 | 44 | 1015.4 |
| 20260831153535 | 75 | 282 | 7.0 | 12.2 | 0.00 | 0.14 | 0.14 | 44 | 1015.4 |
| 20260831153529 | 75 | 223 | 7.0 | 12.2 | 0.00 | 0.14 | 0.14 | 45 | 1015.4 |
| 20260831153525 | 75 | 243 | 7.0 | 12.2 | 0.00 | 0.14 | 0.14 | 43 | 1015.4 |
| 20260831153517 | 75 | 254 | 7.0 | 12.2 | 0.00 | 0.14 | 0.14 | 44 | 1015.4 |
| 20260831153223 | 75 | 229 | 7.0 | 12.2 | 0.00 | 0.14 | 0.14 | 44 | 1015.4 |
| 20260831153124 | 75 | 253 | 7.8 | 13.0 | 0.00 | 0.14 | 0.14 | 45 | 1015.4 |
| 20260831153024 | 75 | 230 | 7.8 | 13.0 | 0.00 | 0.14 | 0.14 | 44 | 1015.4 |
| 20260831152924 | 75 | 268 | 7.8 | 13.0 | 0.00 | 0.14 | 0.14 | 44 | 1015.4 |
| 20260831152823 | 75 | 210 | 7.8 | 13.0 | 0.00 | 0.14 | 0.14 | 45 | 1015.4 |
| 20260831152802 | 75 | 275 | 8.7 | 20.9 | 0.00 | 0.14 | 0.14 | 45 | 1015.4 |
| 20260831152724 | 75 | 237 | 8.7 | 20.9 | 0.00 | 0.14 | 0.14 | 44 | 1015.4 |
| 20260831152624 | 75 | 225 | 8.7 | 20.9 | 0.00 | 0.14 | 0.14 | 43 | 1015.5 |
| 20260831152524 | 75 | 254 | 8.7 | 20.9 | 0.00 | 0.14 | 0.14 | 42 | 1015.4 |
| 20260831152424 | 75 | 278 | 8.7 | 20.9 | 0.00 | 0.14 | 0.14 | 42 | 1015.4 |
| 20260831152324 | 75 | 246 | 8.7 | 20.9 | 0.00 | 0.14 | 0.14 | 41 | 1015.5 |
| 20260831152301 | 75 | 254 | 8.7 | 20.9 | 0.00 | 0.14 | 0.14 | 41 | 1015.5 |
| 20260831152220 | 75 | 267 | 9.6 | 20.9 | 0.00 | 0.14 | 0.14 | 41 | 1015.5 |
| 20260831152120 | 75 | 273 | 9.6 | 20.9 | 0.00 | 0.14 | 0.14 | 42 | 1015.5 |
| 20260831152019 | 75 | 281 | 9.6 | 20.9 | 0.00 | 0.14 | 0.14 | 42 | 1015.4 |
| 20260831151919 | 75 | 280 | 9.6 | 20.9 | 0.00 | 0.14 | 0.14 | 42 | 1015.6 |
| 20260831151820 | 75 | 245 | 8.7 | 20.9 | 0.00 | 0.14 | 0.14 | 43 | 1015.5 |
| 20260831151801 | 75 | 211 | 8.7 | 18.2 | 0.00 | 0.14 | 0.14 | 43 | 1015.5 |
| 20260831151719 | 75 | 266 | 9.6 | 18.2 | 0.00 | 0.14 | 0.14 | 42 | 1015.6 |
| 20260831151619 | 75 | 255 | 9.6 | 18.2 | 0.00 | 0.14 | 0.14 | 41 | 1015.5 |
| 20260831151519 | 75 | 259 | 9.6 | 18.2 | 0.00 | 0.14 | 0.14 | 43 | 1015.5 |
| 20260831151419 | 75 | 240 | 9.6 | 18.2 | 0.00 | 0.14 | 0.14 | 42 | 1015.5 |
| 20260831151320 | 75 | 257 | 9.6 | 18.2 | 0.00 | 0.14 | 0.14 | 43 | 1015.6 |
| 20260831151302 | 75 | 265 | 9.6 | 18.2 | 0.00 | 0.14 | 0.14 | 43 | 1015.6 |
| 20260831151218 | 75 | 254 | 8.7 | 15.6 | 0.00 | 0.14 | 0.14 | 43 | 1015.7 |
| 20260831151118 | 75 | 274 | 8.7 | 14.8 | 0.00 | 0.14 | 0.14 | 43 | 1015.7 |
| 20260831151011 | 75 | 299 | 8.7 | 13.9 | 0.00 | 0.14 | 0.14 | 44 | 1015.5 |
| 20260831150911 | 75 | 257 | 8.7 | 13.9 | 0.00 | 0.14 | 0.14 | 43 | 1015.6 |
| 20260831150811 | 75 | 257 | 8.7 | 15.6 | 0.00 | 0.14 | 0.14 | 43 | 1015.6 |
| 20260831150801 | 75 | 273 | 8.7 | 15.6 | 0.00 | 0.14 | 0.14 | 43 | 1015.6 |
| 20260831150712 | 75 | 269 | 8.7 | 15.6 | 0.00 | 0.14 | 0.14 | 43 | 1015.6 |
| 20260831150612 | 75 | 244 | 9.6 | 15.6 | 0.00 | 0.14 | 0.14 | 44 | 1015.5 |
| 20260831150512 | 75 | 244 | 9.6 | 15.6 | 0.00 | 0.14 | 0.14 | 44 | 1015.5 |
| 20260831150412 | 75 | 264 | 9.6 | 15.6 | 0.00 | 0.14 | 0.14 | 42 | 1015.5 |
| 20260831150312 | 75 | 259 | 9.6 | 15.6 | 0.00 | 0.14 | 0.14 | 43 | 1015.5 |
| 20260831150301 | 75 | 276 | 9.6 | 15.6 | 0.00 | 0.14 | 0.14 | 43 | 1015.5 |
| 20260831150212 | 75 | 252 | 8.7 | 15.6 | 0.00 | 0.14 | 0.14 | 42 | 1015.5 |
| 20260831150112 | 75 | 259 | 8.7 | 15.6 | 0.00 | 0.14 | 0.14 | 42 | 1015.5 |
| 20260831150029 | 75 | 252 | 8.7 | 15.6 | 0.00 | 0.14 | 0.14 | 41 | 1015.6 |
| 20260831150025 | 75 | 240 | 8.7 | 15.6 | 0.00 | 0.14 | 0.14 | 42 | 1015.6 |
| 20260831150021 | 75 | 263 | 8.7 | 15.6 | 0.00 | 0.14 | 0.14 | 42 | 1015.6 |
| 20260831150012 | 75 | 261 | 8.7 | 15.6 | 0.00 | 0.14 | 0.14 | 41 | 1015.6 |
| 20260831145708 | 75 | 202 | 8.7 | 15.6 | 0.00 | 0.14 | 0.14 | 41 | 1015.7 |
| 20260831145608 | 75 | 247 | 7.8 | 15.6 | 0.00 | 0.14 | 0.14 | 42 | 1015.8 |
| 20260831145507 | 76 | 248 | 7.8 | 15.6 | 0.00 | 0.14 | 0.14 | 42 | 1015.6 |
| 20260831145407 | 76 | 271 | 7.0 | 15.6 | 0.00 | 0.14 | 0.14 | 43 | 1015.7 |
| 20260831145307 | 76 | 277 | 7.0 | 15.6 | 0.00 | 0.14 | 0.14 | 45 | 1015.6 |
| 20260831145300 | 76 | 236 | 7.0 | 15.6 | 0.00 | 0.14 | 0.14 | 44 | 1015.6 |
| 20260831145207 | 76 | 272 | 7.0 | 15.6 | 0.00 | 0.14 | 0.14 | 44 | 1015.7 |
| 20260831145107 | 76 | 252 | 7.0 | 15.6 | 0.00 | 0.14 | 0.14 | 43 | 1015.7 |
| 20260831145008 | 76 | 274 | 7.8 | 15.6 | 0.00 | 0.14 | 0.14 | 44 | 1015.6 |
| 20260831144908 | 76 | 292 | 7.0 | 15.6 | 0.00 | 0.14 | 0.14 | 44 | 1015.7 |
| 20260831144808 | 76 | 261 | 7.0 | 13.0 | 0.00 | 0.14 | 0.14 | 46 | 1015.7 |
| 20260831144801 | 76 | 280 | 7.0 | 13.0 | 0.00 | 0.14 | 0.14 | 46 | 1015.7 |
| 20260831144708 | 76 | 242 | 7.0 | 13.0 | 0.00 | 0.14 | 0.14 | 45 | 1015.6 |
| 20260831144608 | 76 | 263 | 7.0 | 13.0 | 0.00 | 0.14 | 0.14 | 47 | 1015.6 |
| 20260831144530 | 76 | 273 | 7.8 | 13.0 | 0.00 | 0.14 | 0.14 | 46 | 1015.7 |
| 20260831144525 | 76 | 292 | 7.0 | 13.0 | 0.00 | 0.14 | 0.14 | 47 | 1015.6 |
| 20260831144521 | 76 | 279 | 7.8 | 13.0 | 0.00 | 0.14 | 0.14 | 47 | 1015.6 |
| 20260831144513 | 76 | 242 | 7.8 | 13.0 | 0.00 | 0.14 | 0.14 | 46 | 1015.7 |
| 20260831144207 | 76 | 288 | 7.8 | 13.0 | 0.00 | 0.14 | 0.14 | 46 | 1015.6 |
| 20260831144107 | 76 | 229 | 8.7 | 13.0 | 0.00 | 0.14 | 0.14 | 45 | 1015.6 |
| 20260831144008 | 76 | 248 | 8.7 | 13.0 | 0.00 | 0.14 | 0.14 | 46 | 1015.6 |
| 20260831143904 | 76 | 304 | 7.8 | 13.9 | 0.00 | 0.14 | 0.14 | 45 | 1015.6 |
| 20260831143805 | 76 | 288 | 7.8 | 13.9 | 0.00 | 0.14 | 0.14 | 46 | 1015.6 |
| 20260831143801 | 76 | 281 | 7.8 | 13.9 | 0.00 | 0.14 | 0.14 | 46 | 1015.6 |
| 20260831143704 | 76 | 294 | 8.7 | 13.9 | 0.00 | 0.14 | 0.14 | 46 | 1015.6 |
| 20260831143604 | 76 | 273 | 7.8 | 13.9 | 0.00 | 0.14 | 0.14 | 45 | 1015.7 |
| 20260831143503 | 76 | 227 | 8.7 | 13.9 | 0.00 | 0.14 | 0.14 | 44 | 1015.6 |
| 20260831143403 | 76 | 256 | 8.7 | 13.9 | 0.00 | 0.14 | 0.14 | 43 | 1015.6 |
| 20260831143306 | 76 | 231 | 8.7 | 13.9 | 0.00 | 0.14 | 0.14 | 44 | 1015.6 |
| 20260831143301 | 76 | 266 | 8.7 | 13.9 | 0.00 | 0.14 | 0.14 | 44 | 1015.6 |
| 20260831143203 | 77 | 261 | 8.7 | 13.9 | 0.00 | 0.14 | 0.14 | 44 | 1015.6 |
| 20260831143103 | 77 | 254 | 7.8 | 13.9 | 0.00 | 0.14 | 0.14 | 44 | 1015.7 |
| 20260831143003 | 77 | 254 | 7.8 | 13.9 | 0.00 | 0.14 | 0.14 | 44 | 1015.6 |
| 20260831142903 | 77 | 205 | 8.7 | 13.9 | 0.00 | 0.14 | 0.14 | 45 | 1015.7 |
| 20260831142805 | 77 | 280 | 7.8 | 13.9 | 0.00 | 0.14 | 0.14 | 45 | 1015.7 |
| 20260831142800 | 77 | 261 | 7.8 | 13.9 | 0.00 | 0.14 | 0.14 | 45 | 1015.7 |
| 20260831142703 | 77 | 215 | 7.8 | 13.9 | 0.00 | 0.14 | 0.14 | 45 | 1015.7 |
| 20260831142603 | 77 | 266 | 8.7 | 13.9 | 0.00 | 0.14 | 0.14 | 45 | 1015.7 |
| 20260831142503 | 76 | 261 | 7.8 | 13.9 | 0.00 | 0.14 | 0.14 | 46 | 1015.7 |
| 20260831142403 | 76 | 265 | 7.8 | 13.9 | 0.00 | 0.14 | 0.14 | 46 | 1015.7 |
| 20260831142306 | 76 | 336 | 7.8 | 13.0 | 0.00 | 0.14 | 0.14 | 45 | 1015.7 |
| 20260831142301 | 76 | 304 | 7.8 | 13.0 | 0.00 | 0.14 | 0.14 | 45 | 1015.7 |
| 20260831142203 | 76 | 284 | 7.8 | 13.0 | 0.00 | 0.14 | 0.14 | 46 | 1015.7 |
| 20260831142103 | 76 | 275 | 7.8 | 13.9 | 0.00 | 0.14 | 0.14 | 45 | 1015.7 |
| 20260831142003 | 76 | 275 | 7.8 | 13.9 | 0.00 | 0.14 | 0.14 | 45 | 1015.7 |
| 20260831141903 | 76 | 248 | 7.8 | 13.9 | 0.00 | 0.14 | 0.14 | 46 | 1015.7 |
| 20260831141805 | 76 | 218 | 7.8 | 13.9 | 0.00 | 0.14 | 0.14 | 46 | 1015.7 |
| 20260831141801 | 76 | 217 | 7.8 | 13.9 | 0.00 | 0.14 | 0.14 | 46 | 1015.7 |
| 20260831141704 | 76 | 281 | 7.8 | 13.9 | 0.00 | 0.14 | 0.14 | 46 | 1015.7 |
| 20260831141604 | 76 | 251 | 7.8 | 13.9 | 0.00 | 0.14 | 0.14 | 47 | 1015.7 |
| 20260831141502 | 76 | 260 | 7.8 | 13.9 | 0.00 | 0.14 | 0.14 | 47 | 1015.7 |
| 20260831141402 | 76 | 236 | 7.8 | 13.9 | 0.00 | 0.14 | 0.14 | 46 | 1015.7 |
| 20260831141303 | 76 | 296 | 7.8 | 13.9 | 0.00 | 0.14 | 0.14 | 46 | 1015.6 |
| 20260831141201 | 76 | 288 | 7.0 | 15.6 | 0.00 | 0.14 | 0.14 | 47 | 1015.7 |
| 20260831141101 | 76 | 296 | 7.8 | 15.6 | 0.00 | 0.14 | 0.14 | 48 | 1015.7 |
| 20260831141001 | 76 | 321 | 7.8 | 15.6 | 0.00 | 0.14 | 0.14 | 48 | 1015.7 |
| 20260831140901 | 76 | 291 | 7.8 | 15.6 | 0.00 | 0.14 | 0.14 | 47 | 1015.7 |
| 20260831140801 | 76 | 275 | 7.8 | 15.6 | 0.00 | 0.14 | 0.14 | 48 | 1015.7 |
| 20260831140701 | 76 | 334 | 7.8 | 15.6 | 0.00 | 0.14 | 0.14 | 46 | 1015.7 |
| 20260831140601 | 76 | 261 | 7.0 | 15.6 | 0.00 | 0.14 | 0.14 | 47 | 1015.7 |
| 20260831140501 | 76 | 290 | 7.8 | 15.6 | 0.00 | 0.14 | 0.14 | 46 | 1015.7 |
| 20260831140401 | 76 | 277 | 7.8 | 15.6 | 0.00 | 0.14 | 0.14 | 46 | 1015.7 |
| 20260831140301 | 76 | 289 | 7.8 | 15.6 | 0.00 | 0.14 | 0.14 | 47 | 1015.7 |
| 20260831140201 | 76 | 245 | 7.8 | 12.2 | 0.00 | 0.14 | 0.14 | 47 | 1015.7 |
| 20260831140101 | 76 | 266 | 7.8 | 13.0 | 0.00 | 0.14 | 0.14 | 48 | 1015.7 |
| 20260831140001 | 76 | 264 | 7.8 | 13.0 | 0.00 | 0.14 | 0.14 | 47 | 1015.7 |
| 20260831135900 | 76 | 267 | 7.8 | 13.0 | 0.00 | 0.14 | 0.14 | 47 | 1015.7 |
| 20260831135800 | 76 | 259 | 7.8 | 13.0 | 0.00 | 0.14 | 0.14 | 48 | 1015.7 |
| 20260831135700 | 76 | 250 | 8.7 | 17.4 | 0.00 | 0.14 | 0.14 | 49 | 1015.6 |
| 20260831135600 | 76 | 221 | 8.7 | 17.4 | 0.00 | 0.14 | 0.14 | 47 | 1015.6 |
| 20260831135501 | 76 | 271 | 8.7 | 17.4 | 0.00 | 0.14 | 0.14 | 46 | 1015.6 |
| 20260831135401 | 76 | 294 | 8.7 | 17.4 | 0.00 | 0.14 | 0.14 | 46 | 1015.7 |
| 20260831135301 | 76 | 295 | 8.7 | 17.4 | 0.00 | 0.14 | 0.14 | 47 | 1015.6 |
| 20260831135201 | 76 | 294 | 8.7 | 17.4 | 0.00 | 0.14 | 0.14 | 47 | 1015.6 |
| 20260831135101 | 76 | 250 | 9.6 | 17.4 | 0.00 | 0.14 | 0.14 | 46 | 1015.6 |
| 20260831135001 | 76 | 257 | 9.6 | 17.4 | 0.00 | 0.14 | 0.14 | 46 | 1015.7 |
| 20260831134901 | 76 | 253 | 9.6 | 17.4 | 0.00 | 0.14 | 0.14 | 46 | 1015.6 |
| 20260831134801 | 76 | 291 | 9.6 | 17.4 | 0.00 | 0.14 | 0.14 | 47 | 1015.7 |
| 20260831134701 | 76 | 281 | 9.6 | 15.6 | 0.00 | 0.14 | 0.14 | 47 | 1015.7 |
| 20260831134601 | 76 | 242 | 9.6 | 15.6 | 0.00 | 0.14 | 0.14 | 47 | 1015.6 |
| 20260831134501 | 76 | 264 | 9.6 | 15.6 | 0.00 | 0.14 | 0.14 | 46 | 1015.6 |
| 20260831134402 | 76 | 280 | 9.6 | 15.6 | 0.00 | 0.14 | 0.14 | 47 | 1015.7 |
| 20260831134305 | 76 | 304 | 9.6 | 15.6 | 0.00 | 0.14 | 0.14 | 47 | 1015.8 |
| 20260831134202 | 76 | 274 | 9.6 | 16.5 | 0.00 | 0.14 | 0.14 | 46 | 1015.8 |
| 20260831134102 | 76 | 276 | 9.6 | 19.1 | 0.00 | 0.14 | 0.14 | 47 | 1015.8 |
| 20260831134001 | 76 | 261 | 9.6 | 19.1 | 0.00 | 0.14 | 0.14 | 48 | 1015.7 |
| 20260831133901 | 76 | 250 | 9.6 | 19.1 | 0.00 | 0.14 | 0.14 | 47 | 1015.8 |
| 20260831133802 | 76 | 256 | 9.6 | 19.1 | 0.00 | 0.14 | 0.14 | 47 | 1015.8 |
| 20260831133701 | 76 | 290 | 8.7 | 19.1 | 0.00 | 0.14 | 0.14 | 48 | 1015.8 |
| 20260831133601 | 76 | 280 | 8.7 | 19.1 | 0.00 | 0.14 | 0.14 | 46 | 1015.8 |
| 20260831133501 | 76 | 223 | 8.7 | 19.1 | 0.00 | 0.14 | 0.14 | 46 | 1015.8 |
| 20260831133401 | 76 | 277 | 8.7 | 19.1 | 0.00 | 0.14 | 0.14 | 47 | 1015.8 |
| 20260831133301 | 76 | 233 | 8.7 | 19.1 | 0.00 | 0.14 | 0.14 | 46 | 1016.0 |
| 20260831133201 | 76 | 261 | 8.7 | 19.1 | 0.00 | 0.14 | 0.14 | 46 | 1016.2 |
| 20260831133101 | 76 | 269 | 7.8 | 14.8 | 0.00 | 0.14 | 0.14 | 47 | 1015.8 |
| 20260831133021 | 75 | 283 | 8.7 | 14.8 | 0.00 | 0.14 | 0.14 | 47 | 1015.8 |
| 20260831133017 | 75 | 243 | 8.7 | 17.4 | 0.00 | 0.14 | 0.14 | 46 | 1015.8 |
| 20260831133013 | 75 | 245 | 8.7 | 17.4 | 0.00 | 0.14 | 0.14 | 48 | 1015.8 |
| 20260831132701 | 75 | 267 | 9.6 | 17.4 | 0.00 | 0.14 | 0.14 | 48 | 1015.8 |
| 20260831132602 | 75 | 265 | 9.6 | 17.4 | 0.00 | 0.14 | 0.14 | 47 | 1015.8 |
| 20260831132501 | 75 | 262 | 9.6 | 17.4 | 0.00 | 0.14 | 0.14 | 48 | 1016.0 |
| 20260831132401 | 75 | 239 | 10.4 | 17.4 | 0.00 | 0.14 | 0.14 | 47 | 1016.0 |
| 20260831132301 | 75 | 250 | 10.4 | 17.4 | 0.00 | 0.14 | 0.14 | 47 | 1016.0 |
| 20260831132201 | 75 | 208 | 10.4 | 17.4 | 0.00 | 0.14 | 0.14 | 46 | 1015.8 |
| 20260831132101 | 75 | 281 | 10.4 | 17.4 | 0.00 | 0.14 | 0.14 | 46 | 1016.0 |
| 20260831132000 | 75 | 246 | 10.4 | 17.4 | 0.00 | 0.14 | 0.14 | 46 | 1016.0 |
| 20260831131900 | 75 | 284 | 10.4 | 16.5 | 0.00 | 0.14 | 0.14 | 45 | 1016.0 |
| 20260831131800 | 75 | 292 | 9.6 | 16.5 | 0.00 | 0.14 | 0.14 | 46 | 1016.1 |
| 20260831131700 | 75 | 243 | 9.6 | 15.6 | 0.00 | 0.14 | 0.14 | 46 | 1016.0 |
| 20260831131600 | 75 | 269 | 9.6 | 15.6 | 0.00 | 0.14 | 0.14 | 46 | 1015.8 |
| 20260831131501 | 75 | 236 | 9.6 | 15.6 | 0.00 | 0.14 | 0.14 | 45 | 1016.0 |
| 20260831131401 | 75 | 271 | 9.6 | 15.6 | 0.00 | 0.14 | 0.14 | 45 | 1016.0 |
| 20260831131301 | 75 | 268 | 8.7 | 15.6 | 0.00 | 0.14 | 0.14 | 47 | 1016.0 |
| 20260831131201 | 75 | 260 | 8.7 | 15.6 | 0.00 | 0.14 | 0.14 | 46 | 1016.0 |
| 20260831131101 | 75 | 221 | 8.7 | 13.9 | 0.00 | 0.14 | 0.14 | 47 | 1015.8 |
| 20260831131019 | 75 | 231 | 8.7 | 17.4 | 0.00 | 0.14 | 0.14 | 47 | 1016.0 |
| 20260831131015 | 75 | 236 | 9.6 | 17.4 | 0.00 | 0.14 | 0.14 | 46 | 1016.0 |
| 20260831131011 | 75 | 242 | 9.6 | 17.4 | 0.00 | 0.14 | 0.14 | 46 | 1016.0 |
| 20260831130702 | 75 | 254 | 9.6 | 17.4 | 0.00 | 0.14 | 0.14 | 45 | 1016.0 |
| 20260831130601 | 75 | 286 | 9.6 | 17.4 | 0.00 | 0.14 | 0.14 | 46 | 1016.1 |
| 20260831130501 | 75 | 283 | 9.6 | 17.4 | 0.00 | 0.14 | 0.14 | 46 | 1016.0 |
| 20260831130401 | 75 | 265 | 9.6 | 17.4 | 0.00 | 0.14 | 0.14 | 45 | 1015.8 |
| 20260831130301 | 74 | 253 | 9.6 | 17.4 | 0.00 | 0.14 | 0.14 | 45 | 1016.0 |
| 20260831130231 | 74 | 267 | 9.6 | 17.4 | 0.00 | 0.14 | 0.14 | 46 | 1016.0 |
| 20260831130101 | 74 | 254 | 8.7 | 17.4 | 0.00 | 0.14 | 0.14 | 46 | 1016.1 |
| 20260831130021 | 74 | 270 | 8.7 | 17.4 | 0.00 | 0.14 | 0.14 | 46 | 1016.0 |
| 20260831130017 | 74 | 267 | 8.7 | 17.4 | 0.00 | 0.14 | 0.14 | 45 | 1016.1 |
| 20260831130013 | 74 | 257 | 7.8 | 17.4 | 0.00 | 0.14 | 0.14 | 46 | 1015.8 |
| 20260831125701 | 74 | 255 | 7.8 | 17.4 | 0.00 | 0.14 | 0.14 | 48 | 1016.0 |
| 20260831125601 | 74 | 261 | 7.8 | 17.4 | 0.00 | 0.14 | 0.14 | 46 | 1016.0 |
| 20260831125501 | 74 | 257 | 7.0 | 17.4 | 0.00 | 0.14 | 0.14 | 48 | 1016.0 |
| 20260831125400 | 74 | 267 | 7.8 | 13.0 | 0.00 | 0.14 | 0.14 | 49 | 1016.0 |
| 20260831125301 | 74 | 269 | 7.0 | 13.0 | 0.00 | 0.14 | 0.14 | 48 | 1016.0 |
| 20260831125200 | 74 | 316 | 7.8 | 13.0 | 0.00 | 0.14 | 0.14 | 48 | 1015.8 |
| 20260831125102 | 74 | 279 | 7.8 | 17.4 | 0.00 | 0.14 | 0.14 | 49 | 1016.0 |
| 20260831125001 | 74 | 265 | 7.8 | 17.4 | 0.00 | 0.14 | 0.14 | 48 | 1016.0 |
| 20260831124901 | 74 | 276 | 7.8 | 17.4 | 0.00 | 0.14 | 0.14 | 49 | 1016.0 |
| 20260831124800 | 74 | 219 | 7.8 | 17.4 | 0.00 | 0.14 | 0.14 | 49 | 1016.1 |
| 20260831124701 | 75 | 291 | 8.7 | 17.4 | 0.00 | 0.14 | 0.14 | 49 | 1016.0 |
| 20260831124601 | 75 | 239 | 8.7 | 17.4 | 0.00 | 0.14 | 0.14 | 48 | 1016.0 |
| 20260831124501 | 75 | 213 | 8.7 | 17.4 | 0.00 | 0.14 | 0.14 | 49 | 1016.0 |
| 20260831124401 | 75 | 254 | 8.7 | 17.4 | 0.00 | 0.14 | 0.14 | 49 | 1016.0 |
| 20260831124301 | 75 | 236 | 8.7 | 17.4 | 0.00 | 0.14 | 0.14 | 49 | 1016.0 |
| 20260831124202 | 75 | 271 | 8.7 | 17.4 | 0.00 | 0.14 | 0.14 | 50 | 1016.1 |
| 20260831124103 | 74 | 300 | 8.7 | 14.8 | 0.00 | 0.14 | 0.14 | 51 | 1016.0 |
| 20260831124001 | 74 | 240 | 8.7 | 14.8 | 0.00 | 0.14 | 0.14 | 51 | 1016.1 |
| 20260831123901 | 74 | 266 | 8.7 | 14.8 | 0.00 | 0.14 | 0.14 | 50 | 1016.0 |
| 20260831123801 | 74 | 260 | 8.7 | 14.8 | 0.00 | 0.14 | 0.14 | 48 | 1016.0 |
| 20260831123701 | 74 | 271 | 7.8 | 14.8 | 0.00 | 0.14 | 0.14 | 50 | 1016.1 |
| 20260831123601 | 74 | 214 | 7.8 | 14.8 | 0.00 | 0.14 | 0.14 | 51 | 1016.0 |
| 20260831123501 | 74 | 221 | 7.8 | 14.8 | 0.00 | 0.14 | 0.14 | 52 | 1016.0 |
| 20260831123401 | 74 | 241 | 7.8 | 19.1 | 0.00 | 0.14 | 0.14 | 50 | 1016.0 |
| 20260831123301 | 74 | 279 | 7.8 | 19.1 | 0.00 | 0.14 | 0.14 | 50 | 1016.0 |
| 20260831123201 | 74 | 231 | 7.8 | 19.1 | 0.00 | 0.14 | 0.14 | 51 | 1016.0 |
| 20260831123101 | 74 | 278 | 7.0 | 19.1 | 0.00 | 0.14 | 0.14 | 51 | 1016.1 |
| 20260831123001 | 74 | 218 | 7.8 | 19.1 | 0.00 | 0.14 | 0.14 | 53 | 1016.1 |
| 20260831122900 | 74 | 244 | 7.8 | 19.1 | 0.00 | 0.14 | 0.14 | 54 | 1016.0 |
| 20260831122802 | 74 | 293 | 7.8 | 19.1 | 0.00 | 0.14 | 0.14 | 52 | 1016.0 |
| 20260831122701 | 74 | 306 | 8.7 | 19.1 | 0.00 | 0.14 | 0.14 | 52 | 1016.1 |
| 20260831122601 | 74 | 232 | 8.7 | 19.1 | 0.00 | 0.14 | 0.14 | 52 | 1016.0 |
| 20260831122501 | 74 | 295 | 8.7 | 19.1 | 0.00 | 0.14 | 0.14 | 53 | 1016.0 |
| 20260831122401 | 74 | 213 | 9.6 | 19.1 | 0.00 | 0.14 | 0.14 | 53 | 1016.0 |
| 20260831122301 | 74 | 227 | 9.6 | 19.1 | 0.00 | 0.14 | 0.14 | 53 | 1016.0 |
| 20260831122201 | 74 | 252 | 9.6 | 19.1 | 0.00 | 0.14 | 0.14 | 52 | 1016.1 |
| 20260831122100 | 74 | 233 | 9.6 | 19.1 | 0.00 | 0.14 | 0.14 | 51 | 1016.1 |
| 20260831122000 | 74 | 212 | 9.6 | 19.1 | 0.00 | 0.14 | 0.14 | 52 | 1016.2 |
| 20260831121900 | 74 | 252 | 9.6 | 19.1 | 0.00 | 0.14 | 0.14 | 51 | 1016.1 |
| 20260831121800 | 74 | 246 | 9.6 | 19.1 | 0.00 | 0.14 | 0.14 | 51 | 1016.1 |
| 20260831121700 | 74 | 233 | 9.6 | 19.1 | 0.00 | 0.14 | 0.14 | 50 | 1016.1 |
| 20260831121600 | 74 | 242 | 9.6 | 19.1 | 0.00 | 0.14 | 0.14 | 50 | 1016.3 |
| 20260831121501 | 74 | 210 | 9.6 | 19.1 | 0.00 | 0.14 | 0.14 | 50 | 1016.2 |
| 20260831121401 | 74 | 248 | 9.6 | 18.2 | 0.00 | 0.14 | 0.14 | 49 | 1016.2 |
| 20260831121302 | 74 | 271 | 9.6 | 18.2 | 0.00 | 0.14 | 0.14 | 50 | 1016.2 |
| 20260831121201 | 74 | 263 | 9.6 | 18.2 | 0.00 | 0.14 | 0.14 | 51 | 1016.0 |
| 20260831121101 | 74 | 292 | 9.6 | 18.2 | 0.00 | 0.14 | 0.14 | 50 | 1016.1 |
| 20260831121002 | 74 | 269 | 9.6 | 18.2 | 0.00 | 0.14 | 0.14 | 51 | 1016.1 |
| 20260831120901 | 74 | 252 | 9.6 | 19.1 | 0.00 | 0.14 | 0.14 | 52 | 1016.1 |
| 20260831120801 | 74 | 242 | 10.4 | 19.1 | 0.00 | 0.14 | 0.14 | 52 | 1016.0 |
| 20260831120701 | 74 | 178 | 10.4 | 19.1 | 0.00 | 0.14 | 0.14 | 52 | 1016.0 |
| 20260831120601 | 74 | 279 | 10.4 | 19.1 | 0.00 | 0.14 | 0.14 | 52 | 1016.2 |
| 20260831120501 | 74 | 263 | 10.4 | 19.1 | 0.00 | 0.14 | 0.14 | 53 | 1016.1 |
| 20260831120401 | 73 | 268 | 10.4 | 19.1 | 0.00 | 0.14 | 0.14 | 52 | 1016.1 |
| 20260831120301 | 73 | 265 | 9.6 | 19.1 | 0.00 | 0.14 | 0.14 | 53 | 1016.1 |
| 20260831120201 | 73 | 240 | 9.6 | 19.1 | 0.00 | 0.14 | 0.14 | 51 | 1016.1 |
| 20260831120100 | 73 | 242 | 9.6 | 19.1 | 0.00 | 0.14 | 0.14 | 50 | 1016.1 |
| 20260831120000 | 73 | 261 | 8.7 | 19.1 | 0.00 | 0.14 | 0.14 | 52 | 1016.2 |
| 20260831115900 | 73 | 279 | 8.7 | 15.6 | 0.00 | 0.14 | 0.14 | 51 | 1016.2 |
| 20260831115801 | 73 | 209 | 8.7 | 15.6 | 0.00 | 0.14 | 0.14 | 55 | 1016.3 |
| 20260831115700 | 73 | 279 | 8.7 | 15.6 | 0.00 | 0.14 | 0.14 | 55 | 1016.2 |
| 20260831115601 | 73 | 208 | 8.7 | 15.6 | 0.00 | 0.14 | 0.14 | 54 | 1016.2 |
| 20260831115501 | 73 | 254 | 8.7 | 15.6 | 0.00 | 0.14 | 0.14 | 54 | 1016.2 |
| 20260831115401 | 73 | 225 | 8.7 | 15.6 | 0.00 | 0.14 | 0.14 | 54 | 1016.2 |
| 20260831115301 | 73 | 229 | 8.7 | 15.6 | 0.00 | 0.14 | 0.14 | 56 | 1016.2 |
| 20260831115201 | 73 | 238 | 8.7 | 15.6 | 0.00 | 0.14 | 0.14 | 55 | 1016.2 |
| 20260831115101 | 73 | 277 | 8.7 | 15.6 | 0.00 | 0.14 | 0.14 | 54 | 1016.2 |
| 20260831115001 | 73 | 226 | 8.7 | 15.6 | 0.00 | 0.14 | 0.14 | 55 | 1016.2 |
| 20260831114901 | 73 | 228 | 8.7 | 15.6 | 0.00 | 0.14 | 0.14 | 53 | 1016.3 |
| 20260831114800 | 73 | 277 | 8.7 | 15.6 | 0.00 | 0.14 | 0.14 | 53 | 1016.3 |
| 20260831114700 | 73 | 269 | 7.8 | 15.6 | 0.00 | 0.14 | 0.14 | 55 | 1016.4 |
| 20260831114600 | 73 | 287 | 7.8 | 14.8 | 0.00 | 0.14 | 0.14 | 54 | 1016.3 |
| 20260831114522 | 73 | 277 | 7.8 | 14.8 | 0.00 | 0.14 | 0.14 | 56 | 1016.3 |
| 20260831114518 | 73 | 268 | 7.8 | 13.0 | 0.00 | 0.14 | 0.14 | 56 | 1016.3 |
| 20260831114514 | 73 | 283 | 7.8 | 13.0 | 0.00 | 0.14 | 0.14 | 58 | 1016.3 |
| 20260831114202 | 73 | 255 | 7.8 | 13.0 | 0.00 | 0.14 | 0.14 | 57 | 1016.3 |
| 20260831114101 | 73 | 292 | 7.8 | 16.5 | 0.00 | 0.14 | 0.14 | 57 | 1016.3 |
| 20260831114001 | 73 | 290 | 8.7 | 16.5 | 0.00 | 0.14 | 0.14 | 59 | 1016.3 |
| 20260831113901 | 73 | 296 | 8.7 | 16.5 | 0.00 | 0.14 | 0.14 | 58 | 1016.3 |
| 20260831113801 | 73 | 288 | 8.7 | 16.5 | 0.00 | 0.14 | 0.14 | 57 | 1016.3 |
| 20260831113701 | 73 | 257 | 9.6 | 16.5 | 0.00 | 0.14 | 0.14 | 58 | 1016.4 |
| 20260831113601 | 73 | 235 | 9.6 | 20.0 | 0.00 | 0.14 | 0.14 | 57 | 1016.4 |
| 20260831113501 | 73 | 235 | 10.4 | 20.0 | 0.00 | 0.14 | 0.14 | 57 | 1016.4 |
| 20260831113401 | 73 | 242 | 10.4 | 20.0 | 0.00 | 0.14 | 0.14 | 58 | 1016.4 |
| 20260831113301 | 73 | 252 | 10.4 | 20.0 | 0.00 | 0.14 | 0.14 | 57 | 1016.4 |
| 20260831113205 | 73 | 238 | 11.3 | 20.0 | 0.00 | 0.14 | 0.14 | 59 | 1016.5 |
| 20260831113101 | 72 | 231 | 11.3 | 20.0 | 0.00 | 0.14 | 0.14 | 58 | 1016.4 |